<?xml version='1.0' encoding='UTF-8'?>
<gpx version="1.1" creator="https://www.komoot.de" xmlns="http://www.topografix.com/GPX/1/1" xmlns:xsi="http://www.w3.org/2001/XMLSchema-instance" xsi:schemaLocation="http://www.topografix.com/GPX/1/1 http://www.topografix.com/GPX/1/1/gpx.xsd">
  <metadata>
    <name>56_1000BuusEptigenSiflue</name>
    <author>
      <link href="https://www.komoot.de">
        <text>komoot</text>
        <type>text/html</type>
      </link>
    </author>
  </metadata>
  <trk>
    <name>56_1000BuusEptigenSiflue</name>
    <trkseg>
      <trkpt lat="47.541245" lon="7.870928">
        <ele>339.214789</ele>
        <time>2021-11-14T18:24:19.082Z</time>
      </trkpt>
      <trkpt lat="47.541410" lon="7.870791">
        <ele>339.214789</ele>
        <time>2021-11-14T18:24:22.062Z</time>
      </trkpt>
      <trkpt lat="47.541576" lon="7.870664">
        <ele>339.214789</ele>
        <time>2021-11-14T18:24:24.499Z</time>
      </trkpt>
      <trkpt lat="47.541550" lon="7.870601">
        <ele>339.214789</ele>
        <time>2021-11-14T18:24:25.296Z</time>
      </trkpt>
      <trkpt lat="47.541521" lon="7.870517">
        <ele>339.214789</ele>
        <time>2021-11-14T18:24:26.335Z</time>
      </trkpt>
      <trkpt lat="47.541606" lon="7.870424">
        <ele>339.214789</ele>
        <time>2021-11-14T18:24:27.998Z</time>
      </trkpt>
      <trkpt lat="47.541910" lon="7.870106">
        <ele>339.155000</ele>
        <time>2021-11-14T18:24:33.661Z</time>
      </trkpt>
      <trkpt lat="47.542014" lon="7.870126">
        <ele>339.062819</ele>
        <time>2021-11-14T18:24:35.132Z</time>
      </trkpt>
      <trkpt lat="47.542118" lon="7.870135">
        <ele>338.971250</ele>
        <time>2021-11-14T18:24:36.848Z</time>
      </trkpt>
      <trkpt lat="47.542181" lon="7.870131">
        <ele>338.915824</ele>
        <time>2021-11-14T18:24:37.723Z</time>
      </trkpt>
      <trkpt lat="47.542317" lon="7.870012">
        <ele>338.776987</ele>
        <time>2021-11-14T18:24:39.843Z</time>
      </trkpt>
      <trkpt lat="47.542348" lon="7.869983">
        <ele>338.744760</ele>
        <time>2021-11-14T18:24:40.282Z</time>
      </trkpt>
      <trkpt lat="47.542329" lon="7.869820">
        <ele>338.646613</ele>
        <time>2021-11-14T18:24:42.038Z</time>
      </trkpt>
      <trkpt lat="47.542372" lon="7.869746">
        <ele>338.588678</ele>
        <time>2021-11-14T18:24:42.855Z</time>
      </trkpt>
      <trkpt lat="47.542657" lon="7.869354">
        <ele>338.246840</ele>
        <time>2021-11-14T18:24:47.656Z</time>
      </trkpt>
      <trkpt lat="47.542696" lon="7.869257">
        <ele>338.179850</ele>
        <time>2021-11-14T18:24:48.591Z</time>
      </trkpt>
      <trkpt lat="47.542722" lon="7.869201">
        <ele>338.139522</ele>
        <time>2021-11-14T18:24:49.183Z</time>
      </trkpt>
      <trkpt lat="47.543049" lon="7.868759">
        <ele>337.750430</ele>
        <time>2021-11-14T18:24:54.096Z</time>
      </trkpt>
      <trkpt lat="47.543105" lon="7.868711">
        <ele>337.693562</ele>
        <time>2021-11-14T18:24:54.834Z</time>
      </trkpt>
      <trkpt lat="47.543201" lon="7.868657">
        <ele>337.586257</ele>
        <time>2021-11-14T18:24:55.912Z</time>
      </trkpt>
      <trkpt lat="47.543657" lon="7.868359">
        <ele>336.903529</ele>
        <time>2021-11-14T18:25:01.708Z</time>
      </trkpt>
      <trkpt lat="47.543801" lon="7.868269">
        <ele>336.689435</ele>
        <time>2021-11-14T18:25:04.187Z</time>
      </trkpt>
      <trkpt lat="47.544214" lon="7.867988">
        <ele>336.066874</ele>
        <time>2021-11-14T18:25:11.804Z</time>
      </trkpt>
      <trkpt lat="47.544246" lon="7.867967">
        <ele>336.018931</ele>
        <time>2021-11-14T18:25:12.400Z</time>
      </trkpt>
      <trkpt lat="47.544410" lon="7.867825">
        <ele>335.758719</ele>
        <time>2021-11-14T18:25:15.653Z</time>
      </trkpt>
      <trkpt lat="47.544469" lon="7.867776">
        <ele>335.666064</ele>
        <time>2021-11-14T18:25:16.675Z</time>
      </trkpt>
      <trkpt lat="47.544568" lon="7.867693">
        <ele>335.510239</ele>
        <time>2021-11-14T18:25:18.602Z</time>
      </trkpt>
      <trkpt lat="47.545003" lon="7.867278">
        <ele>335.364686</ele>
        <time>2021-11-14T18:25:27.451Z</time>
      </trkpt>
      <trkpt lat="47.545160" lon="7.866985">
        <ele>335.547485</ele>
        <time>2021-11-14T18:25:32.101Z</time>
      </trkpt>
      <trkpt lat="47.545240" lon="7.866887">
        <ele>335.622632</ele>
        <time>2021-11-14T18:25:34.375Z</time>
      </trkpt>
      <trkpt lat="47.546096" lon="7.866147">
        <ele>336.340080</ele>
        <time>2021-11-14T18:25:59.445Z</time>
      </trkpt>
      <trkpt lat="47.546327" lon="7.865959">
        <ele>336.633833</ele>
        <time>2021-11-14T18:26:07.182Z</time>
      </trkpt>
      <trkpt lat="47.546510" lon="7.865766">
        <ele>337.080883</ele>
        <time>2021-11-14T18:26:14.283Z</time>
      </trkpt>
      <trkpt lat="47.546819" lon="7.865489">
        <ele>337.799648</ele>
        <time>2021-11-14T18:26:24.514Z</time>
      </trkpt>
      <trkpt lat="47.546889" lon="7.865225">
        <ele>338.180663</ele>
        <time>2021-11-14T18:26:29.704Z</time>
      </trkpt>
      <trkpt lat="47.546894" lon="7.864837">
        <ele>338.701963</ele>
        <time>2021-11-14T18:26:37.125Z</time>
      </trkpt>
      <trkpt lat="47.546885" lon="7.864500">
        <ele>339.155014</ele>
        <time>2021-11-14T18:26:43.914Z</time>
      </trkpt>
      <trkpt lat="47.546877" lon="7.864345">
        <ele>339.363835</ele>
        <time>2021-11-14T18:26:46.808Z</time>
      </trkpt>
      <trkpt lat="47.546592" lon="7.863006">
        <ele>340.568083</ele>
        <time>2021-11-14T18:27:12.817Z</time>
      </trkpt>
      <trkpt lat="47.546526" lon="7.861665">
        <ele>341.346651</ele>
        <time>2021-11-14T18:27:33.549Z</time>
      </trkpt>
      <trkpt lat="47.546487" lon="7.859119">
        <ele>341.174407</ele>
        <time>2021-11-14T18:28:06.169Z</time>
      </trkpt>
      <trkpt lat="47.546537" lon="7.857497">
        <ele>340.874303</ele>
        <time>2021-11-14T18:28:27.181Z</time>
      </trkpt>
      <trkpt lat="47.546582" lon="7.856413">
        <ele>340.680992</ele>
        <time>2021-11-14T18:28:41.535Z</time>
      </trkpt>
      <trkpt lat="47.546945" lon="7.851719">
        <ele>339.223861</ele>
        <time>2021-11-14T18:29:42.569Z</time>
      </trkpt>
      <trkpt lat="47.547141" lon="7.850355">
        <ele>338.225347</ele>
        <time>2021-11-14T18:29:58.134Z</time>
      </trkpt>
      <trkpt lat="47.547143" lon="7.849985">
        <ele>337.739483</ele>
        <time>2021-11-14T18:30:02.043Z</time>
      </trkpt>
      <trkpt lat="47.547124" lon="7.848795">
        <ele>336.176451</ele>
        <time>2021-11-14T18:30:14.641Z</time>
      </trkpt>
      <trkpt lat="47.547274" lon="7.845536">
        <ele>332.101491</ele>
        <time>2021-11-14T18:30:49.400Z</time>
      </trkpt>
      <trkpt lat="47.547295" lon="7.844722">
        <ele>331.941739</ele>
        <time>2021-11-14T18:30:58.882Z</time>
      </trkpt>
      <trkpt lat="47.547313" lon="7.843735">
        <ele>332.109745</ele>
        <time>2021-11-14T18:31:11.529Z</time>
      </trkpt>
      <trkpt lat="47.547354" lon="7.842839">
        <ele>332.262555</ele>
        <time>2021-11-14T18:31:26.692Z</time>
      </trkpt>
      <trkpt lat="47.547448" lon="7.842262">
        <ele>333.292272</ele>
        <time>2021-11-14T18:31:38.704Z</time>
      </trkpt>
      <trkpt lat="47.547314" lon="7.842270">
        <ele>333.770616</ele>
        <time>2021-11-14T18:31:42.880Z</time>
      </trkpt>
      <trkpt lat="47.546951" lon="7.842267">
        <ele>335.065396</ele>
        <time>2021-11-14T18:31:54.573Z</time>
      </trkpt>
      <trkpt lat="47.546843" lon="7.842270">
        <ele>335.450682</ele>
        <time>2021-11-14T18:31:57.521Z</time>
      </trkpt>
      <trkpt lat="47.546312" lon="7.842261">
        <ele>337.344793</ele>
        <time>2021-11-14T18:32:14.064Z</time>
      </trkpt>
      <trkpt lat="47.545011" lon="7.842239">
        <ele>344.358054</ele>
        <time>2021-11-14T18:32:59.890Z</time>
      </trkpt>
      <trkpt lat="47.544939" lon="7.842229">
        <ele>344.802727</ele>
        <time>2021-11-14T18:33:03.376Z</time>
      </trkpt>
      <trkpt lat="47.544480" lon="7.842116">
        <ele>347.663847</ele>
        <time>2021-11-14T18:33:21.055Z</time>
      </trkpt>
      <trkpt lat="47.543343" lon="7.841595">
        <ele>358.792482</ele>
        <time>2021-11-14T18:34:19.600Z</time>
      </trkpt>
      <trkpt lat="47.543032" lon="7.841467">
        <ele>362.227795</ele>
        <time>2021-11-14T18:34:38.627Z</time>
      </trkpt>
      <trkpt lat="47.542890" lon="7.841434">
        <ele>363.757571</ele>
        <time>2021-11-14T18:34:48.325Z</time>
      </trkpt>
      <trkpt lat="47.542795" lon="7.841432">
        <ele>364.768748</ele>
        <time>2021-11-14T18:34:54.499Z</time>
      </trkpt>
      <trkpt lat="47.542781" lon="7.841430">
        <ele>364.918440</ele>
        <time>2021-11-14T18:34:55.581Z</time>
      </trkpt>
      <trkpt lat="47.542339" lon="7.841424">
        <ele>369.815255</ele>
        <time>2021-11-14T18:35:25.543Z</time>
      </trkpt>
      <trkpt lat="47.542097" lon="7.841420">
        <ele>373.087529</ele>
        <time>2021-11-14T18:35:43.673Z</time>
      </trkpt>
      <trkpt lat="47.541583" lon="7.841568">
        <ele>380.167367</ele>
        <time>2021-11-14T18:36:21.205Z</time>
      </trkpt>
      <trkpt lat="47.541483" lon="7.841624">
        <ele>381.612850</ele>
        <time>2021-11-14T18:36:28.805Z</time>
      </trkpt>
      <trkpt lat="47.541409" lon="7.841671">
        <ele>382.701488</ele>
        <time>2021-11-14T18:36:34.931Z</time>
      </trkpt>
      <trkpt lat="47.541351" lon="7.841740">
        <ele>383.707287</ele>
        <time>2021-11-14T18:36:40.219Z</time>
      </trkpt>
      <trkpt lat="47.541050" lon="7.841906">
        <ele>388.049986</ele>
        <time>2021-11-14T18:37:01.785Z</time>
      </trkpt>
      <trkpt lat="47.540817" lon="7.841934">
        <ele>391.210718</ele>
        <time>2021-11-14T18:37:16.854Z</time>
      </trkpt>
      <trkpt lat="47.540744" lon="7.841906">
        <ele>392.230298</ele>
        <time>2021-11-14T18:37:23.091Z</time>
      </trkpt>
      <trkpt lat="47.540531" lon="7.841825">
        <ele>394.793656</ele>
        <time>2021-11-14T18:37:35.976Z</time>
      </trkpt>
      <trkpt lat="47.540305" lon="7.841591">
        <ele>397.747188</ele>
        <time>2021-11-14T18:37:54.347Z</time>
      </trkpt>
      <trkpt lat="47.540168" lon="7.841414">
        <ele>399.694397</ele>
        <time>2021-11-14T18:38:06.157Z</time>
      </trkpt>
      <trkpt lat="47.540066" lon="7.841269">
        <ele>401.208689</ele>
        <time>2021-11-14T18:38:14.642Z</time>
      </trkpt>
      <trkpt lat="47.539702" lon="7.840734">
        <ele>406.701274</ele>
        <time>2021-11-14T18:38:40.140Z</time>
      </trkpt>
      <trkpt lat="47.539657" lon="7.840668">
        <ele>407.379590</ele>
        <time>2021-11-14T18:38:44.626Z</time>
      </trkpt>
      <trkpt lat="47.539459" lon="7.840353">
        <ele>410.491912</ele>
        <time>2021-11-14T18:38:59.645Z</time>
      </trkpt>
      <trkpt lat="47.539357" lon="7.840201">
        <ele>412.041693</ele>
        <time>2021-11-14T18:39:07.417Z</time>
      </trkpt>
      <trkpt lat="47.539226" lon="7.839805">
        <ele>414.900112</ele>
        <time>2021-11-14T18:39:24.123Z</time>
      </trkpt>
      <trkpt lat="47.538868" lon="7.838681">
        <ele>422.800897</ele>
        <time>2021-11-14T18:40:10.505Z</time>
      </trkpt>
      <trkpt lat="47.538837" lon="7.838580">
        <ele>423.506218</ele>
        <time>2021-11-14T18:40:15.616Z</time>
      </trkpt>
      <trkpt lat="47.538810" lon="7.838491">
        <ele>424.126510</ele>
        <time>2021-11-14T18:40:18.700Z</time>
      </trkpt>
      <trkpt lat="47.538712" lon="7.838169">
        <ele>426.371930</ele>
        <time>2021-11-14T18:40:29.904Z</time>
      </trkpt>
      <trkpt lat="47.538612" lon="7.837844">
        <ele>428.642501</ele>
        <time>2021-11-14T18:40:41.456Z</time>
      </trkpt>
      <trkpt lat="47.538505" lon="7.837464">
        <ele>430.873614</ele>
        <time>2021-11-14T18:40:53.997Z</time>
      </trkpt>
      <trkpt lat="47.538410" lon="7.837106">
        <ele>432.801573</ele>
        <time>2021-11-14T18:41:06.457Z</time>
      </trkpt>
      <trkpt lat="47.538222" lon="7.835464">
        <ele>441.148919</ele>
        <time>2021-11-14T18:41:57.286Z</time>
      </trkpt>
      <trkpt lat="47.538158" lon="7.835307">
        <ele>442.068145</ele>
        <time>2021-11-14T18:42:02.127Z</time>
      </trkpt>
      <trkpt lat="47.537707" lon="7.834801">
        <ele>445.608522</ele>
        <time>2021-11-14T18:42:23.414Z</time>
      </trkpt>
      <trkpt lat="47.537138" lon="7.834039">
        <ele>450.223634</ele>
        <time>2021-11-14T18:42:53.819Z</time>
      </trkpt>
      <trkpt lat="47.536897" lon="7.833599">
        <ele>452.525059</ele>
        <time>2021-11-14T18:43:09.620Z</time>
      </trkpt>
      <trkpt lat="47.536802" lon="7.833477">
        <ele>453.281535</ele>
        <time>2021-11-14T18:43:14.642Z</time>
      </trkpt>
      <trkpt lat="47.536644" lon="7.833357">
        <ele>453.742171</ele>
        <time>2021-11-14T18:43:20.981Z</time>
      </trkpt>
      <trkpt lat="47.536401" lon="7.833309">
        <ele>454.006932</ele>
        <time>2021-11-14T18:43:29.121Z</time>
      </trkpt>
      <trkpt lat="47.536091" lon="7.833355">
        <ele>454.343405</ele>
        <time>2021-11-14T18:43:38.867Z</time>
      </trkpt>
      <trkpt lat="47.535868" lon="7.833423">
        <ele>454.589294</ele>
        <time>2021-11-14T18:43:43.465Z</time>
      </trkpt>
      <trkpt lat="47.535301" lon="7.833465">
        <ele>455.202414</ele>
        <time>2021-11-14T18:43:51.630Z</time>
      </trkpt>
      <trkpt lat="47.535041" lon="7.833445">
        <ele>455.483590</ele>
        <time>2021-11-14T18:43:54.290Z</time>
      </trkpt>
      <trkpt lat="47.534869" lon="7.833423">
        <ele>454.781830</ele>
        <time>2021-11-14T18:43:55.870Z</time>
      </trkpt>
      <trkpt lat="47.534581" lon="7.833360">
        <ele>452.735403</ele>
        <time>2021-11-14T18:43:58.781Z</time>
      </trkpt>
      <trkpt lat="47.534536" lon="7.833350">
        <ele>452.415539</ele>
        <time>2021-11-14T18:43:59.163Z</time>
      </trkpt>
      <trkpt lat="47.534258" lon="7.833316">
        <ele>450.454715</ele>
        <time>2021-11-14T18:44:01.834Z</time>
      </trkpt>
      <trkpt lat="47.534141" lon="7.833324">
        <ele>449.631399</ele>
        <time>2021-11-14T18:44:02.853Z</time>
      </trkpt>
      <trkpt lat="47.534011" lon="7.833341">
        <ele>448.714022</ele>
        <time>2021-11-14T18:44:04.130Z</time>
      </trkpt>
      <trkpt lat="47.533862" lon="7.833372">
        <ele>447.656358</ele>
        <time>2021-11-14T18:44:05.444Z</time>
      </trkpt>
      <trkpt lat="47.533532" lon="7.833561">
        <ele>445.169272</ele>
        <time>2021-11-14T18:44:08.533Z</time>
      </trkpt>
      <trkpt lat="47.532636" lon="7.834081">
        <ele>437.945258</ele>
        <time>2021-11-14T18:44:16.744Z</time>
      </trkpt>
      <trkpt lat="47.532463" lon="7.834255">
        <ele>436.325330</ele>
        <time>2021-11-14T18:44:18.537Z</time>
      </trkpt>
      <trkpt lat="47.532205" lon="7.834515">
        <ele>433.907984</ele>
        <time>2021-11-14T18:44:21.314Z</time>
      </trkpt>
      <trkpt lat="47.532044" lon="7.834687">
        <ele>432.370213</ele>
        <time>2021-11-14T18:44:23.239Z</time>
      </trkpt>
      <trkpt lat="47.531889" lon="7.834953">
        <ele>430.532484</ele>
        <time>2021-11-14T18:44:25.410Z</time>
      </trkpt>
      <trkpt lat="47.531845" lon="7.835185">
        <ele>429.272102</ele>
        <time>2021-11-14T18:44:27.049Z</time>
      </trkpt>
      <trkpt lat="47.531842" lon="7.835360">
        <ele>428.928681</ele>
        <time>2021-11-14T18:44:28.101Z</time>
      </trkpt>
      <trkpt lat="47.531902" lon="7.835562">
        <ele>428.841830</ele>
        <time>2021-11-14T18:44:29.695Z</time>
      </trkpt>
      <trkpt lat="47.532166" lon="7.836191">
        <ele>428.550350</ele>
        <time>2021-11-14T18:44:35.021Z</time>
      </trkpt>
      <trkpt lat="47.532213" lon="7.836549">
        <ele>428.406818</ele>
        <time>2021-11-14T18:44:38.971Z</time>
      </trkpt>
      <trkpt lat="47.532075" lon="7.836901">
        <ele>428.246625</ele>
        <time>2021-11-14T18:44:43.738Z</time>
      </trkpt>
      <trkpt lat="47.531841" lon="7.837301">
        <ele>428.038331</ele>
        <time>2021-11-14T18:44:51.810Z</time>
      </trkpt>
      <trkpt lat="47.531768" lon="7.837658">
        <ele>427.962521</ele>
        <time>2021-11-14T18:44:58.327Z</time>
      </trkpt>
      <trkpt lat="47.531720" lon="7.837849">
        <ele>428.043668</ele>
        <time>2021-11-14T18:45:02.596Z</time>
      </trkpt>
      <trkpt lat="47.531704" lon="7.837885">
        <ele>428.060829</ele>
        <time>2021-11-14T18:45:03.289Z</time>
      </trkpt>
      <trkpt lat="47.531681" lon="7.837936">
        <ele>428.085248</ele>
        <time>2021-11-14T18:45:04.476Z</time>
      </trkpt>
      <trkpt lat="47.530895" lon="7.838718">
        <ele>428.643637</ele>
        <time>2021-11-14T18:45:23.763Z</time>
      </trkpt>
      <trkpt lat="47.530488" lon="7.839231">
        <ele>428.958804</ele>
        <time>2021-11-14T18:45:30.419Z</time>
      </trkpt>
      <trkpt lat="47.529858" lon="7.839444">
        <ele>426.418932</ele>
        <time>2021-11-14T18:45:37.084Z</time>
      </trkpt>
      <trkpt lat="47.529548" lon="7.839617">
        <ele>424.994895</ele>
        <time>2021-11-14T18:45:40.463Z</time>
      </trkpt>
      <trkpt lat="47.529245" lon="7.839917">
        <ele>423.428160</ele>
        <time>2021-11-14T18:45:43.940Z</time>
      </trkpt>
      <trkpt lat="47.529163" lon="7.839998">
        <ele>423.004462</ele>
        <time>2021-11-14T18:45:44.827Z</time>
      </trkpt>
      <trkpt lat="47.528485" lon="7.841355">
        <ele>414.964143</ele>
        <time>2021-11-14T18:45:55.017Z</time>
      </trkpt>
      <trkpt lat="47.528418" lon="7.841430">
        <ele>414.243304</ele>
        <time>2021-11-14T18:45:55.778Z</time>
      </trkpt>
      <trkpt lat="47.528193" lon="7.841373">
        <ele>412.284108</ele>
        <time>2021-11-14T18:45:57.734Z</time>
      </trkpt>
      <trkpt lat="47.527938" lon="7.841436">
        <ele>410.065230</ele>
        <time>2021-11-14T18:46:00.020Z</time>
      </trkpt>
      <trkpt lat="47.527351" lon="7.841981">
        <ele>403.840144</ele>
        <time>2021-11-14T18:46:06.008Z</time>
      </trkpt>
      <trkpt lat="47.527193" lon="7.842130">
        <ele>401.968770</ele>
        <time>2021-11-14T18:46:07.577Z</time>
      </trkpt>
      <trkpt lat="47.526899" lon="7.842437">
        <ele>398.374812</ele>
        <time>2021-11-14T18:46:10.625Z</time>
      </trkpt>
      <trkpt lat="47.526451" lon="7.843043">
        <ele>392.313005</ele>
        <time>2021-11-14T18:46:15.887Z</time>
      </trkpt>
      <trkpt lat="47.526312" lon="7.843288">
        <ele>390.154249</ele>
        <time>2021-11-14T18:46:17.743Z</time>
      </trkpt>
      <trkpt lat="47.526186" lon="7.843427">
        <ele>388.584560</ele>
        <time>2021-11-14T18:46:19.098Z</time>
      </trkpt>
      <trkpt lat="47.526076" lon="7.843504">
        <ele>387.557752</ele>
        <time>2021-11-14T18:46:20.124Z</time>
      </trkpt>
      <trkpt lat="47.525755" lon="7.843791">
        <ele>385.285282</ele>
        <time>2021-11-14T18:46:23.461Z</time>
      </trkpt>
      <trkpt lat="47.525593" lon="7.843962">
        <ele>384.079608</ele>
        <time>2021-11-14T18:46:25.298Z</time>
      </trkpt>
      <trkpt lat="47.525497" lon="7.844134">
        <ele>383.166391</ele>
        <time>2021-11-14T18:46:26.650Z</time>
      </trkpt>
      <trkpt lat="47.525447" lon="7.844752">
        <ele>380.619189</ele>
        <time>2021-11-14T18:46:30.539Z</time>
      </trkpt>
      <trkpt lat="47.525394" lon="7.844881">
        <ele>380.001229</ele>
        <time>2021-11-14T18:46:31.488Z</time>
      </trkpt>
      <trkpt lat="47.525394" lon="7.844881">
        <ele>380.001229</ele>
        <time>2021-11-14T18:46:31.540Z</time>
      </trkpt>
      <trkpt lat="47.525394" lon="7.844881">
        <ele>380.001229</ele>
        <time>2021-11-14T18:46:31.671Z</time>
      </trkpt>
      <trkpt lat="47.525370" lon="7.844925">
        <ele>379.769755</ele>
        <time>2021-11-14T18:46:32.045Z</time>
      </trkpt>
      <trkpt lat="47.525256" lon="7.845127">
        <ele>378.692388</ele>
        <time>2021-11-14T18:46:33.777Z</time>
      </trkpt>
      <trkpt lat="47.525219" lon="7.845193">
        <ele>378.341336</ele>
        <time>2021-11-14T18:46:34.348Z</time>
      </trkpt>
      <trkpt lat="47.525182" lon="7.845309">
        <ele>377.816318</ele>
        <time>2021-11-14T18:46:35.175Z</time>
      </trkpt>
      <trkpt lat="47.525131" lon="7.845562">
        <ele>376.882319</ele>
        <time>2021-11-14T18:46:37.056Z</time>
      </trkpt>
      <trkpt lat="47.525120" lon="7.845616">
        <ele>376.810762</ele>
        <time>2021-11-14T18:46:37.445Z</time>
      </trkpt>
      <trkpt lat="47.525112" lon="7.845716">
        <ele>376.683009</ele>
        <time>2021-11-14T18:46:38.082Z</time>
      </trkpt>
      <trkpt lat="47.525086" lon="7.846061">
        <ele>376.242605</ele>
        <time>2021-11-14T18:46:40.435Z</time>
      </trkpt>
      <trkpt lat="47.524994" lon="7.846574">
        <ele>375.569222</ele>
        <time>2021-11-14T18:46:44.219Z</time>
      </trkpt>
      <trkpt lat="47.524992" lon="7.846887">
        <ele>375.172114</ele>
        <time>2021-11-14T18:46:46.409Z</time>
      </trkpt>
      <trkpt lat="47.524971" lon="7.846998">
        <ele>375.025870</ele>
        <time>2021-11-14T18:46:47.389Z</time>
      </trkpt>
      <trkpt lat="47.524945" lon="7.847135">
        <ele>374.845330</ele>
        <time>2021-11-14T18:46:48.596Z</time>
      </trkpt>
      <trkpt lat="47.524647" lon="7.847044">
        <ele>374.273684</ele>
        <time>2021-11-14T18:46:52.285Z</time>
      </trkpt>
      <trkpt lat="47.524572" lon="7.846968">
        <ele>374.102947</ele>
        <time>2021-11-14T18:46:53.505Z</time>
      </trkpt>
      <trkpt lat="47.524572" lon="7.846968">
        <ele>374.102947</ele>
        <time>2021-11-14T18:46:53.511Z</time>
      </trkpt>
      <trkpt lat="47.524504" lon="7.846866">
        <ele>373.921104</ele>
        <time>2021-11-14T18:46:54.762Z</time>
      </trkpt>
      <trkpt lat="47.524447" lon="7.846830">
        <ele>373.804683</ele>
        <time>2021-11-14T18:46:55.573Z</time>
      </trkpt>
      <trkpt lat="47.524142" lon="7.846731">
        <ele>373.769638</ele>
        <time>2021-11-14T18:47:00.674Z</time>
      </trkpt>
      <trkpt lat="47.524030" lon="7.846759">
        <ele>373.891682</ele>
        <time>2021-11-14T18:47:02.737Z</time>
      </trkpt>
      <trkpt lat="47.523919" lon="7.846774">
        <ele>374.011445</ele>
        <time>2021-11-14T18:47:05.004Z</time>
      </trkpt>
      <trkpt lat="47.523835" lon="7.846794">
        <ele>374.102860</ele>
        <time>2021-11-14T18:47:05.976Z</time>
      </trkpt>
      <trkpt lat="47.523802" lon="7.847022">
        <ele>374.272049</ele>
        <time>2021-11-14T18:47:08.751Z</time>
      </trkpt>
      <trkpt lat="47.523686" lon="7.847545">
        <ele>374.671472</ele>
        <time>2021-11-14T18:47:14.972Z</time>
      </trkpt>
      <trkpt lat="47.523555" lon="7.847886">
        <ele>374.956130</ele>
        <time>2021-11-14T18:47:19.346Z</time>
      </trkpt>
      <trkpt lat="47.523494" lon="7.848012">
        <ele>375.068621</ele>
        <time>2021-11-14T18:47:21.705Z</time>
      </trkpt>
      <trkpt lat="47.523462" lon="7.848071">
        <ele>375.123529</ele>
        <time>2021-11-14T18:47:23.010Z</time>
      </trkpt>
      <trkpt lat="47.522383" lon="7.849771">
        <ele>379.699798</ele>
        <time>2021-11-14T18:48:05.670Z</time>
      </trkpt>
      <trkpt lat="47.522016" lon="7.850249">
        <ele>381.376682</ele>
        <time>2021-11-14T18:48:20.931Z</time>
      </trkpt>
      <trkpt lat="47.521905" lon="7.850364">
        <ele>381.920931</ele>
        <time>2021-11-14T18:48:25.714Z</time>
      </trkpt>
      <trkpt lat="47.521788" lon="7.850457">
        <ele>382.590813</ele>
        <time>2021-11-14T18:48:30.044Z</time>
      </trkpt>
      <trkpt lat="47.521526" lon="7.850659">
        <ele>384.080929</ele>
        <time>2021-11-14T18:48:40.033Z</time>
      </trkpt>
      <trkpt lat="47.521382" lon="7.850770">
        <ele>384.899888</ele>
        <time>2021-11-14T18:48:45.241Z</time>
      </trkpt>
      <trkpt lat="47.520894" lon="7.851134">
        <ele>387.656362</ele>
        <time>2021-11-14T18:49:05.092Z</time>
      </trkpt>
      <trkpt lat="47.519998" lon="7.851794">
        <ele>393.105921</ele>
        <time>2021-11-14T18:49:41.521Z</time>
      </trkpt>
      <trkpt lat="47.519059" lon="7.852195">
        <ele>399.045676</ele>
        <time>2021-11-14T18:50:19.129Z</time>
      </trkpt>
      <trkpt lat="47.518404" lon="7.852651">
        <ele>403.819299</ele>
        <time>2021-11-14T18:50:49.109Z</time>
      </trkpt>
      <trkpt lat="47.518338" lon="7.852687">
        <ele>404.337417</ele>
        <time>2021-11-14T18:50:53.192Z</time>
      </trkpt>
      <trkpt lat="47.518274" lon="7.852715">
        <ele>404.829012</ele>
        <time>2021-11-14T18:50:56.399Z</time>
      </trkpt>
      <trkpt lat="47.517407" lon="7.852910">
        <ele>411.288905</ele>
        <time>2021-11-14T18:51:34.996Z</time>
      </trkpt>
      <trkpt lat="47.516157" lon="7.853414">
        <ele>420.015403</ele>
        <time>2021-11-14T18:52:34.400Z</time>
      </trkpt>
      <trkpt lat="47.515319" lon="7.853580">
        <ele>425.381943</ele>
        <time>2021-11-14T18:53:07.253Z</time>
      </trkpt>
      <trkpt lat="47.514548" lon="7.853897">
        <ele>427.960533</ele>
        <time>2021-11-14T18:53:30.809Z</time>
      </trkpt>
      <trkpt lat="47.513486" lon="7.854188">
        <ele>430.652076</ele>
        <time>2021-11-14T18:53:54.660Z</time>
      </trkpt>
      <trkpt lat="47.513406" lon="7.854237">
        <ele>430.826591</ele>
        <time>2021-11-14T18:53:55.638Z</time>
      </trkpt>
      <trkpt lat="47.513384" lon="7.854250">
        <ele>430.826559</ele>
        <time>2021-11-14T18:53:56.151Z</time>
      </trkpt>
      <trkpt lat="47.513112" lon="7.854470">
        <ele>430.826137</ele>
        <time>2021-11-14T18:54:01.718Z</time>
      </trkpt>
      <trkpt lat="47.513025" lon="7.854549">
        <ele>430.825998</ele>
        <time>2021-11-14T18:54:03.224Z</time>
      </trkpt>
      <trkpt lat="47.512998" lon="7.854574">
        <ele>430.825954</ele>
        <time>2021-11-14T18:54:04.424Z</time>
      </trkpt>
      <trkpt lat="47.512545" lon="7.855000">
        <ele>430.825224</ele>
        <time>2021-11-14T18:54:12.607Z</time>
      </trkpt>
      <trkpt lat="47.512091" lon="7.855323">
        <ele>430.824538</ele>
        <time>2021-11-14T18:54:19.525Z</time>
      </trkpt>
      <trkpt lat="47.510645" lon="7.856175">
        <ele>428.784596</ele>
        <time>2021-11-14T18:54:37.736Z</time>
      </trkpt>
      <trkpt lat="47.509866" lon="7.856623">
        <ele>427.643042</ele>
        <time>2021-11-14T18:54:46.604Z</time>
      </trkpt>
      <trkpt lat="47.509612" lon="7.856783">
        <ele>427.366439</ele>
        <time>2021-11-14T18:54:49.608Z</time>
      </trkpt>
      <trkpt lat="47.509242" lon="7.857142">
        <ele>426.923148</ele>
        <time>2021-11-14T18:54:54.776Z</time>
      </trkpt>
      <trkpt lat="47.509118" lon="7.857296">
        <ele>426.760961</ele>
        <time>2021-11-14T18:54:56.891Z</time>
      </trkpt>
      <trkpt lat="47.508916" lon="7.857621">
        <ele>426.462025</ele>
        <time>2021-11-14T18:55:00.918Z</time>
      </trkpt>
      <trkpt lat="47.508546" lon="7.858348">
        <ele>426.719848</ele>
        <time>2021-11-14T18:55:11.535Z</time>
      </trkpt>
      <trkpt lat="47.508474" lon="7.858558">
        <ele>427.003243</ele>
        <time>2021-11-14T18:55:15.041Z</time>
      </trkpt>
      <trkpt lat="47.508421" lon="7.858745">
        <ele>427.247277</ele>
        <time>2021-11-14T18:55:17.953Z</time>
      </trkpt>
      <trkpt lat="47.508381" lon="7.858911">
        <ele>427.459364</ele>
        <time>2021-11-14T18:55:20.362Z</time>
      </trkpt>
      <trkpt lat="47.508349" lon="7.859039">
        <ele>427.623605</ele>
        <time>2021-11-14T18:55:22.543Z</time>
      </trkpt>
      <trkpt lat="47.508332" lon="7.859103">
        <ele>427.706361</ele>
        <time>2021-11-14T18:55:23.622Z</time>
      </trkpt>
      <trkpt lat="47.508015" lon="7.860357">
        <ele>429.317591</ele>
        <time>2021-11-14T18:55:45.758Z</time>
      </trkpt>
      <trkpt lat="47.507928" lon="7.861309">
        <ele>430.987316</ele>
        <time>2021-11-14T18:56:01.977Z</time>
      </trkpt>
      <trkpt lat="47.507840" lon="7.861638">
        <ele>431.610393</ele>
        <time>2021-11-14T18:56:07.391Z</time>
      </trkpt>
      <trkpt lat="47.507768" lon="7.861796">
        <ele>431.945994</ele>
        <time>2021-11-14T18:56:10.804Z</time>
      </trkpt>
      <trkpt lat="47.507702" lon="7.861899">
        <ele>432.195981</ele>
        <time>2021-11-14T18:56:13.168Z</time>
      </trkpt>
      <trkpt lat="47.507509" lon="7.862078">
        <ele>432.789662</ele>
        <time>2021-11-14T18:56:18.703Z</time>
      </trkpt>
      <trkpt lat="47.507355" lon="7.862189">
        <ele>433.236155</ele>
        <time>2021-11-14T18:56:23.247Z</time>
      </trkpt>
      <trkpt lat="47.507294" lon="7.862232">
        <ele>433.412274</ele>
        <time>2021-11-14T18:56:24.573Z</time>
      </trkpt>
      <trkpt lat="47.506679" lon="7.862634">
        <ele>435.585033</ele>
        <time>2021-11-14T18:56:43.442Z</time>
      </trkpt>
      <trkpt lat="47.506544" lon="7.862713">
        <ele>436.106544</ele>
        <time>2021-11-14T18:56:47.418Z</time>
      </trkpt>
      <trkpt lat="47.506248" lon="7.862922">
        <ele>437.284702</ele>
        <time>2021-11-14T18:56:57.127Z</time>
      </trkpt>
      <trkpt lat="47.506215" lon="7.862947">
        <ele>437.417878</ele>
        <time>2021-11-14T18:56:58.574Z</time>
      </trkpt>
      <trkpt lat="47.506122" lon="7.863012">
        <ele>437.787350</ele>
        <time>2021-11-14T18:57:01.776Z</time>
      </trkpt>
      <trkpt lat="47.505782" lon="7.863270">
        <ele>439.159939</ele>
        <time>2021-11-14T18:57:12.547Z</time>
      </trkpt>
      <trkpt lat="47.505748" lon="7.863314">
        <ele>439.322179</ele>
        <time>2021-11-14T18:57:14.723Z</time>
      </trkpt>
      <trkpt lat="47.505692" lon="7.863406">
        <ele>439.622717</ele>
        <time>2021-11-14T18:57:16.416Z</time>
      </trkpt>
      <trkpt lat="47.505675" lon="7.863444">
        <ele>439.733326</ele>
        <time>2021-11-14T18:57:17.051Z</time>
      </trkpt>
      <trkpt lat="47.505633" lon="7.863539">
        <ele>440.008861</ele>
        <time>2021-11-14T18:57:19.787Z</time>
      </trkpt>
      <trkpt lat="47.505528" lon="7.864048">
        <ele>441.634670</ele>
        <time>2021-11-14T18:57:30.618Z</time>
      </trkpt>
      <trkpt lat="47.505513" lon="7.864163">
        <ele>442.039883</ele>
        <time>2021-11-14T18:57:32.935Z</time>
      </trkpt>
      <trkpt lat="47.505507" lon="7.864261">
        <ele>442.380323</ele>
        <time>2021-11-14T18:57:35.260Z</time>
      </trkpt>
      <trkpt lat="47.505465" lon="7.864478">
        <ele>443.161285</ele>
        <time>2021-11-14T18:57:39.691Z</time>
      </trkpt>
      <trkpt lat="47.505441" lon="7.864505">
        <ele>443.315668</ele>
        <time>2021-11-14T18:57:40.977Z</time>
      </trkpt>
      <trkpt lat="47.505405" lon="7.864527">
        <ele>443.515136</ele>
        <time>2021-11-14T18:57:42.500Z</time>
      </trkpt>
      <trkpt lat="47.505256" lon="7.864486">
        <ele>444.291316</ele>
        <time>2021-11-14T18:57:48.313Z</time>
      </trkpt>
      <trkpt lat="47.504995" lon="7.864288">
        <ele>445.793340</ele>
        <time>2021-11-14T18:57:57.473Z</time>
      </trkpt>
      <trkpt lat="47.504952" lon="7.864282">
        <ele>446.014542</ele>
        <time>2021-11-14T18:57:59.030Z</time>
      </trkpt>
      <trkpt lat="47.504920" lon="7.864294">
        <ele>446.183608</ele>
        <time>2021-11-14T18:58:01.074Z</time>
      </trkpt>
      <trkpt lat="47.504643" lon="7.864558">
        <ele>447.870871</ele>
        <time>2021-11-14T18:58:12.624Z</time>
      </trkpt>
      <trkpt lat="47.504308" lon="7.864735">
        <ele>449.692595</ele>
        <time>2021-11-14T18:58:26.045Z</time>
      </trkpt>
      <trkpt lat="47.504143" lon="7.864781">
        <ele>451.029773</ele>
        <time>2021-11-14T18:58:34.047Z</time>
      </trkpt>
      <trkpt lat="47.503852" lon="7.864881">
        <ele>453.444242</ele>
        <time>2021-11-14T18:58:47.179Z</time>
      </trkpt>
      <trkpt lat="47.503302" lon="7.865016">
        <ele>457.950160</ele>
        <time>2021-11-14T18:59:10.558Z</time>
      </trkpt>
      <trkpt lat="47.503247" lon="7.865009">
        <ele>458.396323</ele>
        <time>2021-11-14T18:59:13.879Z</time>
      </trkpt>
      <trkpt lat="47.503195" lon="7.864995">
        <ele>458.823493</ele>
        <time>2021-11-14T18:59:16.499Z</time>
      </trkpt>
      <trkpt lat="47.503152" lon="7.864980">
        <ele>459.180548</ele>
        <time>2021-11-14T18:59:20.252Z</time>
      </trkpt>
      <trkpt lat="47.503106" lon="7.864958">
        <ele>459.571253</ele>
        <time>2021-11-14T18:59:22.302Z</time>
      </trkpt>
      <trkpt lat="47.503068" lon="7.864937">
        <ele>459.899083</ele>
        <time>2021-11-14T18:59:24.274Z</time>
      </trkpt>
      <trkpt lat="47.502975" lon="7.864876">
        <ele>460.721214</ele>
        <time>2021-11-14T18:59:27.575Z</time>
      </trkpt>
      <trkpt lat="47.502843" lon="7.864785">
        <ele>461.898092</ele>
        <time>2021-11-14T18:59:35.362Z</time>
      </trkpt>
      <trkpt lat="47.502827" lon="7.864774">
        <ele>462.040675</ele>
        <time>2021-11-14T18:59:37.310Z</time>
      </trkpt>
      <trkpt lat="47.502294" lon="7.864417">
        <ele>467.404469</ele>
        <time>2021-11-14T19:00:07.656Z</time>
      </trkpt>
      <trkpt lat="47.502167" lon="7.864327">
        <ele>468.831173</ele>
        <time>2021-11-14T19:00:17.684Z</time>
      </trkpt>
      <trkpt lat="47.502040" lon="7.864236">
        <ele>470.260848</ele>
        <time>2021-11-14T19:00:24.641Z</time>
      </trkpt>
      <trkpt lat="47.501887" lon="7.864052">
        <ele>472.258288</ele>
        <time>2021-11-14T19:00:35.738Z</time>
      </trkpt>
      <trkpt lat="47.501772" lon="7.863893">
        <ele>473.852776</ele>
        <time>2021-11-14T19:00:45.375Z</time>
      </trkpt>
      <trkpt lat="47.501711" lon="7.863821">
        <ele>474.643308</ele>
        <time>2021-11-14T19:00:48.598Z</time>
      </trkpt>
      <trkpt lat="47.501653" lon="7.863755">
        <ele>475.384583</ele>
        <time>2021-11-14T19:00:52.668Z</time>
      </trkpt>
      <trkpt lat="47.501511" lon="7.863635">
        <ele>477.041378</ele>
        <time>2021-11-14T19:01:02.984Z</time>
      </trkpt>
      <trkpt lat="47.501300" lon="7.863507">
        <ele>479.351929</ele>
        <time>2021-11-14T19:01:14.770Z</time>
      </trkpt>
      <trkpt lat="47.501035" lon="7.863348">
        <ele>482.249266</ele>
        <time>2021-11-14T19:01:29.538Z</time>
      </trkpt>
      <trkpt lat="47.500468" lon="7.862843">
        <ele>490.969327</ele>
        <time>2021-11-14T19:02:06.577Z</time>
      </trkpt>
      <trkpt lat="47.499952" lon="7.862524">
        <ele>498.401354</ele>
        <time>2021-11-14T19:02:47.251Z</time>
      </trkpt>
      <trkpt lat="47.499629" lon="7.862416">
        <ele>502.802360</ele>
        <time>2021-11-14T19:03:10.310Z</time>
      </trkpt>
      <trkpt lat="47.499406" lon="7.862482">
        <ele>505.824815</ele>
        <time>2021-11-14T19:03:25.369Z</time>
      </trkpt>
      <trkpt lat="47.499376" lon="7.862501">
        <ele>506.258496</ele>
        <time>2021-11-14T19:03:29.076Z</time>
      </trkpt>
      <trkpt lat="47.499273" lon="7.862595">
        <ele>508.037084</ele>
        <time>2021-11-14T19:03:40.136Z</time>
      </trkpt>
      <trkpt lat="47.499113" lon="7.862818">
        <ele>511.295771</ele>
        <time>2021-11-14T19:03:56.501Z</time>
      </trkpt>
      <trkpt lat="47.498820" lon="7.863196">
        <ele>517.058953</ele>
        <time>2021-11-14T19:04:31.241Z</time>
      </trkpt>
      <trkpt lat="47.498580" lon="7.863425">
        <ele>521.292978</ele>
        <time>2021-11-14T19:04:48.872Z</time>
      </trkpt>
      <trkpt lat="47.498435" lon="7.863451">
        <ele>523.458732</ele>
        <time>2021-11-14T19:05:04.420Z</time>
      </trkpt>
      <trkpt lat="47.498210" lon="7.863375">
        <ele>526.880764</ele>
        <time>2021-11-14T19:05:15.869Z</time>
      </trkpt>
      <trkpt lat="47.498143" lon="7.863313">
        <ele>528.052408</ele>
        <time>2021-11-14T19:05:24.475Z</time>
      </trkpt>
      <trkpt lat="47.498094" lon="7.863239">
        <ele>529.090414</ele>
        <time>2021-11-14T19:05:28.443Z</time>
      </trkpt>
      <trkpt lat="47.498044" lon="7.863155">
        <ele>530.211926</ele>
        <time>2021-11-14T19:05:31.637Z</time>
      </trkpt>
      <trkpt lat="47.497989" lon="7.863021">
        <ele>531.782636</ele>
        <time>2021-11-14T19:05:36.944Z</time>
      </trkpt>
      <trkpt lat="47.497959" lon="7.862857">
        <ele>533.327776</ele>
        <time>2021-11-14T19:05:46.591Z</time>
      </trkpt>
      <trkpt lat="47.497995" lon="7.862394">
        <ele>536.256142</ele>
        <time>2021-11-14T19:06:05.066Z</time>
      </trkpt>
      <trkpt lat="47.498287" lon="7.861611">
        <ele>541.875669</ele>
        <time>2021-11-14T19:06:35.243Z</time>
      </trkpt>
      <trkpt lat="47.498322" lon="7.861024">
        <ele>545.578273</ele>
        <time>2021-11-14T19:06:57.345Z</time>
      </trkpt>
      <trkpt lat="47.498298" lon="7.860778">
        <ele>547.139986</ele>
        <time>2021-11-14T19:07:02.313Z</time>
      </trkpt>
      <trkpt lat="47.498262" lon="7.860571">
        <ele>548.483020</ele>
        <time>2021-11-14T19:07:08.872Z</time>
      </trkpt>
      <trkpt lat="47.498026" lon="7.859791">
        <ele>553.504531</ele>
        <time>2021-11-14T19:07:33.092Z</time>
      </trkpt>
      <trkpt lat="47.497901" lon="7.859533">
        <ele>555.328228</ele>
        <time>2021-11-14T19:07:43.567Z</time>
      </trkpt>
      <trkpt lat="47.497833" lon="7.859414">
        <ele>556.223506</ele>
        <time>2021-11-14T19:07:49.505Z</time>
      </trkpt>
      <trkpt lat="47.497149" lon="7.858438">
        <ele>564.301405</ele>
        <time>2021-11-14T19:08:39.387Z</time>
      </trkpt>
      <trkpt lat="47.497045" lon="7.858131">
        <ele>565.760617</ele>
        <time>2021-11-14T19:08:51.888Z</time>
      </trkpt>
      <trkpt lat="47.496867" lon="7.857284">
        <ele>568.657848</ele>
        <time>2021-11-14T19:09:18.318Z</time>
      </trkpt>
      <trkpt lat="47.496570" lon="7.856657">
        <ele>571.158954</ele>
        <time>2021-11-14T19:09:36.707Z</time>
      </trkpt>
      <trkpt lat="47.495985" lon="7.856090">
        <ele>573.053315</ele>
        <time>2021-11-14T19:09:50.788Z</time>
      </trkpt>
      <trkpt lat="47.495761" lon="7.855963">
        <ele>571.946782</ele>
        <time>2021-11-14T19:09:53.191Z</time>
      </trkpt>
      <trkpt lat="47.495682" lon="7.855928">
        <ele>571.566379</ele>
        <time>2021-11-14T19:09:54.876Z</time>
      </trkpt>
      <trkpt lat="47.495626" lon="7.855911">
        <ele>571.302673</ele>
        <time>2021-11-14T19:09:55.446Z</time>
      </trkpt>
      <trkpt lat="47.495339" lon="7.855822">
        <ele>569.949993</ele>
        <time>2021-11-14T19:09:58.211Z</time>
      </trkpt>
      <trkpt lat="47.495219" lon="7.855764">
        <ele>569.367664</ele>
        <time>2021-11-14T19:09:59.380Z</time>
      </trkpt>
      <trkpt lat="47.495162" lon="7.855728">
        <ele>569.081783</ele>
        <time>2021-11-14T19:09:59.907Z</time>
      </trkpt>
      <trkpt lat="47.494903" lon="7.855508">
        <ele>567.704232</ele>
        <time>2021-11-14T19:10:02.711Z</time>
      </trkpt>
      <trkpt lat="47.494791" lon="7.855375">
        <ele>567.041832</ele>
        <time>2021-11-14T19:10:03.953Z</time>
      </trkpt>
      <trkpt lat="47.494366" lon="7.854877">
        <ele>563.798339</ele>
        <time>2021-11-14T19:10:08.847Z</time>
      </trkpt>
      <trkpt lat="47.494198" lon="7.854677">
        <ele>562.018204</ele>
        <time>2021-11-14T19:10:10.712Z</time>
      </trkpt>
      <trkpt lat="47.494057" lon="7.854507">
        <ele>560.516640</ele>
        <time>2021-11-14T19:10:12.327Z</time>
      </trkpt>
      <trkpt lat="47.493734" lon="7.854034">
        <ele>556.764984</ele>
        <time>2021-11-14T19:10:16.286Z</time>
      </trkpt>
      <trkpt lat="47.493043" lon="7.852307">
        <ele>544.302284</ele>
        <time>2021-11-14T19:10:28.211Z</time>
      </trkpt>
      <trkpt lat="47.493033" lon="7.852285">
        <ele>544.117388</ele>
        <time>2021-11-14T19:10:28.363Z</time>
      </trkpt>
      <trkpt lat="47.492920" lon="7.852087">
        <ele>542.310062</ele>
        <time>2021-11-14T19:10:29.896Z</time>
      </trkpt>
      <trkpt lat="47.492804" lon="7.851886">
        <ele>540.466746</ele>
        <time>2021-11-14T19:10:31.398Z</time>
      </trkpt>
      <trkpt lat="47.492688" lon="7.851670">
        <ele>538.542690</ele>
        <time>2021-11-14T19:10:33.017Z</time>
      </trkpt>
      <trkpt lat="47.492659" lon="7.851591">
        <ele>537.915744</ele>
        <time>2021-11-14T19:10:33.514Z</time>
      </trkpt>
      <trkpt lat="47.492601" lon="7.850751">
        <ele>532.023026</ele>
        <time>2021-11-14T19:10:38.382Z</time>
      </trkpt>
      <trkpt lat="47.492541" lon="7.850563">
        <ele>530.410656</ele>
        <time>2021-11-14T19:10:39.556Z</time>
      </trkpt>
      <trkpt lat="47.492414" lon="7.850375">
        <ele>528.349077</ele>
        <time>2021-11-14T19:10:41.079Z</time>
      </trkpt>
      <trkpt lat="47.492293" lon="7.850293">
        <ele>526.821682</ele>
        <time>2021-11-14T19:10:42.186Z</time>
      </trkpt>
      <trkpt lat="47.492141" lon="7.850226">
        <ele>525.001434</ele>
        <time>2021-11-14T19:10:43.502Z</time>
      </trkpt>
      <trkpt lat="47.491187" lon="7.849815">
        <ele>513.597816</ele>
        <time>2021-11-14T19:10:51.987Z</time>
      </trkpt>
      <trkpt lat="47.490767" lon="7.849632">
        <ele>509.229698</ele>
        <time>2021-11-14T19:10:55.720Z</time>
      </trkpt>
      <trkpt lat="47.490721" lon="7.849614">
        <ele>508.809356</ele>
        <time>2021-11-14T19:10:56.142Z</time>
      </trkpt>
      <trkpt lat="47.490655" lon="7.849589">
        <ele>508.207497</ele>
        <time>2021-11-14T19:10:56.713Z</time>
      </trkpt>
      <trkpt lat="47.490088" lon="7.849193">
        <ele>502.668675</ele>
        <time>2021-11-14T19:11:02.264Z</time>
      </trkpt>
      <trkpt lat="47.489830" lon="7.849115">
        <ele>500.342354</ele>
        <time>2021-11-14T19:11:04.527Z</time>
      </trkpt>
      <trkpt lat="47.489714" lon="7.849112">
        <ele>499.317420</ele>
        <time>2021-11-14T19:11:05.597Z</time>
      </trkpt>
      <trkpt lat="47.489636" lon="7.849127">
        <ele>498.622552</ele>
        <time>2021-11-14T19:11:06.256Z</time>
      </trkpt>
      <trkpt lat="47.489366" lon="7.849261">
        <ele>496.106736</ele>
        <time>2021-11-14T19:11:08.828Z</time>
      </trkpt>
      <trkpt lat="47.489046" lon="7.849642">
        <ele>493.195218</ele>
        <time>2021-11-14T19:11:12.519Z</time>
      </trkpt>
      <trkpt lat="47.488993" lon="7.849683">
        <ele>492.790764</ele>
        <time>2021-11-14T19:11:13.026Z</time>
      </trkpt>
      <trkpt lat="47.488939" lon="7.849720">
        <ele>492.388319</ele>
        <time>2021-11-14T19:11:13.537Z</time>
      </trkpt>
      <trkpt lat="47.488639" lon="7.849855">
        <ele>490.267705</ele>
        <time>2021-11-14T19:11:16.336Z</time>
      </trkpt>
      <trkpt lat="47.488402" lon="7.849885">
        <ele>488.659031</ele>
        <time>2021-11-14T19:11:18.567Z</time>
      </trkpt>
      <trkpt lat="47.487361" lon="7.849792">
        <ele>482.661993</ele>
        <time>2021-11-14T19:11:28.002Z</time>
      </trkpt>
      <trkpt lat="47.487219" lon="7.849782">
        <ele>482.275641</ele>
        <time>2021-11-14T19:11:29.395Z</time>
      </trkpt>
      <trkpt lat="47.487073" lon="7.849767">
        <ele>481.877899</ele>
        <time>2021-11-14T19:11:30.950Z</time>
      </trkpt>
      <trkpt lat="47.486894" lon="7.849739">
        <ele>481.388717</ele>
        <time>2021-11-14T19:11:32.853Z</time>
      </trkpt>
      <trkpt lat="47.486773" lon="7.849704">
        <ele>481.053650</ele>
        <time>2021-11-14T19:11:34.118Z</time>
      </trkpt>
      <trkpt lat="47.486469" lon="7.849589">
        <ele>480.200896</ele>
        <time>2021-11-14T19:11:37.696Z</time>
      </trkpt>
      <trkpt lat="47.486303" lon="7.849650">
        <ele>479.736053</ele>
        <time>2021-11-14T19:11:40.164Z</time>
      </trkpt>
      <trkpt lat="47.486279" lon="7.849670">
        <ele>479.661197</ele>
        <time>2021-11-14T19:11:40.470Z</time>
      </trkpt>
      <trkpt lat="47.486240" lon="7.849728">
        <ele>479.510929</ele>
        <time>2021-11-14T19:11:41.126Z</time>
      </trkpt>
      <trkpt lat="47.486083" lon="7.849946">
        <ele>478.925821</ele>
        <time>2021-11-14T19:11:43.685Z</time>
      </trkpt>
      <trkpt lat="47.485987" lon="7.849975">
        <ele>478.659540</ele>
        <time>2021-11-14T19:11:45.992Z</time>
      </trkpt>
      <trkpt lat="47.485932" lon="7.849984">
        <ele>478.509154</ele>
        <time>2021-11-14T19:11:46.608Z</time>
      </trkpt>
      <trkpt lat="47.485834" lon="7.849993">
        <ele>478.299754</ele>
        <time>2021-11-14T19:11:47.580Z</time>
      </trkpt>
      <trkpt lat="47.485547" lon="7.850079">
        <ele>477.693681</ele>
        <time>2021-11-14T19:11:51.452Z</time>
      </trkpt>
      <trkpt lat="47.485423" lon="7.850124">
        <ele>477.429428</ele>
        <time>2021-11-14T19:11:52.725Z</time>
      </trkpt>
      <trkpt lat="47.485302" lon="7.850164">
        <ele>477.172816</ele>
        <time>2021-11-14T19:11:54.723Z</time>
      </trkpt>
      <trkpt lat="47.485140" lon="7.850236">
        <ele>476.822721</ele>
        <time>2021-11-14T19:11:56.692Z</time>
      </trkpt>
      <trkpt lat="47.484922" lon="7.850473">
        <ele>476.262836</ele>
        <time>2021-11-14T19:11:59.949Z</time>
      </trkpt>
      <trkpt lat="47.484736" lon="7.850560">
        <ele>475.859089</ele>
        <time>2021-11-14T19:12:01.885Z</time>
      </trkpt>
      <trkpt lat="47.484631" lon="7.850586">
        <ele>475.638745</ele>
        <time>2021-11-14T19:12:03.705Z</time>
      </trkpt>
      <trkpt lat="47.484548" lon="7.850572">
        <ele>475.465843</ele>
        <time>2021-11-14T19:12:04.583Z</time>
      </trkpt>
      <trkpt lat="47.484518" lon="7.850556">
        <ele>475.399841</ele>
        <time>2021-11-14T19:12:04.873Z</time>
      </trkpt>
      <trkpt lat="47.484352" lon="7.850459">
        <ele>475.030446</ele>
        <time>2021-11-14T19:12:06.505Z</time>
      </trkpt>
      <trkpt lat="47.484041" lon="7.850377">
        <ele>474.173079</ele>
        <time>2021-11-14T19:12:09.624Z</time>
      </trkpt>
      <trkpt lat="47.483128" lon="7.850517">
        <ele>471.266066</ele>
        <time>2021-11-14T19:12:19.138Z</time>
      </trkpt>
      <trkpt lat="47.483011" lon="7.850573">
        <ele>470.876617</ele>
        <time>2021-11-14T19:12:20.269Z</time>
      </trkpt>
      <trkpt lat="47.482915" lon="7.850629">
        <ele>470.549806</ele>
        <time>2021-11-14T19:12:21.270Z</time>
      </trkpt>
      <trkpt lat="47.482807" lon="7.850688">
        <ele>470.185197</ele>
        <time>2021-11-14T19:12:22.602Z</time>
      </trkpt>
      <trkpt lat="47.482794" lon="7.850696">
        <ele>470.140606</ele>
        <time>2021-11-14T19:12:22.760Z</time>
      </trkpt>
      <trkpt lat="47.482738" lon="7.850728">
        <ele>469.950485</ele>
        <time>2021-11-14T19:12:23.359Z</time>
      </trkpt>
      <trkpt lat="47.482665" lon="7.850768">
        <ele>469.703947</ele>
        <time>2021-11-14T19:12:24.128Z</time>
      </trkpt>
      <trkpt lat="47.482608" lon="7.850799">
        <ele>469.511617</ele>
        <time>2021-11-14T19:12:24.819Z</time>
      </trkpt>
      <trkpt lat="47.482358" lon="7.850933">
        <ele>468.662032</ele>
        <time>2021-11-14T19:12:28.948Z</time>
      </trkpt>
      <trkpt lat="47.481766" lon="7.851223">
        <ele>466.649649</ele>
        <time>2021-11-14T19:12:38.118Z</time>
      </trkpt>
      <trkpt lat="47.481608" lon="7.851297">
        <ele>466.114843</ele>
        <time>2021-11-14T19:12:40.364Z</time>
      </trkpt>
      <trkpt lat="47.481334" lon="7.851437">
        <ele>465.179399</ele>
        <time>2021-11-14T19:12:44.778Z</time>
      </trkpt>
      <trkpt lat="47.480852" lon="7.851729">
        <ele>463.498642</ele>
        <time>2021-11-14T19:12:52.687Z</time>
      </trkpt>
      <trkpt lat="47.480750" lon="7.851790">
        <ele>463.104898</ele>
        <time>2021-11-14T19:12:54.162Z</time>
      </trkpt>
      <trkpt lat="47.480646" lon="7.851849">
        <ele>462.625694</ele>
        <time>2021-11-14T19:12:55.620Z</time>
      </trkpt>
      <trkpt lat="47.480217" lon="7.852063">
        <ele>460.677919</ele>
        <time>2021-11-14T19:13:01.943Z</time>
      </trkpt>
      <trkpt lat="47.479485" lon="7.852237">
        <ele>457.488220</ele>
        <time>2021-11-14T19:13:12.026Z</time>
      </trkpt>
      <trkpt lat="47.479244" lon="7.852259">
        <ele>456.449383</ele>
        <time>2021-11-14T19:13:15.232Z</time>
      </trkpt>
      <trkpt lat="47.479117" lon="7.852270">
        <ele>455.902050</ele>
        <time>2021-11-14T19:13:17.124Z</time>
      </trkpt>
      <trkpt lat="47.476984" lon="7.852449">
        <ele>447.535394</ele>
        <time>2021-11-14T19:13:47.816Z</time>
      </trkpt>
      <trkpt lat="47.476792" lon="7.852449">
        <ele>446.540918</ele>
        <time>2021-11-14T19:13:50.375Z</time>
      </trkpt>
      <trkpt lat="47.476682" lon="7.852438">
        <ele>445.969867</ele>
        <time>2021-11-14T19:13:51.885Z</time>
      </trkpt>
      <trkpt lat="47.476520" lon="7.852417">
        <ele>445.127564</ele>
        <time>2021-11-14T19:13:54.004Z</time>
      </trkpt>
      <trkpt lat="47.476289" lon="7.852358">
        <ele>443.913388</ele>
        <time>2021-11-14T19:13:57.212Z</time>
      </trkpt>
      <trkpt lat="47.476190" lon="7.852326">
        <ele>443.388517</ele>
        <time>2021-11-14T19:13:58.493Z</time>
      </trkpt>
      <trkpt lat="47.476000" lon="7.852252">
        <ele>442.370874</ele>
        <time>2021-11-14T19:14:01.153Z</time>
      </trkpt>
      <trkpt lat="47.475712" lon="7.852137">
        <ele>440.825786</ele>
        <time>2021-11-14T19:14:05.077Z</time>
      </trkpt>
      <trkpt lat="47.475474" lon="7.852041">
        <ele>439.548058</ele>
        <time>2021-11-14T19:14:08.278Z</time>
      </trkpt>
      <trkpt lat="47.475005" lon="7.851847">
        <ele>437.220701</ele>
        <time>2021-11-14T19:14:14.756Z</time>
      </trkpt>
      <trkpt lat="47.474489" lon="7.851469">
        <ele>434.472418</ele>
        <time>2021-11-14T19:14:22.505Z</time>
      </trkpt>
      <trkpt lat="47.474073" lon="7.851261">
        <ele>432.376494</ele>
        <time>2021-11-14T19:14:28.642Z</time>
      </trkpt>
      <trkpt lat="47.473706" lon="7.851184">
        <ele>430.656237</ele>
        <time>2021-11-14T19:14:33.967Z</time>
      </trkpt>
      <trkpt lat="47.473275" lon="7.851189">
        <ele>428.915626</ele>
        <time>2021-11-14T19:14:40.185Z</time>
      </trkpt>
      <trkpt lat="47.473132" lon="7.851211">
        <ele>428.335018</ele>
        <time>2021-11-14T19:14:42.114Z</time>
      </trkpt>
      <trkpt lat="47.473090" lon="7.851217">
        <ele>428.164616</ele>
        <time>2021-11-14T19:14:42.681Z</time>
      </trkpt>
      <trkpt lat="47.472594" lon="7.851279">
        <ele>426.154424</ele>
        <time>2021-11-14T19:14:49.772Z</time>
      </trkpt>
      <trkpt lat="47.472223" lon="7.851237">
        <ele>424.651790</ele>
        <time>2021-11-14T19:14:55.009Z</time>
      </trkpt>
      <trkpt lat="47.472075" lon="7.851198">
        <ele>424.044697</ele>
        <time>2021-11-14T19:14:57.052Z</time>
      </trkpt>
      <trkpt lat="47.472010" lon="7.851173">
        <ele>423.773474</ele>
        <time>2021-11-14T19:14:57.957Z</time>
      </trkpt>
      <trkpt lat="47.471898" lon="7.851131">
        <ele>423.243042</ele>
        <time>2021-11-14T19:14:59.632Z</time>
      </trkpt>
      <trkpt lat="47.471670" lon="7.851035">
        <ele>422.113589</ele>
        <time>2021-11-14T19:15:02.757Z</time>
      </trkpt>
      <trkpt lat="47.471325" lon="7.850935">
        <ele>420.438575</ele>
        <time>2021-11-14T19:15:07.645Z</time>
      </trkpt>
      <trkpt lat="47.470525" lon="7.850877">
        <ele>416.622380</ele>
        <time>2021-11-14T19:15:18.518Z</time>
      </trkpt>
      <trkpt lat="47.470421" lon="7.850868">
        <ele>416.126023</ele>
        <time>2021-11-14T19:15:19.872Z</time>
      </trkpt>
      <trkpt lat="47.470145" lon="7.850841">
        <ele>414.814864</ele>
        <time>2021-11-14T19:15:23.664Z</time>
      </trkpt>
      <trkpt lat="47.469772" lon="7.850804">
        <ele>413.075863</ele>
        <time>2021-11-14T19:15:28.747Z</time>
      </trkpt>
      <trkpt lat="47.469555" lon="7.850782">
        <ele>412.064065</ele>
        <time>2021-11-14T19:15:31.639Z</time>
      </trkpt>
      <trkpt lat="47.469464" lon="7.850775">
        <ele>411.640183</ele>
        <time>2021-11-14T19:15:32.954Z</time>
      </trkpt>
      <trkpt lat="47.469352" lon="7.850770">
        <ele>411.118949</ele>
        <time>2021-11-14T19:15:33.998Z</time>
      </trkpt>
      <trkpt lat="47.469315" lon="7.850771">
        <ele>410.946806</ele>
        <time>2021-11-14T19:15:34.333Z</time>
      </trkpt>
      <trkpt lat="47.469115" lon="7.850772">
        <ele>410.016450</ele>
        <time>2021-11-14T19:15:36.272Z</time>
      </trkpt>
      <trkpt lat="47.468931" lon="7.850775">
        <ele>409.160475</ele>
        <time>2021-11-14T19:15:37.976Z</time>
      </trkpt>
      <trkpt lat="47.468807" lon="7.850777">
        <ele>408.583623</ele>
        <time>2021-11-14T19:15:39.180Z</time>
      </trkpt>
      <trkpt lat="47.468794" lon="7.850777">
        <ele>408.523150</ele>
        <time>2021-11-14T19:15:39.307Z</time>
      </trkpt>
      <trkpt lat="47.468646" lon="7.850779">
        <ele>407.834662</ele>
        <time>2021-11-14T19:15:40.811Z</time>
      </trkpt>
      <trkpt lat="47.468532" lon="7.850782">
        <ele>407.304278</ele>
        <time>2021-11-14T19:15:41.883Z</time>
      </trkpt>
      <trkpt lat="47.467007" lon="7.850894">
        <ele>401.615395</ele>
        <time>2021-11-14T19:15:56.856Z</time>
      </trkpt>
      <trkpt lat="47.466831" lon="7.850929">
        <ele>400.968343</ele>
        <time>2021-11-14T19:15:58.644Z</time>
      </trkpt>
      <trkpt lat="47.466767" lon="7.850952">
        <ele>400.728366</ele>
        <time>2021-11-14T19:15:59.355Z</time>
      </trkpt>
      <trkpt lat="47.466576" lon="7.851019">
        <ele>400.075832</ele>
        <time>2021-11-14T19:16:01.420Z</time>
      </trkpt>
      <trkpt lat="47.466513" lon="7.851046">
        <ele>399.931356</ele>
        <time>2021-11-14T19:16:02.097Z</time>
      </trkpt>
      <trkpt lat="47.466390" lon="7.851107">
        <ele>399.645605</ele>
        <time>2021-11-14T19:16:03.475Z</time>
      </trkpt>
      <trkpt lat="47.466015" lon="7.851377">
        <ele>398.726946</ele>
        <time>2021-11-14T19:16:07.887Z</time>
      </trkpt>
      <trkpt lat="47.465925" lon="7.851458">
        <ele>398.494895</ele>
        <time>2021-11-14T19:16:08.973Z</time>
      </trkpt>
      <trkpt lat="47.465914" lon="7.851427">
        <ele>398.442761</ele>
        <time>2021-11-14T19:16:09.215Z</time>
      </trkpt>
      <trkpt lat="47.465853" lon="7.851380">
        <ele>398.291262</ele>
        <time>2021-11-14T19:16:09.929Z</time>
      </trkpt>
      <trkpt lat="47.465829" lon="7.851383">
        <ele>398.238209</ele>
        <time>2021-11-14T19:16:10.184Z</time>
      </trkpt>
      <trkpt lat="47.465714" lon="7.850917">
        <ele>397.499507</ele>
        <time>2021-11-14T19:16:13.789Z</time>
      </trkpt>
      <trkpt lat="47.465674" lon="7.850777">
        <ele>397.273181</ele>
        <time>2021-11-14T19:16:14.933Z</time>
      </trkpt>
      <trkpt lat="47.465620" lon="7.850585">
        <ele>396.963521</ele>
        <time>2021-11-14T19:16:16.566Z</time>
      </trkpt>
      <trkpt lat="47.465558" lon="7.850405">
        <ele>396.662699</ele>
        <time>2021-11-14T19:16:18.162Z</time>
      </trkpt>
      <trkpt lat="47.465348" lon="7.849875">
        <ele>395.922524</ele>
        <time>2021-11-14T19:16:23.075Z</time>
      </trkpt>
      <trkpt lat="47.465152" lon="7.849351">
        <ele>395.367858</ele>
        <time>2021-11-14T19:16:27.790Z</time>
      </trkpt>
      <trkpt lat="47.464952" lon="7.848443">
        <ele>394.483348</ele>
        <time>2021-11-14T19:16:35.280Z</time>
      </trkpt>
      <trkpt lat="47.464909" lon="7.848219">
        <ele>394.267675</ele>
        <time>2021-11-14T19:16:37.125Z</time>
      </trkpt>
      <trkpt lat="47.464850" lon="7.847870">
        <ele>393.934474</ele>
        <time>2021-11-14T19:16:39.925Z</time>
      </trkpt>
      <trkpt lat="47.464820" lon="7.847644">
        <ele>393.727549</ele>
        <time>2021-11-14T19:16:41.837Z</time>
      </trkpt>
      <trkpt lat="47.464784" lon="7.847333">
        <ele>393.511750</ele>
        <time>2021-11-14T19:16:44.344Z</time>
      </trkpt>
      <trkpt lat="47.464771" lon="7.847028">
        <ele>393.302735</ele>
        <time>2021-11-14T19:16:46.840Z</time>
      </trkpt>
      <trkpt lat="47.464737" lon="7.846119">
        <ele>392.680086</ele>
        <time>2021-11-14T19:16:54.154Z</time>
      </trkpt>
      <trkpt lat="47.464585" lon="7.844988">
        <ele>391.921657</ele>
        <time>2021-11-14T19:17:03.950Z</time>
      </trkpt>
      <trkpt lat="47.464433" lon="7.844273">
        <ele>391.857764</ele>
        <time>2021-11-14T19:17:10.665Z</time>
      </trkpt>
      <trkpt lat="47.464386" lon="7.844088">
        <ele>391.840917</ele>
        <time>2021-11-14T19:17:12.314Z</time>
      </trkpt>
      <trkpt lat="47.464354" lon="7.843960">
        <ele>391.829284</ele>
        <time>2021-11-14T19:17:13.716Z</time>
      </trkpt>
      <trkpt lat="47.464234" lon="7.843434">
        <ele>391.781960</ele>
        <time>2021-11-14T19:17:18.888Z</time>
      </trkpt>
      <trkpt lat="47.464176" lon="7.843178">
        <ele>391.758944</ele>
        <time>2021-11-14T19:17:21.306Z</time>
      </trkpt>
      <trkpt lat="47.464165" lon="7.843130">
        <ele>391.754624</ele>
        <time>2021-11-14T19:17:21.840Z</time>
      </trkpt>
      <trkpt lat="47.464075" lon="7.842774">
        <ele>391.722224</ele>
        <time>2021-11-14T19:17:26.732Z</time>
      </trkpt>
      <trkpt lat="47.464053" lon="7.842690">
        <ele>391.714545</ele>
        <time>2021-11-14T19:17:27.455Z</time>
      </trkpt>
      <trkpt lat="47.463971" lon="7.842355">
        <ele>391.732214</ele>
        <time>2021-11-14T19:17:32.385Z</time>
      </trkpt>
      <trkpt lat="47.463922" lon="7.842123">
        <ele>391.777888</ele>
        <time>2021-11-14T19:17:34.715Z</time>
      </trkpt>
      <trkpt lat="47.463874" lon="7.841863">
        <ele>391.828534</ele>
        <time>2021-11-14T19:17:38.921Z</time>
      </trkpt>
      <trkpt lat="47.463685" lon="7.841203">
        <ele>391.963225</ele>
        <time>2021-11-14T19:17:47.311Z</time>
      </trkpt>
      <trkpt lat="47.463616" lon="7.840992">
        <ele>392.007270</ele>
        <time>2021-11-14T19:17:50.259Z</time>
      </trkpt>
      <trkpt lat="47.463588" lon="7.840904">
        <ele>392.025546</ele>
        <time>2021-11-14T19:17:51.151Z</time>
      </trkpt>
      <trkpt lat="47.463287" lon="7.840028">
        <ele>392.163284</ele>
        <time>2021-11-14T19:17:59.892Z</time>
      </trkpt>
      <trkpt lat="47.463133" lon="7.839561">
        <ele>391.847908</ele>
        <time>2021-11-14T19:18:04.464Z</time>
      </trkpt>
      <trkpt lat="47.463043" lon="7.839292">
        <ele>391.665734</ele>
        <time>2021-11-14T19:18:06.916Z</time>
      </trkpt>
      <trkpt lat="47.462982" lon="7.839106">
        <ele>391.540256</ele>
        <time>2021-11-14T19:18:09.311Z</time>
      </trkpt>
      <trkpt lat="47.462967" lon="7.839047">
        <ele>391.501996</ele>
        <time>2021-11-14T19:18:09.796Z</time>
      </trkpt>
      <trkpt lat="47.462936" lon="7.838934">
        <ele>391.427977</ele>
        <time>2021-11-14T19:18:10.741Z</time>
      </trkpt>
      <trkpt lat="47.462883" lon="7.838488">
        <ele>391.153118</ele>
        <time>2021-11-14T19:18:14.694Z</time>
      </trkpt>
      <trkpt lat="47.462873" lon="7.838016">
        <ele>390.866487</ele>
        <time>2021-11-14T19:18:18.574Z</time>
      </trkpt>
      <trkpt lat="47.462871" lon="7.837954">
        <ele>390.828812</ele>
        <time>2021-11-14T19:18:19.021Z</time>
      </trkpt>
      <trkpt lat="47.462869" lon="7.837866">
        <ele>390.775368</ele>
        <time>2021-11-14T19:18:19.641Z</time>
      </trkpt>
      <trkpt lat="47.462865" lon="7.837711">
        <ele>390.681219</ele>
        <time>2021-11-14T19:18:20.946Z</time>
      </trkpt>
      <trkpt lat="47.462856" lon="7.837506">
        <ele>390.551076</ele>
        <time>2021-11-14T19:18:22.786Z</time>
      </trkpt>
      <trkpt lat="47.462851" lon="7.837404">
        <ele>390.476814</ele>
        <time>2021-11-14T19:18:23.494Z</time>
      </trkpt>
      <trkpt lat="47.462748" lon="7.836556">
        <ele>389.851177</ele>
        <time>2021-11-14T19:18:30.091Z</time>
      </trkpt>
      <trkpt lat="47.462730" lon="7.836472">
        <ele>389.787190</ele>
        <time>2021-11-14T19:18:30.944Z</time>
      </trkpt>
      <trkpt lat="47.462700" lon="7.836337">
        <ele>389.683999</ele>
        <time>2021-11-14T19:18:32.125Z</time>
      </trkpt>
      <trkpt lat="47.462666" lon="7.836201">
        <ele>389.578706</ele>
        <time>2021-11-14T19:18:33.332Z</time>
      </trkpt>
      <trkpt lat="47.462586" lon="7.835900">
        <ele>389.343850</ele>
        <time>2021-11-14T19:18:35.983Z</time>
      </trkpt>
      <trkpt lat="47.462388" lon="7.834991">
        <ele>388.650801</ele>
        <time>2021-11-14T19:18:44.448Z</time>
      </trkpt>
      <trkpt lat="47.462375" lon="7.834910">
        <ele>388.603383</ele>
        <time>2021-11-14T19:18:45.101Z</time>
      </trkpt>
      <trkpt lat="47.462357" lon="7.834782">
        <ele>388.528916</ele>
        <time>2021-11-14T19:18:46.144Z</time>
      </trkpt>
      <trkpt lat="47.462317" lon="7.834216">
        <ele>388.204779</ele>
        <time>2021-11-14T19:18:51.092Z</time>
      </trkpt>
      <trkpt lat="47.462296" lon="7.833933">
        <ele>388.042620</ele>
        <time>2021-11-14T19:18:53.530Z</time>
      </trkpt>
      <trkpt lat="47.462285" lon="7.833721">
        <ele>387.921515</ele>
        <time>2021-11-14T19:18:55.179Z</time>
      </trkpt>
      <trkpt lat="47.462217" lon="7.832953">
        <ele>387.480343</ele>
        <time>2021-11-14T19:19:01.693Z</time>
      </trkpt>
      <trkpt lat="47.462179" lon="7.832744">
        <ele>387.357071</ele>
        <time>2021-11-14T19:19:03.398Z</time>
      </trkpt>
      <trkpt lat="47.462080" lon="7.832335">
        <ele>387.123783</ele>
        <time>2021-11-14T19:19:07.130Z</time>
      </trkpt>
      <trkpt lat="47.462048" lon="7.832204">
        <ele>387.085334</ele>
        <time>2021-11-14T19:19:08.349Z</time>
      </trkpt>
      <trkpt lat="47.461918" lon="7.831668">
        <ele>386.928143</ele>
        <time>2021-11-14T19:19:13.241Z</time>
      </trkpt>
      <trkpt lat="47.461787" lon="7.831158">
        <ele>386.777544</ele>
        <time>2021-11-14T19:19:18.253Z</time>
      </trkpt>
      <trkpt lat="47.461585" lon="7.830158">
        <ele>386.489444</ele>
        <time>2021-11-14T19:19:28.097Z</time>
      </trkpt>
      <trkpt lat="47.461548" lon="7.829918">
        <ele>386.421493</ele>
        <time>2021-11-14T19:19:30.319Z</time>
      </trkpt>
      <trkpt lat="47.461473" lon="7.829886">
        <ele>386.421017</ele>
        <time>2021-11-14T19:19:31.380Z</time>
      </trkpt>
      <trkpt lat="47.460850" lon="7.828883">
        <ele>386.946893</ele>
        <time>2021-11-14T19:19:45.578Z</time>
      </trkpt>
      <trkpt lat="47.460628" lon="7.828763">
        <ele>387.081872</ele>
        <time>2021-11-14T19:19:49.432Z</time>
      </trkpt>
      <trkpt lat="47.459940" lon="7.828652">
        <ele>387.555694</ele>
        <time>2021-11-14T19:20:03.213Z</time>
      </trkpt>
      <trkpt lat="47.459537" lon="7.828672">
        <ele>388.169128</ele>
        <time>2021-11-14T19:20:12.368Z</time>
      </trkpt>
      <trkpt lat="47.459456" lon="7.828693">
        <ele>388.294233</ele>
        <time>2021-11-14T19:20:14.511Z</time>
      </trkpt>
      <trkpt lat="47.459211" lon="7.828910">
        <ele>388.728675</ele>
        <time>2021-11-14T19:20:20.372Z</time>
      </trkpt>
      <trkpt lat="47.458992" lon="7.829105">
        <ele>389.117558</ele>
        <time>2021-11-14T19:20:25.696Z</time>
      </trkpt>
      <trkpt lat="47.458779" lon="7.829408">
        <ele>389.567152</ele>
        <time>2021-11-14T19:20:31.884Z</time>
      </trkpt>
      <trkpt lat="47.458605" lon="7.829769">
        <ele>390.023168</ele>
        <time>2021-11-14T19:20:38.201Z</time>
      </trkpt>
      <trkpt lat="47.458483" lon="7.830002">
        <ele>390.245653</ele>
        <time>2021-11-14T19:20:42.333Z</time>
      </trkpt>
      <trkpt lat="47.458385" lon="7.829959">
        <ele>390.322848</ele>
        <time>2021-11-14T19:20:44.637Z</time>
      </trkpt>
      <trkpt lat="47.458230" lon="7.829919">
        <ele>390.441668</ele>
        <time>2021-11-14T19:20:47.578Z</time>
      </trkpt>
      <trkpt lat="47.457731" lon="7.829812">
        <ele>390.822440</ele>
        <time>2021-11-14T19:20:59.241Z</time>
      </trkpt>
      <trkpt lat="47.457427" lon="7.829810">
        <ele>391.052015</ele>
        <time>2021-11-14T19:21:06.284Z</time>
      </trkpt>
      <trkpt lat="47.456847" lon="7.829841">
        <ele>391.490302</ele>
        <time>2021-11-14T19:21:18.613Z</time>
      </trkpt>
      <trkpt lat="47.456508" lon="7.829890">
        <ele>391.862244</ele>
        <time>2021-11-14T19:21:25.647Z</time>
      </trkpt>
      <trkpt lat="47.456217" lon="7.829960">
        <ele>392.199385</ele>
        <time>2021-11-14T19:21:32.660Z</time>
      </trkpt>
      <trkpt lat="47.455686" lon="7.830084">
        <ele>392.814125</ele>
        <time>2021-11-14T19:21:45.711Z</time>
      </trkpt>
      <trkpt lat="47.455667" lon="7.830016">
        <ele>392.871015</ele>
        <time>2021-11-14T19:21:46.971Z</time>
      </trkpt>
      <trkpt lat="47.455644" lon="7.829891">
        <ele>392.971182</ele>
        <time>2021-11-14T19:21:49.490Z</time>
      </trkpt>
      <trkpt lat="47.455626" lon="7.829799">
        <ele>393.045235</ele>
        <time>2021-11-14T19:21:50.966Z</time>
      </trkpt>
      <trkpt lat="47.455584" lon="7.829685">
        <ele>393.145617</ele>
        <time>2021-11-14T19:21:53.048Z</time>
      </trkpt>
      <trkpt lat="47.455556" lon="7.829615">
        <ele>393.208504</ele>
        <time>2021-11-14T19:21:54.440Z</time>
      </trkpt>
      <trkpt lat="47.455471" lon="7.829717">
        <ele>393.333676</ele>
        <time>2021-11-14T19:21:57.203Z</time>
      </trkpt>
      <trkpt lat="47.455265" lon="7.829874">
        <ele>393.612828</ele>
        <time>2021-11-14T19:22:02.069Z</time>
      </trkpt>
      <trkpt lat="47.455185" lon="7.829882">
        <ele>393.778974</ele>
        <time>2021-11-14T19:22:03.964Z</time>
      </trkpt>
      <trkpt lat="47.455119" lon="7.829864">
        <ele>393.918037</ele>
        <time>2021-11-14T19:22:05.917Z</time>
      </trkpt>
      <trkpt lat="47.454803" lon="7.829577">
        <ele>394.686430</ele>
        <time>2021-11-14T19:22:14.938Z</time>
      </trkpt>
      <trkpt lat="47.454625" lon="7.829495">
        <ele>395.072740</ele>
        <time>2021-11-14T19:22:19.240Z</time>
      </trkpt>
      <trkpt lat="47.454472" lon="7.829506">
        <ele>395.390143</ele>
        <time>2021-11-14T19:22:23.094Z</time>
      </trkpt>
      <trkpt lat="47.454287" lon="7.829611">
        <ele>395.800739</ele>
        <time>2021-11-14T19:22:27.612Z</time>
      </trkpt>
      <trkpt lat="47.453989" lon="7.829813">
        <ele>396.479992</ele>
        <time>2021-11-14T19:22:35.630Z</time>
      </trkpt>
      <trkpt lat="47.453757" lon="7.829984">
        <ele>397.017112</ele>
        <time>2021-11-14T19:22:41.766Z</time>
      </trkpt>
      <trkpt lat="47.453492" lon="7.830220">
        <ele>397.475787</ele>
        <time>2021-11-14T19:22:48.060Z</time>
      </trkpt>
      <trkpt lat="47.453398" lon="7.830308">
        <ele>397.586200</ele>
        <time>2021-11-14T19:22:50.764Z</time>
      </trkpt>
      <trkpt lat="47.453250" lon="7.830464">
        <ele>397.766575</ele>
        <time>2021-11-14T19:22:54.202Z</time>
      </trkpt>
      <trkpt lat="47.453204" lon="7.830521">
        <ele>397.826136</ele>
        <time>2021-11-14T19:22:55.344Z</time>
      </trkpt>
      <trkpt lat="47.452618" lon="7.831252">
        <ele>398.586992</ele>
        <time>2021-11-14T19:23:10.374Z</time>
      </trkpt>
      <trkpt lat="47.452373" lon="7.831505">
        <ele>398.883559</ele>
        <time>2021-11-14T19:23:15.039Z</time>
      </trkpt>
      <trkpt lat="47.452175" lon="7.831696">
        <ele>399.098838</ele>
        <time>2021-11-14T19:23:18.800Z</time>
      </trkpt>
      <trkpt lat="47.451989" lon="7.831857">
        <ele>399.146525</ele>
        <time>2021-11-14T19:23:21.762Z</time>
      </trkpt>
      <trkpt lat="47.451701" lon="7.832106">
        <ele>399.220339</ele>
        <time>2021-11-14T19:23:26.626Z</time>
      </trkpt>
      <trkpt lat="47.451426" lon="7.832356">
        <ele>399.291764</ele>
        <time>2021-11-14T19:23:31.372Z</time>
      </trkpt>
      <trkpt lat="47.451327" lon="7.832461">
        <ele>399.318720</ele>
        <time>2021-11-14T19:23:33.209Z</time>
      </trkpt>
      <trkpt lat="47.451121" lon="7.832696">
        <ele>399.376286</ele>
        <time>2021-11-14T19:23:37.152Z</time>
      </trkpt>
      <trkpt lat="47.450016" lon="7.834124">
        <ele>400.518008</ele>
        <time>2021-11-14T19:24:02.296Z</time>
      </trkpt>
      <trkpt lat="47.449811" lon="7.834354">
        <ele>400.796751</ele>
        <time>2021-11-14T19:24:07.648Z</time>
      </trkpt>
      <trkpt lat="47.449811" lon="7.834354">
        <ele>400.796751</ele>
        <time>2021-11-14T19:24:07.682Z</time>
      </trkpt>
      <trkpt lat="47.449811" lon="7.834354">
        <ele>400.796751</ele>
        <time>2021-11-14T19:24:07.688Z</time>
      </trkpt>
      <trkpt lat="47.449669" lon="7.834494">
        <ele>400.981623</ele>
        <time>2021-11-14T19:24:11.060Z</time>
      </trkpt>
      <trkpt lat="47.449505" lon="7.834629">
        <ele>401.184944</ele>
        <time>2021-11-14T19:24:15.234Z</time>
      </trkpt>
      <trkpt lat="47.449275" lon="7.834788">
        <ele>401.483373</ele>
        <time>2021-11-14T19:24:20.625Z</time>
      </trkpt>
      <trkpt lat="47.448956" lon="7.834983">
        <ele>402.287300</ele>
        <time>2021-11-14T19:24:28.436Z</time>
      </trkpt>
      <trkpt lat="47.448978" lon="7.835062">
        <ele>402.421860</ele>
        <time>2021-11-14T19:24:30.133Z</time>
      </trkpt>
      <trkpt lat="47.448622" lon="7.835311">
        <ele>403.339054</ele>
        <time>2021-11-14T19:24:41.685Z</time>
      </trkpt>
      <trkpt lat="47.447146" lon="7.836805">
        <ele>407.778835</ele>
        <time>2021-11-14T19:25:36.298Z</time>
      </trkpt>
      <trkpt lat="47.446145" lon="7.837696">
        <ele>410.939650</ele>
        <time>2021-11-14T19:26:12.771Z</time>
      </trkpt>
      <trkpt lat="47.446064" lon="7.837840">
        <ele>411.308336</ele>
        <time>2021-11-14T19:26:16.815Z</time>
      </trkpt>
      <trkpt lat="47.445528" lon="7.838233">
        <ele>413.049710</ele>
        <time>2021-11-14T19:26:36.063Z</time>
      </trkpt>
      <trkpt lat="47.445072" lon="7.838787">
        <ele>414.767513</ele>
        <time>2021-11-14T19:26:54.988Z</time>
      </trkpt>
      <trkpt lat="47.444584" lon="7.839628">
        <ele>416.803730</ele>
        <time>2021-11-14T19:27:18.858Z</time>
      </trkpt>
      <trkpt lat="47.443079" lon="7.842585">
        <ele>422.800702</ele>
        <time>2021-11-14T19:28:34.087Z</time>
      </trkpt>
      <trkpt lat="47.442391" lon="7.843670">
        <ele>424.739441</ele>
        <time>2021-11-14T19:29:01.649Z</time>
      </trkpt>
      <trkpt lat="47.440089" lon="7.846894">
        <ele>429.128551</ele>
        <time>2021-11-14T19:30:22.730Z</time>
      </trkpt>
      <trkpt lat="47.438127" lon="7.849642">
        <ele>431.959686</ele>
        <time>2021-11-14T19:31:29.300Z</time>
      </trkpt>
      <trkpt lat="47.437750" lon="7.850017">
        <ele>432.370754</ele>
        <time>2021-11-14T19:31:39.562Z</time>
      </trkpt>
      <trkpt lat="47.437310" lon="7.850269">
        <ele>432.797633</ele>
        <time>2021-11-14T19:31:50.320Z</time>
      </trkpt>
      <trkpt lat="47.436663" lon="7.850327">
        <ele>433.735034</ele>
        <time>2021-11-14T19:32:06.110Z</time>
      </trkpt>
      <trkpt lat="47.436538" lon="7.850283">
        <ele>433.925706</ele>
        <time>2021-11-14T19:32:08.890Z</time>
      </trkpt>
      <trkpt lat="47.436479" lon="7.850260">
        <ele>434.016248</ele>
        <time>2021-11-14T19:32:11.000Z</time>
      </trkpt>
      <trkpt lat="47.436050" lon="7.850036">
        <ele>434.691377</ele>
        <time>2021-11-14T19:32:22.788Z</time>
      </trkpt>
      <trkpt lat="47.434500" lon="7.848920">
        <ele>437.716227</ele>
        <time>2021-11-14T19:33:12.432Z</time>
      </trkpt>
      <trkpt lat="47.433795" lon="7.848524">
        <ele>439.107414</ele>
        <time>2021-11-14T19:33:32.114Z</time>
      </trkpt>
      <trkpt lat="47.433528" lon="7.848396">
        <ele>439.577296</ele>
        <time>2021-11-14T19:33:39.512Z</time>
      </trkpt>
      <trkpt lat="47.433365" lon="7.848309">
        <ele>439.867405</ele>
        <time>2021-11-14T19:33:43.775Z</time>
      </trkpt>
      <trkpt lat="47.433310" lon="7.848283">
        <ele>439.964070</ele>
        <time>2021-11-14T19:33:45.345Z</time>
      </trkpt>
      <trkpt lat="47.432515" lon="7.847914">
        <ele>441.358986</ele>
        <time>2021-11-14T19:34:08.114Z</time>
      </trkpt>
      <trkpt lat="47.432368" lon="7.847858">
        <ele>441.613109</ele>
        <time>2021-11-14T19:34:11.994Z</time>
      </trkpt>
      <trkpt lat="47.431726" lon="7.847615">
        <ele>443.065837</ele>
        <time>2021-11-14T19:34:30.588Z</time>
      </trkpt>
      <trkpt lat="47.431292" lon="7.847484">
        <ele>444.116287</ele>
        <time>2021-11-14T19:34:43.551Z</time>
      </trkpt>
      <trkpt lat="47.430641" lon="7.847433">
        <ele>445.662275</ele>
        <time>2021-11-14T19:35:04.119Z</time>
      </trkpt>
      <trkpt lat="47.430098" lon="7.847528">
        <ele>446.933431</ele>
        <time>2021-11-14T19:35:20.914Z</time>
      </trkpt>
      <trkpt lat="47.429436" lon="7.847758">
        <ele>448.494329</ele>
        <time>2021-11-14T19:35:40.502Z</time>
      </trkpt>
      <trkpt lat="47.429321" lon="7.847805">
        <ele>448.768192</ele>
        <time>2021-11-14T19:35:44.086Z</time>
      </trkpt>
      <trkpt lat="47.428781" lon="7.847991">
        <ele>450.040862</ele>
        <time>2021-11-14T19:36:00.060Z</time>
      </trkpt>
      <trkpt lat="47.428268" lon="7.848175">
        <ele>451.102840</ele>
        <time>2021-11-14T19:36:15.630Z</time>
      </trkpt>
      <trkpt lat="47.427648" lon="7.848283">
        <ele>452.312413</ele>
        <time>2021-11-14T19:36:33.076Z</time>
      </trkpt>
      <trkpt lat="47.427439" lon="7.848262">
        <ele>452.718289</ele>
        <time>2021-11-14T19:36:39.227Z</time>
      </trkpt>
      <trkpt lat="47.425165" lon="7.848031">
        <ele>456.492384</ele>
        <time>2021-11-14T19:37:39.958Z</time>
      </trkpt>
      <trkpt lat="47.425093" lon="7.848037">
        <ele>456.604143</ele>
        <time>2021-11-14T19:37:42.036Z</time>
      </trkpt>
      <trkpt lat="47.425016" lon="7.848030">
        <ele>456.709928</ele>
        <time>2021-11-14T19:37:43.904Z</time>
      </trkpt>
      <trkpt lat="47.424743" lon="7.847935">
        <ele>457.094509</ele>
        <time>2021-11-14T19:37:50.562Z</time>
      </trkpt>
      <trkpt lat="47.423887" lon="7.847874">
        <ele>458.269646</ele>
        <time>2021-11-14T19:38:12.008Z</time>
      </trkpt>
      <trkpt lat="47.423788" lon="7.847858">
        <ele>458.406207</ele>
        <time>2021-11-14T19:38:14.349Z</time>
      </trkpt>
      <trkpt lat="47.423488" lon="7.847784">
        <ele>458.823266</ele>
        <time>2021-11-14T19:38:22.429Z</time>
      </trkpt>
      <trkpt lat="47.423401" lon="7.847760">
        <ele>458.944623</ele>
        <time>2021-11-14T19:38:24.655Z</time>
      </trkpt>
      <trkpt lat="47.423326" lon="7.847739">
        <ele>459.049294</ele>
        <time>2021-11-14T19:38:26.680Z</time>
      </trkpt>
      <trkpt lat="47.423175" lon="7.847645">
        <ele>459.452811</ele>
        <time>2021-11-14T19:38:30.995Z</time>
      </trkpt>
      <trkpt lat="47.423160" lon="7.847639">
        <ele>459.492084</ele>
        <time>2021-11-14T19:38:31.423Z</time>
      </trkpt>
      <trkpt lat="47.422830" lon="7.847504">
        <ele>460.357446</ele>
        <time>2021-11-14T19:38:41.195Z</time>
      </trkpt>
      <trkpt lat="47.422224" lon="7.847204">
        <ele>461.972612</ele>
        <time>2021-11-14T19:39:01.094Z</time>
      </trkpt>
      <trkpt lat="47.421782" lon="7.847034">
        <ele>463.126878</ele>
        <time>2021-11-14T19:39:15.854Z</time>
      </trkpt>
      <trkpt lat="47.421469" lon="7.846914">
        <ele>464.023604</ele>
        <time>2021-11-14T19:39:26.532Z</time>
      </trkpt>
      <trkpt lat="47.421216" lon="7.846840">
        <ele>464.829377</ele>
        <time>2021-11-14T19:39:34.781Z</time>
      </trkpt>
      <trkpt lat="47.420292" lon="7.846569">
        <ele>467.772503</ele>
        <time>2021-11-14T19:40:04.831Z</time>
      </trkpt>
      <trkpt lat="47.419677" lon="7.846349">
        <ele>469.821248</ele>
        <time>2021-11-14T19:40:26.313Z</time>
      </trkpt>
      <trkpt lat="47.418787" lon="7.845930">
        <ele>473.140779</ele>
        <time>2021-11-14T19:40:59.277Z</time>
      </trkpt>
      <trkpt lat="47.418505" lon="7.845770">
        <ele>474.214283</ele>
        <time>2021-11-14T19:41:10.065Z</time>
      </trkpt>
      <trkpt lat="47.417834" lon="7.845378">
        <ele>476.181877</ele>
        <time>2021-11-14T19:41:34.100Z</time>
      </trkpt>
      <trkpt lat="47.417634" lon="7.845250">
        <ele>476.557854</ele>
        <time>2021-11-14T19:41:41.494Z</time>
      </trkpt>
      <trkpt lat="47.417039" lon="7.844872">
        <ele>477.675094</ele>
        <time>2021-11-14T19:41:59.498Z</time>
      </trkpt>
      <trkpt lat="47.416215" lon="7.844386">
        <ele>478.678301</ele>
        <time>2021-11-14T19:42:17.857Z</time>
      </trkpt>
      <trkpt lat="47.415184" lon="7.843954">
        <ele>478.511622</ele>
        <time>2021-11-14T19:42:37.006Z</time>
      </trkpt>
      <trkpt lat="47.415123" lon="7.843938">
        <ele>478.501986</ele>
        <time>2021-11-14T19:42:38.160Z</time>
      </trkpt>
      <trkpt lat="47.414737" lon="7.843840">
        <ele>478.455114</ele>
        <time>2021-11-14T19:42:46.616Z</time>
      </trkpt>
      <trkpt lat="47.414534" lon="7.843769">
        <ele>478.842216</ele>
        <time>2021-11-14T19:42:51.372Z</time>
      </trkpt>
      <trkpt lat="47.413795" lon="7.843755">
        <ele>480.213648</ele>
        <time>2021-11-14T19:43:11.819Z</time>
      </trkpt>
      <trkpt lat="47.413673" lon="7.843752">
        <ele>480.440068</ele>
        <time>2021-11-14T19:43:15.155Z</time>
      </trkpt>
      <trkpt lat="47.412891" lon="7.843894">
        <ele>481.944180</ele>
        <time>2021-11-14T19:43:39.492Z</time>
      </trkpt>
      <trkpt lat="47.412769" lon="7.843850">
        <ele>482.257404</ele>
        <time>2021-11-14T19:43:43.679Z</time>
      </trkpt>
      <trkpt lat="47.411785" lon="7.844178">
        <ele>484.773360</ele>
        <time>2021-11-14T19:44:06.998Z</time>
      </trkpt>
      <trkpt lat="47.411264" lon="7.844343">
        <ele>486.102345</ele>
        <time>2021-11-14T19:44:20.387Z</time>
      </trkpt>
      <trkpt lat="47.411235" lon="7.844348">
        <ele>486.175168</ele>
        <time>2021-11-14T19:44:21.123Z</time>
      </trkpt>
      <trkpt lat="47.411166" lon="7.844371">
        <ele>486.435829</ele>
        <time>2021-11-14T19:44:22.893Z</time>
      </trkpt>
      <trkpt lat="47.410433" lon="7.844607">
        <ele>490.147759</ele>
        <time>2021-11-14T19:44:45.318Z</time>
      </trkpt>
      <trkpt lat="47.410293" lon="7.844651">
        <ele>490.855965</ele>
        <time>2021-11-14T19:44:49.334Z</time>
      </trkpt>
      <trkpt lat="47.410148" lon="7.844709">
        <ele>491.599238</ele>
        <time>2021-11-14T19:44:55.531Z</time>
      </trkpt>
      <trkpt lat="47.409986" lon="7.844760">
        <ele>492.418794</ele>
        <time>2021-11-14T19:45:00.433Z</time>
      </trkpt>
      <trkpt lat="47.409830" lon="7.844820">
        <ele>493.216391</ele>
        <time>2021-11-14T19:45:07.630Z</time>
      </trkpt>
      <trkpt lat="47.409752" lon="7.844850">
        <ele>493.615189</ele>
        <time>2021-11-14T19:45:10.875Z</time>
      </trkpt>
      <trkpt lat="47.409665" lon="7.844882">
        <ele>494.058796</ele>
        <time>2021-11-14T19:45:14.473Z</time>
      </trkpt>
      <trkpt lat="47.409459" lon="7.844940">
        <ele>495.096409</ele>
        <time>2021-11-14T19:45:24.412Z</time>
      </trkpt>
      <trkpt lat="47.409210" lon="7.844968">
        <ele>496.611430</ele>
        <time>2021-11-14T19:45:34.652Z</time>
      </trkpt>
      <trkpt lat="47.409142" lon="7.844968">
        <ele>497.028487</ele>
        <time>2021-11-14T19:45:38.880Z</time>
      </trkpt>
      <trkpt lat="47.408437" lon="7.844931">
        <ele>501.355115</ele>
        <time>2021-11-14T19:46:09.482Z</time>
      </trkpt>
      <trkpt lat="47.408170" lon="7.844961">
        <ele>502.997406</ele>
        <time>2021-11-14T19:46:19.736Z</time>
      </trkpt>
      <trkpt lat="47.407704" lon="7.845059">
        <ele>505.884276</ele>
        <time>2021-11-14T19:46:37.445Z</time>
      </trkpt>
      <trkpt lat="47.406668" lon="7.845324">
        <ele>508.139166</ele>
        <time>2021-11-14T19:47:03.725Z</time>
      </trkpt>
      <trkpt lat="47.406444" lon="7.845434">
        <ele>508.597422</ele>
        <time>2021-11-14T19:47:07.561Z</time>
      </trkpt>
      <trkpt lat="47.406156" lon="7.845724">
        <ele>509.274029</ele>
        <time>2021-11-14T19:47:13.141Z</time>
      </trkpt>
      <trkpt lat="47.405939" lon="7.846047">
        <ele>509.725635</ele>
        <time>2021-11-14T19:47:18.101Z</time>
      </trkpt>
      <trkpt lat="47.405700" lon="7.846541">
        <ele>509.886035</ele>
        <time>2021-11-14T19:47:25.002Z</time>
      </trkpt>
      <trkpt lat="47.404908" lon="7.848505">
        <ele>510.844930</ele>
        <time>2021-11-14T19:47:50.291Z</time>
      </trkpt>
      <trkpt lat="47.404852" lon="7.848646">
        <ele>511.042749</ele>
        <time>2021-11-14T19:47:52.617Z</time>
      </trkpt>
      <trkpt lat="47.404726" lon="7.848932">
        <ele>511.455674</ele>
        <time>2021-11-14T19:47:55.590Z</time>
      </trkpt>
      <trkpt lat="47.404599" lon="7.849165">
        <ele>511.817669</ele>
        <time>2021-11-14T19:47:59.369Z</time>
      </trkpt>
      <trkpt lat="47.404383" lon="7.849389">
        <ele>512.289467</ele>
        <time>2021-11-14T19:48:04.374Z</time>
      </trkpt>
      <trkpt lat="47.403486" lon="7.850249">
        <ele>516.084295</ele>
        <time>2021-11-14T19:48:33.530Z</time>
      </trkpt>
      <trkpt lat="47.402868" lon="7.850841">
        <ele>521.570256</ele>
        <time>2021-11-14T19:49:05.282Z</time>
      </trkpt>
      <trkpt lat="47.401845" lon="7.851841">
        <ele>531.205245</ele>
        <time>2021-11-14T19:50:14.188Z</time>
      </trkpt>
      <trkpt lat="47.401481" lon="7.852058">
        <ele>534.522384</ele>
        <time>2021-11-14T19:50:35.374Z</time>
      </trkpt>
      <trkpt lat="47.400993" lon="7.852181">
        <ele>538.706038</ele>
        <time>2021-11-14T19:50:59.620Z</time>
      </trkpt>
      <trkpt lat="47.400748" lon="7.852175">
        <ele>540.776807</ele>
        <time>2021-11-14T19:51:10.508Z</time>
      </trkpt>
      <trkpt lat="47.399845" lon="7.851869">
        <ele>544.063885</ele>
        <time>2021-11-14T19:51:40.304Z</time>
      </trkpt>
      <trkpt lat="47.399819" lon="7.851860">
        <ele>544.129452</ele>
        <time>2021-11-14T19:51:41.694Z</time>
      </trkpt>
      <trkpt lat="47.397717" lon="7.852911">
        <ele>546.979643</ele>
        <time>2021-11-14T19:52:17.402Z</time>
      </trkpt>
      <trkpt lat="47.397584" lon="7.852978">
        <ele>547.021593</ele>
        <time>2021-11-14T19:52:19.259Z</time>
      </trkpt>
      <trkpt lat="47.397466" lon="7.853058">
        <ele>547.060353</ele>
        <time>2021-11-14T19:52:21.727Z</time>
      </trkpt>
      <trkpt lat="47.397399" lon="7.853113">
        <ele>547.083235</ele>
        <time>2021-11-14T19:52:22.865Z</time>
      </trkpt>
      <trkpt lat="47.397240" lon="7.853282">
        <ele>547.141711</ele>
        <time>2021-11-14T19:52:25.713Z</time>
      </trkpt>
      <trkpt lat="47.397171" lon="7.853390">
        <ele>547.212580</ele>
        <time>2021-11-14T19:52:27.838Z</time>
      </trkpt>
      <trkpt lat="47.397100" lon="7.853327">
        <ele>547.305602</ele>
        <time>2021-11-14T19:52:29.392Z</time>
      </trkpt>
      <trkpt lat="47.397017" lon="7.853300">
        <ele>547.401057</ele>
        <time>2021-11-14T19:52:31.344Z</time>
      </trkpt>
      <trkpt lat="47.396618" lon="7.853483">
        <ele>547.870292</ele>
        <time>2021-11-14T19:52:40.498Z</time>
      </trkpt>
      <trkpt lat="47.395681" lon="7.854098">
        <ele>549.021875</ele>
        <time>2021-11-14T19:53:06.755Z</time>
      </trkpt>
      <trkpt lat="47.395599" lon="7.854137">
        <ele>549.118629</ele>
        <time>2021-11-14T19:53:10.047Z</time>
      </trkpt>
      <trkpt lat="47.395568" lon="7.854054">
        <ele>549.216320</ele>
        <time>2021-11-14T19:53:11.316Z</time>
      </trkpt>
      <trkpt lat="47.395509" lon="7.853930">
        <ele>549.548059</ele>
        <time>2021-11-14T19:53:13.488Z</time>
      </trkpt>
      <trkpt lat="47.395464" lon="7.853851">
        <ele>549.774041</ele>
        <time>2021-11-14T19:53:15.290Z</time>
      </trkpt>
      <trkpt lat="47.395275" lon="7.853638">
        <ele>550.542663</ele>
        <time>2021-11-14T19:53:22.699Z</time>
      </trkpt>
      <trkpt lat="47.395202" lon="7.853591">
        <ele>550.800137</ele>
        <time>2021-11-14T19:53:24.661Z</time>
      </trkpt>
      <trkpt lat="47.395123" lon="7.853546">
        <ele>551.073900</ele>
        <time>2021-11-14T19:53:27.567Z</time>
      </trkpt>
      <trkpt lat="47.395089" lon="7.853542">
        <ele>551.184180</ele>
        <time>2021-11-14T19:53:29.441Z</time>
      </trkpt>
      <trkpt lat="47.394696" lon="7.853664">
        <ele>552.482623</ele>
        <time>2021-11-14T19:53:41.827Z</time>
      </trkpt>
      <trkpt lat="47.394105" lon="7.853679">
        <ele>554.393787</ele>
        <time>2021-11-14T19:54:01.814Z</time>
      </trkpt>
      <trkpt lat="47.393826" lon="7.853658">
        <ele>555.675170</ele>
        <time>2021-11-14T19:54:11.972Z</time>
      </trkpt>
      <trkpt lat="47.393781" lon="7.853664">
        <ele>556.002716</ele>
        <time>2021-11-14T19:54:14.428Z</time>
      </trkpt>
      <trkpt lat="47.393675" lon="7.853681">
        <ele>556.775662</ele>
        <time>2021-11-14T19:54:20.321Z</time>
      </trkpt>
      <trkpt lat="47.393398" lon="7.853765">
        <ele>558.825605</ele>
        <time>2021-11-14T19:54:32.701Z</time>
      </trkpt>
      <trkpt lat="47.393275" lon="7.853890">
        <ele>559.907909</ele>
        <time>2021-11-14T19:54:39.610Z</time>
      </trkpt>
      <trkpt lat="47.393189" lon="7.854045">
        <ele>560.891422</ele>
        <time>2021-11-14T19:54:44.838Z</time>
      </trkpt>
      <trkpt lat="47.393127" lon="7.854024">
        <ele>561.352545</ele>
        <time>2021-11-14T19:54:48.530Z</time>
      </trkpt>
      <trkpt lat="47.392826" lon="7.854008">
        <ele>563.536008</ele>
        <time>2021-11-14T19:55:02.555Z</time>
      </trkpt>
      <trkpt lat="47.392606" lon="7.853710">
        <ele>565.699881</ele>
        <time>2021-11-14T19:55:18.631Z</time>
      </trkpt>
      <trkpt lat="47.392531" lon="7.853545">
        <ele>566.675233</ele>
        <time>2021-11-14T19:55:27.142Z</time>
      </trkpt>
      <trkpt lat="47.392434" lon="7.853433">
        <ele>567.567750</ele>
        <time>2021-11-14T19:55:35.076Z</time>
      </trkpt>
      <trkpt lat="47.391783" lon="7.852784">
        <ele>576.386880</ele>
        <time>2021-11-14T19:56:22.878Z</time>
      </trkpt>
      <trkpt lat="47.391640" lon="7.852608">
        <ele>578.542665</ele>
        <time>2021-11-14T19:56:37.162Z</time>
      </trkpt>
      <trkpt lat="47.391595" lon="7.852537">
        <ele>579.305258</ele>
        <time>2021-11-14T19:56:42.540Z</time>
      </trkpt>
      <trkpt lat="47.391460" lon="7.852289">
        <ele>581.800433</ele>
        <time>2021-11-14T19:56:57.618Z</time>
      </trkpt>
      <trkpt lat="47.391391" lon="7.852032">
        <ele>583.968208</ele>
        <time>2021-11-14T19:57:11.508Z</time>
      </trkpt>
      <trkpt lat="47.391307" lon="7.851550">
        <ele>587.870707</ele>
        <time>2021-11-14T19:57:34.046Z</time>
      </trkpt>
      <trkpt lat="47.391509" lon="7.850967">
        <ele>592.563619</ele>
        <time>2021-11-14T19:58:02.647Z</time>
      </trkpt>
      <trkpt lat="47.391560" lon="7.850863">
        <ele>593.463034</ele>
        <time>2021-11-14T19:58:10.794Z</time>
      </trkpt>
      <trkpt lat="47.391799" lon="7.850323">
        <ele>597.981612</ele>
        <time>2021-11-14T19:58:38.860Z</time>
      </trkpt>
      <trkpt lat="47.392167" lon="7.849685">
        <ele>603.851964</ele>
        <time>2021-11-14T19:59:10.869Z</time>
      </trkpt>
      <trkpt lat="47.392479" lon="7.849322">
        <ele>607.882052</ele>
        <time>2021-11-14T19:59:34.851Z</time>
      </trkpt>
      <trkpt lat="47.392520" lon="7.849311">
        <ele>608.243809</ele>
        <time>2021-11-14T19:59:38.104Z</time>
      </trkpt>
      <trkpt lat="47.392869" lon="7.849215">
        <ele>611.325665</ele>
        <time>2021-11-14T19:59:54.720Z</time>
      </trkpt>
      <trkpt lat="47.393682" lon="7.849411">
        <ele>618.476939</ele>
        <time>2021-11-14T20:00:36.735Z</time>
      </trkpt>
      <trkpt lat="47.393741" lon="7.849387">
        <ele>619.008201</ele>
        <time>2021-11-14T20:00:39.877Z</time>
      </trkpt>
      <trkpt lat="47.393822" lon="7.849356">
        <ele>619.734603</ele>
        <time>2021-11-14T20:00:46.781Z</time>
      </trkpt>
      <trkpt lat="47.394272" lon="7.848809">
        <ele>625.621224</ele>
        <time>2021-11-14T20:01:18.992Z</time>
      </trkpt>
      <trkpt lat="47.394558" lon="7.848667">
        <ele>629.509674</ele>
        <time>2021-11-14T20:01:37.940Z</time>
      </trkpt>
      <trkpt lat="47.394706" lon="7.848628">
        <ele>631.447136</ele>
        <time>2021-11-14T20:01:49.352Z</time>
      </trkpt>
      <trkpt lat="47.394829" lon="7.848557">
        <ele>633.149022</ele>
        <time>2021-11-14T20:01:59.518Z</time>
      </trkpt>
      <trkpt lat="47.395004" lon="7.848355">
        <ele>636.011194</ele>
        <time>2021-11-14T20:02:15.617Z</time>
      </trkpt>
      <trkpt lat="47.395189" lon="7.848023">
        <ele>639.762651</ele>
        <time>2021-11-14T20:02:37.865Z</time>
      </trkpt>
      <trkpt lat="47.395320" lon="7.847661">
        <ele>643.343690</ele>
        <time>2021-11-14T20:02:58.056Z</time>
      </trkpt>
      <trkpt lat="47.395408" lon="7.847208">
        <ele>647.791762</ele>
        <time>2021-11-14T20:03:22.277Z</time>
      </trkpt>
      <trkpt lat="47.395451" lon="7.846896">
        <ele>651.355716</ele>
        <time>2021-11-14T20:03:43.522Z</time>
      </trkpt>
      <trkpt lat="47.395642" lon="7.845887">
        <ele>663.082998</ele>
        <time>2021-11-14T20:04:46.255Z</time>
      </trkpt>
      <trkpt lat="47.395719" lon="7.845127">
        <ele>671.684617</ele>
        <time>2021-11-14T20:05:29.412Z</time>
      </trkpt>
      <trkpt lat="47.395721" lon="7.844953">
        <ele>673.632520</ele>
        <time>2021-11-14T20:05:42.622Z</time>
      </trkpt>
      <trkpt lat="47.395717" lon="7.844793">
        <ele>675.424659</ele>
        <time>2021-11-14T20:05:53.724Z</time>
      </trkpt>
      <trkpt lat="47.395691" lon="7.844570">
        <ele>677.587716</ele>
        <time>2021-11-14T20:06:03.262Z</time>
      </trkpt>
      <trkpt lat="47.395650" lon="7.844362">
        <ele>679.552865</ele>
        <time>2021-11-14T20:06:19.460Z</time>
      </trkpt>
      <trkpt lat="47.395621" lon="7.844300">
        <ele>680.236472</ele>
        <time>2021-11-14T20:06:23.353Z</time>
      </trkpt>
      <trkpt lat="47.395580" lon="7.844173">
        <ele>681.512804</ele>
        <time>2021-11-14T20:06:28.739Z</time>
      </trkpt>
      <trkpt lat="47.395528" lon="7.844012">
        <ele>683.130969</ele>
        <time>2021-11-14T20:06:37.928Z</time>
      </trkpt>
      <trkpt lat="47.395492" lon="7.843901">
        <ele>684.247461</ele>
        <time>2021-11-14T20:06:47.226Z</time>
      </trkpt>
      <trkpt lat="47.395366" lon="7.843284">
        <ele>690.093478</ele>
        <time>2021-11-14T20:07:19.595Z</time>
      </trkpt>
      <trkpt lat="47.395316" lon="7.842556">
        <ele>696.731170</ele>
        <time>2021-11-14T20:07:52.493Z</time>
      </trkpt>
      <trkpt lat="47.395400" lon="7.841921">
        <ele>701.258938</ele>
        <time>2021-11-14T20:08:18.855Z</time>
      </trkpt>
      <trkpt lat="47.395488" lon="7.841652">
        <ele>702.509643</ele>
        <time>2021-11-14T20:08:31.562Z</time>
      </trkpt>
      <trkpt lat="47.396029" lon="7.840179">
        <ele>709.525093</ele>
        <time>2021-11-14T20:09:18.740Z</time>
      </trkpt>
      <trkpt lat="47.396102" lon="7.839984">
        <ele>710.457917</ele>
        <time>2021-11-14T20:09:23.805Z</time>
      </trkpt>
      <trkpt lat="47.396133" lon="7.839911">
        <ele>710.818665</ele>
        <time>2021-11-14T20:09:26.041Z</time>
      </trkpt>
      <trkpt lat="47.396203" lon="7.839767">
        <ele>711.335484</ele>
        <time>2021-11-14T20:09:29.998Z</time>
      </trkpt>
      <trkpt lat="47.396241" lon="7.839701">
        <ele>711.449286</ele>
        <time>2021-11-14T20:09:32.213Z</time>
      </trkpt>
      <trkpt lat="47.396349" lon="7.839501">
        <ele>711.785317</ele>
        <time>2021-11-14T20:09:37.432Z</time>
      </trkpt>
      <trkpt lat="47.397143" lon="7.838280">
        <ele>714.009114</ele>
        <time>2021-11-14T20:10:10.891Z</time>
      </trkpt>
      <trkpt lat="47.398216" lon="7.835378">
        <ele>713.684491</ele>
        <time>2021-11-14T20:10:52.800Z</time>
      </trkpt>
      <trkpt lat="47.398385" lon="7.835032">
        <ele>712.996654</ele>
        <time>2021-11-14T20:10:57.505Z</time>
      </trkpt>
      <trkpt lat="47.398404" lon="7.835002">
        <ele>712.930423</ele>
        <time>2021-11-14T20:10:57.996Z</time>
      </trkpt>
      <trkpt lat="47.398507" lon="7.834895">
        <ele>712.630543</ele>
        <time>2021-11-14T20:11:00.104Z</time>
      </trkpt>
      <trkpt lat="47.398598" lon="7.834858">
        <ele>712.405760</ele>
        <time>2021-11-14T20:11:01.507Z</time>
      </trkpt>
      <trkpt lat="47.399986" lon="7.834561">
        <ele>708.141764</ele>
        <time>2021-11-14T20:11:22.389Z</time>
      </trkpt>
      <trkpt lat="47.400046" lon="7.834530">
        <ele>707.714486</ele>
        <time>2021-11-14T20:11:23.259Z</time>
      </trkpt>
      <trkpt lat="47.400079" lon="7.834478">
        <ele>707.390159</ele>
        <time>2021-11-14T20:11:24.005Z</time>
      </trkpt>
      <trkpt lat="47.400118" lon="7.834167">
        <ele>705.951028</ele>
        <time>2021-11-14T20:11:27.011Z</time>
      </trkpt>
      <trkpt lat="47.400114" lon="7.834151">
        <ele>705.873421</ele>
        <time>2021-11-14T20:11:27.164Z</time>
      </trkpt>
      <trkpt lat="47.400076" lon="7.833981">
        <ele>705.058833</ele>
        <time>2021-11-14T20:11:28.886Z</time>
      </trkpt>
      <trkpt lat="47.398935" lon="7.830846">
        <ele>685.012833</ele>
        <time>2021-11-14T20:11:58.779Z</time>
      </trkpt>
      <trkpt lat="47.398914" lon="7.830838">
        <ele>684.801926</ele>
        <time>2021-11-14T20:11:59.033Z</time>
      </trkpt>
      <trkpt lat="47.398920" lon="7.830784">
        <ele>684.441699</ele>
        <time>2021-11-14T20:12:01.979Z</time>
      </trkpt>
      <trkpt lat="47.398856" lon="7.830090">
        <ele>679.866294</ele>
        <time>2021-11-14T20:12:44.147Z</time>
      </trkpt>
      <trkpt lat="47.398845" lon="7.829974">
        <ele>679.266204</ele>
        <time>2021-11-14T20:12:50.708Z</time>
      </trkpt>
      <trkpt lat="47.398906" lon="7.829522">
        <ele>676.904959</ele>
        <time>2021-11-14T20:13:18.446Z</time>
      </trkpt>
      <trkpt lat="47.398921" lon="7.829472">
        <ele>676.624770</ele>
        <time>2021-11-14T20:13:21.372Z</time>
      </trkpt>
      <trkpt lat="47.399027" lon="7.829110">
        <ele>674.604097</ele>
        <time>2021-11-14T20:13:45.166Z</time>
      </trkpt>
      <trkpt lat="47.399041" lon="7.828986">
        <ele>673.960051</ele>
        <time>2021-11-14T20:13:52.501Z</time>
      </trkpt>
      <trkpt lat="47.399066" lon="7.828878">
        <ele>673.375292</ele>
        <time>2021-11-14T20:13:53.511Z</time>
      </trkpt>
      <trkpt lat="47.399059" lon="7.828318">
        <ele>670.505843</ele>
        <time>2021-11-14T20:13:58.178Z</time>
      </trkpt>
      <trkpt lat="47.399021" lon="7.828050">
        <ele>669.103040</ele>
        <time>2021-11-14T20:14:01.160Z</time>
      </trkpt>
      <trkpt lat="47.398959" lon="7.827999">
        <ele>668.565946</ele>
        <time>2021-11-14T20:14:02.009Z</time>
      </trkpt>
      <trkpt lat="47.398064" lon="7.827549">
        <ele>666.855473</ele>
        <time>2021-11-14T20:14:17.907Z</time>
      </trkpt>
      <trkpt lat="47.397884" lon="7.827503">
        <ele>666.988764</ele>
        <time>2021-11-14T20:14:21.353Z</time>
      </trkpt>
      <trkpt lat="47.397238" lon="7.827401">
        <ele>667.462815</ele>
        <time>2021-11-14T20:14:40.377Z</time>
      </trkpt>
      <trkpt lat="47.397050" lon="7.827229">
        <ele>667.624169</ele>
        <time>2021-11-14T20:14:47.985Z</time>
      </trkpt>
      <trkpt lat="47.396828" lon="7.826473">
        <ele>669.553866</ele>
        <time>2021-11-14T20:15:07.654Z</time>
      </trkpt>
      <trkpt lat="47.396478" lon="7.825710">
        <ele>672.035443</ele>
        <time>2021-11-14T20:15:32.366Z</time>
      </trkpt>
      <trkpt lat="47.395402" lon="7.824071">
        <ele>677.580660</ele>
        <time>2021-11-14T20:16:26.002Z</time>
      </trkpt>
      <trkpt lat="47.395259" lon="7.823953">
        <ele>678.114687</ele>
        <time>2021-11-14T20:16:31.637Z</time>
      </trkpt>
      <trkpt lat="47.394014" lon="7.823879">
        <ele>680.632543</ele>
        <time>2021-11-14T20:17:11.908Z</time>
      </trkpt>
      <trkpt lat="47.393945" lon="7.823263">
        <ele>680.562481</ele>
        <time>2021-11-14T20:17:22.099Z</time>
      </trkpt>
      <trkpt lat="47.393742" lon="7.822702">
        <ele>680.491102</ele>
        <time>2021-11-14T20:17:30.187Z</time>
      </trkpt>
      <trkpt lat="47.393714" lon="7.822603">
        <ele>680.479063</ele>
        <time>2021-11-14T20:17:33.082Z</time>
      </trkpt>
      <trkpt lat="47.393708" lon="7.822494">
        <ele>680.466792</ele>
        <time>2021-11-14T20:17:33.979Z</time>
      </trkpt>
      <trkpt lat="47.393730" lon="7.822240">
        <ele>680.438058</ele>
        <time>2021-11-14T20:17:36.754Z</time>
      </trkpt>
      <trkpt lat="47.393914" lon="7.821827">
        <ele>679.232963</ele>
        <time>2021-11-14T20:17:41.489Z</time>
      </trkpt>
      <trkpt lat="47.393867" lon="7.820917">
        <ele>674.696235</ele>
        <time>2021-11-14T20:17:49.617Z</time>
      </trkpt>
      <trkpt lat="47.393779" lon="7.820343">
        <ele>671.770639</ele>
        <time>2021-11-14T20:17:54.633Z</time>
      </trkpt>
      <trkpt lat="47.393503" lon="7.819621">
        <ele>667.648885</ele>
        <time>2021-11-14T20:18:01.448Z</time>
      </trkpt>
      <trkpt lat="47.392787" lon="7.818334">
        <ele>655.995999</ele>
        <time>2021-11-14T20:18:15.212Z</time>
      </trkpt>
      <trkpt lat="47.392690" lon="7.818200">
        <ele>654.600984</ele>
        <time>2021-11-14T20:18:16.788Z</time>
      </trkpt>
      <trkpt lat="47.392659" lon="7.818175">
        <ele>654.229994</ele>
        <time>2021-11-14T20:18:17.216Z</time>
      </trkpt>
      <trkpt lat="47.392629" lon="7.818162">
        <ele>653.901596</ele>
        <time>2021-11-14T20:18:17.606Z</time>
      </trkpt>
      <trkpt lat="47.392590" lon="7.818159">
        <ele>653.491385</ele>
        <time>2021-11-14T20:18:18.250Z</time>
      </trkpt>
      <trkpt lat="47.392460" lon="7.818257">
        <ele>651.958327</ele>
        <time>2021-11-14T20:18:20.168Z</time>
      </trkpt>
      <trkpt lat="47.392423" lon="7.818649">
        <ele>649.143885</ele>
        <time>2021-11-14T20:18:23.339Z</time>
      </trkpt>
      <trkpt lat="47.392298" lon="7.818874">
        <ele>646.759022</ele>
        <time>2021-11-14T20:18:25.622Z</time>
      </trkpt>
      <trkpt lat="47.391809" lon="7.819450">
        <ele>638.512294</ele>
        <time>2021-11-14T20:18:33.183Z</time>
      </trkpt>
      <trkpt lat="47.391498" lon="7.819654">
        <ele>634.025463</ele>
        <time>2021-11-14T20:18:37.193Z</time>
      </trkpt>
      <trkpt lat="47.391460" lon="7.819671">
        <ele>633.501939</ele>
        <time>2021-11-14T20:18:37.675Z</time>
      </trkpt>
      <trkpt lat="47.391427" lon="7.819670">
        <ele>633.066725</ele>
        <time>2021-11-14T20:18:38.064Z</time>
      </trkpt>
      <trkpt lat="47.390992" lon="7.819409">
        <ele>626.875911</ele>
        <time>2021-11-14T20:18:43.649Z</time>
      </trkpt>
      <trkpt lat="47.390457" lon="7.819279">
        <ele>618.829075</ele>
        <time>2021-11-14T20:18:50.008Z</time>
      </trkpt>
      <trkpt lat="47.389637" lon="7.818812">
        <ele>605.103011</ele>
        <time>2021-11-14T20:19:00.148Z</time>
      </trkpt>
      <trkpt lat="47.388385" lon="7.818625">
        <ele>588.207804</ele>
        <time>2021-11-14T20:19:14.911Z</time>
      </trkpt>
      <trkpt lat="47.388042" lon="7.818733">
        <ele>584.097649</ele>
        <time>2021-11-14T20:19:19.098Z</time>
      </trkpt>
      <trkpt lat="47.387844" lon="7.818926">
        <ele>581.317408</ele>
        <time>2021-11-14T20:19:21.939Z</time>
      </trkpt>
      <trkpt lat="47.387616" lon="7.819226">
        <ele>577.738838</ele>
        <time>2021-11-14T20:19:25.666Z</time>
      </trkpt>
      <trkpt lat="47.387515" lon="7.819333">
        <ele>576.282161</ele>
        <time>2021-11-14T20:19:27.263Z</time>
      </trkpt>
      <trkpt lat="47.387455" lon="7.819356">
        <ele>575.555687</ele>
        <time>2021-11-14T20:19:28.009Z</time>
      </trkpt>
      <trkpt lat="47.387344" lon="7.819291">
        <ele>574.944518</ele>
        <time>2021-11-14T20:19:29.586Z</time>
      </trkpt>
      <trkpt lat="47.387295" lon="7.819228">
        <ele>574.657625</ele>
        <time>2021-11-14T20:19:30.371Z</time>
      </trkpt>
      <trkpt lat="47.386756" lon="7.818366">
        <ele>571.149266</ele>
        <time>2021-11-14T20:19:41.205Z</time>
      </trkpt>
      <trkpt lat="47.387125" lon="7.817809">
        <ele>568.819229</ele>
        <time>2021-11-14T20:19:49.429Z</time>
      </trkpt>
      <trkpt lat="47.387291" lon="7.817580">
        <ele>567.816123</ele>
        <time>2021-11-14T20:19:52.801Z</time>
      </trkpt>
      <trkpt lat="47.387476" lon="7.817327">
        <ele>566.677414</ele>
        <time>2021-11-14T20:19:56.792Z</time>
      </trkpt>
      <trkpt lat="47.387576" lon="7.817190">
        <ele>566.055424</ele>
        <time>2021-11-14T20:19:58.792Z</time>
      </trkpt>
      <trkpt lat="47.387708" lon="7.817012">
        <ele>565.240335</ele>
        <time>2021-11-14T20:20:01.524Z</time>
      </trkpt>
      <trkpt lat="47.387912" lon="7.816788">
        <ele>564.081140</ele>
        <time>2021-11-14T20:20:05.234Z</time>
      </trkpt>
      <trkpt lat="47.388090" lon="7.816620">
        <ele>563.117847</ele>
        <time>2021-11-14T20:20:08.304Z</time>
      </trkpt>
      <trkpt lat="47.388346" lon="7.816395">
        <ele>561.759376</ele>
        <time>2021-11-14T20:20:12.359Z</time>
      </trkpt>
      <trkpt lat="47.388771" lon="7.816079">
        <ele>559.589565</ele>
        <time>2021-11-14T20:20:18.491Z</time>
      </trkpt>
      <trkpt lat="47.389319" lon="7.815732">
        <ele>555.193992</ele>
        <time>2021-11-14T20:20:25.984Z</time>
      </trkpt>
      <trkpt lat="47.389865" lon="7.815413">
        <ele>550.649859</ele>
        <time>2021-11-14T20:20:33.227Z</time>
      </trkpt>
      <trkpt lat="47.390484" lon="7.815052">
        <ele>545.499436</ele>
        <time>2021-11-14T20:20:41.657Z</time>
      </trkpt>
      <trkpt lat="47.390680" lon="7.814949">
        <ele>544.752387</ele>
        <time>2021-11-14T20:20:44.382Z</time>
      </trkpt>
      <trkpt lat="47.391072" lon="7.814743">
        <ele>543.427444</ele>
        <time>2021-11-14T20:20:50.010Z</time>
      </trkpt>
      <trkpt lat="47.391330" lon="7.814611">
        <ele>542.557973</ele>
        <time>2021-11-14T20:20:53.889Z</time>
      </trkpt>
      <trkpt lat="47.391510" lon="7.814535">
        <ele>541.961819</ele>
        <time>2021-11-14T20:20:56.776Z</time>
      </trkpt>
      <trkpt lat="47.391815" lon="7.814430">
        <ele>540.964538</ele>
        <time>2021-11-14T20:21:01.843Z</time>
      </trkpt>
      <trkpt lat="47.391873" lon="7.814418">
        <ele>540.778038</ele>
        <time>2021-11-14T20:21:02.789Z</time>
      </trkpt>
      <trkpt lat="47.391965" lon="7.814402">
        <ele>540.483047</ele>
        <time>2021-11-14T20:21:04.286Z</time>
      </trkpt>
      <trkpt lat="47.392009" lon="7.814397">
        <ele>540.342518</ele>
        <time>2021-11-14T20:21:05.148Z</time>
      </trkpt>
      <trkpt lat="47.392247" lon="7.814378">
        <ele>539.645675</ele>
        <time>2021-11-14T20:21:09.646Z</time>
      </trkpt>
      <trkpt lat="47.392571" lon="7.814403">
        <ele>540.053975</ele>
        <time>2021-11-14T20:21:16.343Z</time>
      </trkpt>
      <trkpt lat="47.392674" lon="7.814421">
        <ele>540.184502</ele>
        <time>2021-11-14T20:21:18.267Z</time>
      </trkpt>
      <trkpt lat="47.392812" lon="7.814454">
        <ele>540.360431</ele>
        <time>2021-11-14T20:21:21.921Z</time>
      </trkpt>
      <trkpt lat="47.394138" lon="7.814860">
        <ele>541.851678</ele>
        <time>2021-11-14T20:22:00.105Z</time>
      </trkpt>
      <trkpt lat="47.394617" lon="7.815011">
        <ele>541.709442</ele>
        <time>2021-11-14T20:22:14.061Z</time>
      </trkpt>
      <trkpt lat="47.395284" lon="7.815226">
        <ele>541.511184</ele>
        <time>2021-11-14T20:22:28.022Z</time>
      </trkpt>
      <trkpt lat="47.395894" lon="7.815362">
        <ele>540.738637</ele>
        <time>2021-11-14T20:22:37.158Z</time>
      </trkpt>
      <trkpt lat="47.396481" lon="7.815220">
        <ele>537.813398</ele>
        <time>2021-11-14T20:22:45.240Z</time>
      </trkpt>
      <trkpt lat="47.396655" lon="7.815127">
        <ele>536.903405</ele>
        <time>2021-11-14T20:22:47.727Z</time>
      </trkpt>
      <trkpt lat="47.396819" lon="7.815041">
        <ele>536.047568</ele>
        <time>2021-11-14T20:22:50.024Z</time>
      </trkpt>
      <trkpt lat="47.397420" lon="7.814610">
        <ele>532.762083</ele>
        <time>2021-11-14T20:22:58.855Z</time>
      </trkpt>
      <trkpt lat="47.397971" lon="7.814039">
        <ele>529.538514</ele>
        <time>2021-11-14T20:23:07.766Z</time>
      </trkpt>
      <trkpt lat="47.398378" lon="7.813502">
        <ele>526.930360</ele>
        <time>2021-11-14T20:23:15.256Z</time>
      </trkpt>
      <trkpt lat="47.398873" lon="7.812642">
        <ele>523.320712</ele>
        <time>2021-11-14T20:23:26.020Z</time>
      </trkpt>
      <trkpt lat="47.399003" lon="7.812335">
        <ele>522.226000</ele>
        <time>2021-11-14T20:23:29.500Z</time>
      </trkpt>
      <trkpt lat="47.399034" lon="7.812265">
        <ele>521.973122</ele>
        <time>2021-11-14T20:23:30.249Z</time>
      </trkpt>
      <trkpt lat="47.399530" lon="7.811091">
        <ele>517.789529</ele>
        <time>2021-11-14T20:23:43.231Z</time>
      </trkpt>
      <trkpt lat="47.399771" lon="7.810732">
        <ele>516.261054</ele>
        <time>2021-11-14T20:23:47.839Z</time>
      </trkpt>
      <trkpt lat="47.400026" lon="7.810485">
        <ele>514.725649</ele>
        <time>2021-11-14T20:23:51.902Z</time>
      </trkpt>
      <trkpt lat="47.400552" lon="7.810295">
        <ele>511.885338</ele>
        <time>2021-11-14T20:23:59.218Z</time>
      </trkpt>
      <trkpt lat="47.401421" lon="7.810310">
        <ele>507.326839</ele>
        <time>2021-11-14T20:24:10.791Z</time>
      </trkpt>
      <trkpt lat="47.402137" lon="7.810207">
        <ele>503.875865</ele>
        <time>2021-11-14T20:24:20.434Z</time>
      </trkpt>
      <trkpt lat="47.402761" lon="7.810009">
        <ele>500.899557</ele>
        <time>2021-11-14T20:24:29.112Z</time>
      </trkpt>
      <trkpt lat="47.403065" lon="7.809891">
        <ele>499.433778</ele>
        <time>2021-11-14T20:24:33.490Z</time>
      </trkpt>
      <trkpt lat="47.403266" lon="7.809816">
        <ele>498.467007</ele>
        <time>2021-11-14T20:24:36.399Z</time>
      </trkpt>
      <trkpt lat="47.403310" lon="7.809800">
        <ele>498.255694</ele>
        <time>2021-11-14T20:24:37.041Z</time>
      </trkpt>
      <trkpt lat="47.403507" lon="7.809728">
        <ele>497.587209</ele>
        <time>2021-11-14T20:24:39.919Z</time>
      </trkpt>
      <trkpt lat="47.403732" lon="7.809654">
        <ele>496.903940</ele>
        <time>2021-11-14T20:24:43.204Z</time>
      </trkpt>
      <trkpt lat="47.403833" lon="7.809618">
        <ele>496.595968</ele>
        <time>2021-11-14T20:24:44.728Z</time>
      </trkpt>
      <trkpt lat="47.404082" lon="7.809543">
        <ele>495.842702</ele>
        <time>2021-11-14T20:24:48.447Z</time>
      </trkpt>
      <trkpt lat="47.404543" lon="7.809480">
        <ele>494.470374</ele>
        <time>2021-11-14T20:24:55.511Z</time>
      </trkpt>
      <trkpt lat="47.404882" lon="7.809460">
        <ele>493.464711</ele>
        <time>2021-11-14T20:25:00.587Z</time>
      </trkpt>
      <trkpt lat="47.405269" lon="7.809435">
        <ele>492.373971</ele>
        <time>2021-11-14T20:25:06.488Z</time>
      </trkpt>
      <trkpt lat="47.405362" lon="7.809433">
        <ele>492.135662</ele>
        <time>2021-11-14T20:25:07.920Z</time>
      </trkpt>
      <trkpt lat="47.405651" lon="7.809411">
        <ele>491.394205</ele>
        <time>2021-11-14T20:25:12.394Z</time>
      </trkpt>
      <trkpt lat="47.405740" lon="7.809402">
        <ele>491.165637</ele>
        <time>2021-11-14T20:25:13.805Z</time>
      </trkpt>
      <trkpt lat="47.405843" lon="7.809380">
        <ele>490.898987</ele>
        <time>2021-11-14T20:25:15.366Z</time>
      </trkpt>
      <trkpt lat="47.405944" lon="7.809350">
        <ele>490.635028</ele>
        <time>2021-11-14T20:25:16.980Z</time>
      </trkpt>
      <trkpt lat="47.406093" lon="7.809301">
        <ele>490.243920</ele>
        <time>2021-11-14T20:25:19.312Z</time>
      </trkpt>
      <trkpt lat="47.406259" lon="7.809218">
        <ele>489.794903</ele>
        <time>2021-11-14T20:25:21.885Z</time>
      </trkpt>
      <trkpt lat="47.406932" lon="7.808849">
        <ele>487.949632</ele>
        <time>2021-11-14T20:25:32.657Z</time>
      </trkpt>
      <trkpt lat="47.407303" lon="7.808718">
        <ele>486.938926</ele>
        <time>2021-11-14T20:25:38.377Z</time>
      </trkpt>
      <trkpt lat="47.407661" lon="7.808646">
        <ele>485.981598</ele>
        <time>2021-11-14T20:25:43.686Z</time>
      </trkpt>
      <trkpt lat="47.408203" lon="7.808546">
        <ele>484.534325</ele>
        <time>2021-11-14T20:25:51.967Z</time>
      </trkpt>
      <trkpt lat="47.408773" lon="7.808493">
        <ele>483.075734</ele>
        <time>2021-11-14T20:26:00.732Z</time>
      </trkpt>
      <trkpt lat="47.408899" lon="7.808522">
        <ele>482.791407</ele>
        <time>2021-11-14T20:26:02.592Z</time>
      </trkpt>
      <trkpt lat="47.408924" lon="7.808529">
        <ele>482.734673</ele>
        <time>2021-11-14T20:26:02.998Z</time>
      </trkpt>
      <trkpt lat="47.409009" lon="7.808554">
        <ele>482.541432</ele>
        <time>2021-11-14T20:26:04.303Z</time>
      </trkpt>
      <trkpt lat="47.409177" lon="7.808671">
        <ele>482.127326</ele>
        <time>2021-11-14T20:26:07.197Z</time>
      </trkpt>
      <trkpt lat="47.409739" lon="7.809061">
        <ele>480.742939</ele>
        <time>2021-11-14T20:26:16.864Z</time>
      </trkpt>
      <trkpt lat="47.409973" lon="7.809245">
        <ele>480.151919</ele>
        <time>2021-11-14T20:26:20.936Z</time>
      </trkpt>
      <trkpt lat="47.410057" lon="7.809308">
        <ele>479.941882</ele>
        <time>2021-11-14T20:26:22.482Z</time>
      </trkpt>
      <trkpt lat="47.410267" lon="7.809486">
        <ele>479.402084</ele>
        <time>2021-11-14T20:26:26.163Z</time>
      </trkpt>
      <trkpt lat="47.410407" lon="7.809617">
        <ele>479.041352</ele>
        <time>2021-11-14T20:26:28.824Z</time>
      </trkpt>
      <trkpt lat="47.410574" lon="7.809784">
        <ele>478.603911</ele>
        <time>2021-11-14T20:26:31.986Z</time>
      </trkpt>
      <trkpt lat="47.410795" lon="7.810008">
        <ele>478.022543</ele>
        <time>2021-11-14T20:26:36.221Z</time>
      </trkpt>
      <trkpt lat="47.411038" lon="7.810167">
        <ele>477.446025</ele>
        <time>2021-11-14T20:26:40.425Z</time>
      </trkpt>
      <trkpt lat="47.411512" lon="7.810306">
        <ele>476.397705</ele>
        <time>2021-11-14T20:26:47.807Z</time>
      </trkpt>
      <trkpt lat="47.412719" lon="7.810865">
        <ele>473.981365</ele>
        <time>2021-11-14T20:27:07.411Z</time>
      </trkpt>
      <trkpt lat="47.412829" lon="7.810950">
        <ele>473.761093</ele>
        <time>2021-11-14T20:27:09.379Z</time>
      </trkpt>
      <trkpt lat="47.413209" lon="7.811148">
        <ele>473.046088</ele>
        <time>2021-11-14T20:27:16.055Z</time>
      </trkpt>
      <trkpt lat="47.413295" lon="7.811180">
        <ele>472.888716</ele>
        <time>2021-11-14T20:27:17.535Z</time>
      </trkpt>
      <trkpt lat="47.413351" lon="7.811196">
        <ele>472.787503</ele>
        <time>2021-11-14T20:27:18.442Z</time>
      </trkpt>
      <trkpt lat="47.413454" lon="7.811217">
        <ele>472.602997</ele>
        <time>2021-11-14T20:27:20.190Z</time>
      </trkpt>
      <trkpt lat="47.413652" lon="7.811232">
        <ele>472.256851</ele>
        <time>2021-11-14T20:27:23.626Z</time>
      </trkpt>
      <trkpt lat="47.413716" lon="7.811229">
        <ele>472.201732</ele>
        <time>2021-11-14T20:27:24.662Z</time>
      </trkpt>
      <trkpt lat="47.413799" lon="7.811208">
        <ele>472.129246</ele>
        <time>2021-11-14T20:27:26.118Z</time>
      </trkpt>
      <trkpt lat="47.413959" lon="7.811165">
        <ele>471.989258</ele>
        <time>2021-11-14T20:27:29.014Z</time>
      </trkpt>
      <trkpt lat="47.414237" lon="7.811081">
        <ele>471.745004</ele>
        <time>2021-11-14T20:27:33.763Z</time>
      </trkpt>
      <trkpt lat="47.414706" lon="7.810912">
        <ele>471.329458</ele>
        <time>2021-11-14T20:27:42.352Z</time>
      </trkpt>
      <trkpt lat="47.415390" lon="7.810500">
        <ele>470.688337</ele>
        <time>2021-11-14T20:27:56.066Z</time>
      </trkpt>
      <trkpt lat="47.415633" lon="7.810382">
        <ele>470.410582</ele>
        <time>2021-11-14T20:28:00.578Z</time>
      </trkpt>
      <trkpt lat="47.415923" lon="7.810254">
        <ele>470.081925</ele>
        <time>2021-11-14T20:28:06.133Z</time>
      </trkpt>
      <trkpt lat="47.415983" lon="7.810241">
        <ele>470.016074</ele>
        <time>2021-11-14T20:28:07.039Z</time>
      </trkpt>
      <trkpt lat="47.416026" lon="7.810233">
        <ele>469.969012</ele>
        <time>2021-11-14T20:28:07.780Z</time>
      </trkpt>
      <trkpt lat="47.416349" lon="7.810346">
        <ele>469.608571</ele>
        <time>2021-11-14T20:28:13.382Z</time>
      </trkpt>
      <trkpt lat="47.416432" lon="7.810407">
        <ele>469.507911</ele>
        <time>2021-11-14T20:28:15.061Z</time>
      </trkpt>
      <trkpt lat="47.416598" lon="7.810554">
        <ele>469.297766</ele>
        <time>2021-11-14T20:28:18.530Z</time>
      </trkpt>
      <trkpt lat="47.416690" lon="7.810617">
        <ele>469.187659</ele>
        <time>2021-11-14T20:28:20.004Z</time>
      </trkpt>
      <trkpt lat="47.417067" lon="7.810695">
        <ele>468.774281</ele>
        <time>2021-11-14T20:28:26.399Z</time>
      </trkpt>
      <trkpt lat="47.417675" lon="7.810419">
        <ele>468.491944</ele>
        <time>2021-11-14T20:28:37.494Z</time>
      </trkpt>
      <trkpt lat="47.417743" lon="7.810418">
        <ele>468.462629</ele>
        <time>2021-11-14T20:28:38.457Z</time>
      </trkpt>
      <trkpt lat="47.417828" lon="7.810432">
        <ele>468.425760</ele>
        <time>2021-11-14T20:28:39.886Z</time>
      </trkpt>
      <trkpt lat="47.418377" lon="7.810720">
        <ele>468.174628</ele>
        <time>2021-11-14T20:28:49.467Z</time>
      </trkpt>
      <trkpt lat="47.418762" lon="7.810815">
        <ele>468.006364</ele>
        <time>2021-11-14T20:28:58.444Z</time>
      </trkpt>
      <trkpt lat="47.419015" lon="7.810884">
        <ele>468.894018</ele>
        <time>2021-11-14T20:29:06.254Z</time>
      </trkpt>
      <trkpt lat="47.419069" lon="7.810903">
        <ele>469.135767</ele>
        <time>2021-11-14T20:29:07.968Z</time>
      </trkpt>
      <trkpt lat="47.419134" lon="7.810926">
        <ele>469.426849</ele>
        <time>2021-11-14T20:29:09.354Z</time>
      </trkpt>
      <trkpt lat="47.419155" lon="7.810934">
        <ele>469.521296</ele>
        <time>2021-11-14T20:29:09.736Z</time>
      </trkpt>
      <trkpt lat="47.419414" lon="7.811078">
        <ele>470.726444</ele>
        <time>2021-11-14T20:29:22.771Z</time>
      </trkpt>
      <trkpt lat="47.419508" lon="7.811160">
        <ele>471.201817</ele>
        <time>2021-11-14T20:29:26.094Z</time>
      </trkpt>
      <trkpt lat="47.419632" lon="7.811270">
        <ele>471.831663</ele>
        <time>2021-11-14T20:29:33.791Z</time>
      </trkpt>
      <trkpt lat="47.419766" lon="7.811395">
        <ele>472.521771</ele>
        <time>2021-11-14T20:29:39.788Z</time>
      </trkpt>
      <trkpt lat="47.420135" lon="7.811734">
        <ele>474.413980</ele>
        <time>2021-11-14T20:29:57.047Z</time>
      </trkpt>
      <trkpt lat="47.420458" lon="7.811986">
        <ele>475.885686</ele>
        <time>2021-11-14T20:30:11.767Z</time>
      </trkpt>
      <trkpt lat="47.420607" lon="7.812071">
        <ele>476.136319</ele>
        <time>2021-11-14T20:30:20.292Z</time>
      </trkpt>
      <trkpt lat="47.420767" lon="7.812138">
        <ele>476.397283</ele>
        <time>2021-11-14T20:30:25.666Z</time>
      </trkpt>
      <trkpt lat="47.420870" lon="7.812170">
        <ele>476.562449</ele>
        <time>2021-11-14T20:30:30.521Z</time>
      </trkpt>
      <trkpt lat="47.421065" lon="7.812200">
        <ele>476.870108</ele>
        <time>2021-11-14T20:30:38.795Z</time>
      </trkpt>
      <trkpt lat="47.421065" lon="7.812200">
        <ele>476.870108</ele>
        <time>2021-11-14T20:30:38.808Z</time>
      </trkpt>
      <trkpt lat="47.421441" lon="7.812208">
        <ele>477.460210</ele>
        <time>2021-11-14T20:30:51.414Z</time>
      </trkpt>
      <trkpt lat="47.421893" lon="7.812157">
        <ele>478.171578</ele>
        <time>2021-11-14T20:30:59.566Z</time>
      </trkpt>
      <trkpt lat="47.422397" lon="7.812011">
        <ele>477.641291</ele>
        <time>2021-11-14T20:31:06.984Z</time>
      </trkpt>
      <trkpt lat="47.422720" lon="7.811867">
        <ele>476.067250</ele>
        <time>2021-11-14T20:31:11.402Z</time>
      </trkpt>
      <trkpt lat="47.422978" lon="7.811734">
        <ele>474.792419</ele>
        <time>2021-11-14T20:31:14.975Z</time>
      </trkpt>
      <trkpt lat="47.423172" lon="7.811608">
        <ele>473.803766</ele>
        <time>2021-11-14T20:31:17.826Z</time>
      </trkpt>
      <trkpt lat="47.423767" lon="7.811175">
        <ele>470.709512</ele>
        <time>2021-11-14T20:31:26.782Z</time>
      </trkpt>
      <trkpt lat="47.423941" lon="7.811048">
        <ele>469.982275</ele>
        <time>2021-11-14T20:31:29.414Z</time>
      </trkpt>
      <trkpt lat="47.424697" lon="7.810643">
        <ele>467.731235</ele>
        <time>2021-11-14T20:31:41.329Z</time>
      </trkpt>
      <trkpt lat="47.424871" lon="7.810565">
        <ele>467.222237</ele>
        <time>2021-11-14T20:31:44.216Z</time>
      </trkpt>
      <trkpt lat="47.425184" lon="7.810445">
        <ele>466.317039</ele>
        <time>2021-11-14T20:31:49.630Z</time>
      </trkpt>
      <trkpt lat="47.426541" lon="7.810106">
        <ele>460.623918</ele>
        <time>2021-11-14T20:32:10.484Z</time>
      </trkpt>
      <trkpt lat="47.427284" lon="7.809847">
        <ele>457.056719</ele>
        <time>2021-11-14T20:32:20.272Z</time>
      </trkpt>
      <trkpt lat="47.427626" lon="7.809699">
        <ele>454.543224</ele>
        <time>2021-11-14T20:32:24.753Z</time>
      </trkpt>
      <trkpt lat="47.428078" lon="7.809508">
        <ele>451.032386</ele>
        <time>2021-11-14T20:32:30.631Z</time>
      </trkpt>
      <trkpt lat="47.428531" lon="7.809311">
        <ele>447.505933</ele>
        <time>2021-11-14T20:32:36.572Z</time>
      </trkpt>
      <trkpt lat="47.428816" lon="7.809184">
        <ele>445.282893</ele>
        <time>2021-11-14T20:32:40.325Z</time>
      </trkpt>
      <trkpt lat="47.429678" lon="7.808980">
        <ele>440.891078</ele>
        <time>2021-11-14T20:32:51.785Z</time>
      </trkpt>
      <trkpt lat="47.430471" lon="7.809009">
        <ele>437.699066</ele>
        <time>2021-11-14T20:33:03.411Z</time>
      </trkpt>
      <trkpt lat="47.430630" lon="7.809037">
        <ele>437.054725</ele>
        <time>2021-11-14T20:33:05.975Z</time>
      </trkpt>
      <trkpt lat="47.430797" lon="7.809083">
        <ele>436.371149</ele>
        <time>2021-11-14T20:33:08.574Z</time>
      </trkpt>
      <trkpt lat="47.431419" lon="7.809325">
        <ele>434.805530</ele>
        <time>2021-11-14T20:33:18.503Z</time>
      </trkpt>
      <trkpt lat="47.432022" lon="7.809706">
        <ele>433.311866</ele>
        <time>2021-11-14T20:33:28.634Z</time>
      </trkpt>
      <trkpt lat="47.432174" lon="7.809836">
        <ele>432.911884</ele>
        <time>2021-11-14T20:33:31.308Z</time>
      </trkpt>
      <trkpt lat="47.432554" lon="7.810136">
        <ele>431.941308</ele>
        <time>2021-11-14T20:33:38.027Z</time>
      </trkpt>
      <trkpt lat="47.432928" lon="7.810342">
        <ele>431.118860</ele>
        <time>2021-11-14T20:33:44.308Z</time>
      </trkpt>
      <trkpt lat="47.433316" lon="7.810451">
        <ele>430.305011</ele>
        <time>2021-11-14T20:33:50.386Z</time>
      </trkpt>
      <trkpt lat="47.433643" lon="7.810504">
        <ele>429.627134</ele>
        <time>2021-11-14T20:33:55.540Z</time>
      </trkpt>
      <trkpt lat="47.433643" lon="7.810504">
        <ele>429.627134</ele>
        <time>2021-11-14T20:33:55.551Z</time>
      </trkpt>
      <trkpt lat="47.434093" lon="7.810572">
        <ele>428.695000</ele>
        <time>2021-11-14T20:34:02.736Z</time>
      </trkpt>
      <trkpt lat="47.434221" lon="7.810592">
        <ele>428.429765</ele>
        <time>2021-11-14T20:34:04.909Z</time>
      </trkpt>
      <trkpt lat="47.434532" lon="7.810638">
        <ele>427.856144</ele>
        <time>2021-11-14T20:34:09.923Z</time>
      </trkpt>
      <trkpt lat="47.434890" lon="7.810694">
        <ele>427.209263</ele>
        <time>2021-11-14T20:34:15.730Z</time>
      </trkpt>
      <trkpt lat="47.435107" lon="7.810718">
        <ele>426.818246</ele>
        <time>2021-11-14T20:34:19.133Z</time>
      </trkpt>
      <trkpt lat="47.435676" lon="7.810622">
        <ele>425.789173</ele>
        <time>2021-11-14T20:34:28.495Z</time>
      </trkpt>
      <trkpt lat="47.436034" lon="7.810517">
        <ele>425.133346</ele>
        <time>2021-11-14T20:34:34.324Z</time>
      </trkpt>
      <trkpt lat="47.436286" lon="7.810439">
        <ele>424.670578</ele>
        <time>2021-11-14T20:34:38.307Z</time>
      </trkpt>
      <trkpt lat="47.436714" lon="7.810307">
        <ele>423.884710</ele>
        <time>2021-11-14T20:34:45.234Z</time>
      </trkpt>
      <trkpt lat="47.436754" lon="7.810295">
        <ele>423.811347</ele>
        <time>2021-11-14T20:34:45.871Z</time>
      </trkpt>
      <trkpt lat="47.436910" lon="7.810231">
        <ele>423.520349</ele>
        <time>2021-11-14T20:34:48.447Z</time>
      </trkpt>
      <trkpt lat="47.436971" lon="7.810198">
        <ele>423.403595</ele>
        <time>2021-11-14T20:34:49.439Z</time>
      </trkpt>
      <trkpt lat="47.437405" lon="7.809871">
        <ele>422.528039</ele>
        <time>2021-11-14T20:34:57.270Z</time>
      </trkpt>
      <trkpt lat="47.437530" lon="7.809761">
        <ele>422.266569</ele>
        <time>2021-11-14T20:34:59.609Z</time>
      </trkpt>
      <trkpt lat="47.437880" lon="7.809448">
        <ele>421.954787</ele>
        <time>2021-11-14T20:35:06.100Z</time>
      </trkpt>
      <trkpt lat="47.438351" lon="7.809132">
        <ele>422.183744</ele>
        <time>2021-11-14T20:35:15.097Z</time>
      </trkpt>
      <trkpt lat="47.438917" lon="7.808920">
        <ele>422.442207</ele>
        <time>2021-11-14T20:35:28.374Z</time>
      </trkpt>
      <trkpt lat="47.439160" lon="7.808856">
        <ele>422.551467</ele>
        <time>2021-11-14T20:35:34.907Z</time>
      </trkpt>
      <trkpt lat="47.439256" lon="7.808836">
        <ele>422.594383</ele>
        <time>2021-11-14T20:35:37.919Z</time>
      </trkpt>
      <trkpt lat="47.439561" lon="7.808777">
        <ele>423.130149</ele>
        <time>2021-11-14T20:35:47.058Z</time>
      </trkpt>
      <trkpt lat="47.439717" lon="7.808754">
        <ele>423.638020</ele>
        <time>2021-11-14T20:35:53.080Z</time>
      </trkpt>
      <trkpt lat="47.440417" lon="7.808777">
        <ele>425.906242</ele>
        <time>2021-11-14T20:36:18.230Z</time>
      </trkpt>
      <trkpt lat="47.442177" lon="7.809333">
        <ele>429.465697</ele>
        <time>2021-11-14T20:37:16.310Z</time>
      </trkpt>
      <trkpt lat="47.442683" lon="7.809428">
        <ele>429.960858</ele>
        <time>2021-11-14T20:37:25.290Z</time>
      </trkpt>
      <trkpt lat="47.442919" lon="7.809465">
        <ele>430.191247</ele>
        <time>2021-11-14T20:37:29.009Z</time>
      </trkpt>
      <trkpt lat="47.443441" lon="7.809553">
        <ele>427.976583</ele>
        <time>2021-11-14T20:37:37.410Z</time>
      </trkpt>
      <trkpt lat="47.443720" lon="7.809596">
        <ele>426.639928</ele>
        <time>2021-11-14T20:37:41.349Z</time>
      </trkpt>
      <trkpt lat="47.443991" lon="7.809623">
        <ele>425.345668</ele>
        <time>2021-11-14T20:37:44.909Z</time>
      </trkpt>
      <trkpt lat="47.444386" lon="7.809626">
        <ele>423.463444</ele>
        <time>2021-11-14T20:37:50.025Z</time>
      </trkpt>
      <trkpt lat="47.445054" lon="7.809404">
        <ele>419.759013</ele>
        <time>2021-11-14T20:37:58.802Z</time>
      </trkpt>
      <trkpt lat="47.445120" lon="7.809369">
        <ele>419.324351</ele>
        <time>2021-11-14T20:37:59.704Z</time>
      </trkpt>
      <trkpt lat="47.445298" lon="7.809256">
        <ele>418.123503</ele>
        <time>2021-11-14T20:38:01.482Z</time>
      </trkpt>
      <trkpt lat="47.445880" lon="7.808843">
        <ele>414.121628</ele>
        <time>2021-11-14T20:38:07.501Z</time>
      </trkpt>
      <trkpt lat="47.446066" lon="7.808703">
        <ele>412.827797</ele>
        <time>2021-11-14T20:38:09.378Z</time>
      </trkpt>
      <trkpt lat="47.446096" lon="7.808680">
        <ele>412.618311</ele>
        <time>2021-11-14T20:38:09.713Z</time>
      </trkpt>
      <trkpt lat="47.446142" lon="7.808642">
        <ele>412.291666</ele>
        <time>2021-11-14T20:38:10.204Z</time>
      </trkpt>
      <trkpt lat="47.446375" lon="7.808453">
        <ele>410.644204</ele>
        <time>2021-11-14T20:38:12.580Z</time>
      </trkpt>
      <trkpt lat="47.446473" lon="7.808376">
        <ele>410.119296</ele>
        <time>2021-11-14T20:38:13.585Z</time>
      </trkpt>
      <trkpt lat="47.446662" lon="7.808234">
        <ele>409.185581</ele>
        <time>2021-11-14T20:38:15.484Z</time>
      </trkpt>
      <trkpt lat="47.447314" lon="7.807756">
        <ele>405.980367</ele>
        <time>2021-11-14T20:38:22.373Z</time>
      </trkpt>
      <trkpt lat="47.447388" lon="7.807704">
        <ele>405.619514</ele>
        <time>2021-11-14T20:38:23.136Z</time>
      </trkpt>
      <trkpt lat="47.447457" lon="7.807654">
        <ele>405.281084</ele>
        <time>2021-11-14T20:38:24.023Z</time>
      </trkpt>
      <trkpt lat="47.447633" lon="7.807562">
        <ele>404.458908</ele>
        <time>2021-11-14T20:38:26.033Z</time>
      </trkpt>
      <trkpt lat="47.447668" lon="7.807553">
        <ele>404.302442</ele>
        <time>2021-11-14T20:38:26.393Z</time>
      </trkpt>
      <trkpt lat="47.447689" lon="7.807548">
        <ele>404.208759</ele>
        <time>2021-11-14T20:38:26.581Z</time>
      </trkpt>
      <trkpt lat="47.447914" lon="7.807549">
        <ele>403.217772</ele>
        <time>2021-11-14T20:38:29.101Z</time>
      </trkpt>
      <trkpt lat="47.448245" lon="7.807740">
        <ele>402.084303</ele>
        <time>2021-11-14T20:38:32.827Z</time>
      </trkpt>
      <trkpt lat="47.448284" lon="7.807767">
        <ele>401.981261</ele>
        <time>2021-11-14T20:38:33.241Z</time>
      </trkpt>
      <trkpt lat="47.448442" lon="7.807881">
        <ele>401.560587</ele>
        <time>2021-11-14T20:38:35.050Z</time>
      </trkpt>
      <trkpt lat="47.448807" lon="7.808072">
        <ele>400.634124</ele>
        <time>2021-11-14T20:38:39.092Z</time>
      </trkpt>
      <trkpt lat="47.448903" lon="7.808078">
        <ele>400.404206</ele>
        <time>2021-11-14T20:38:40.152Z</time>
      </trkpt>
      <trkpt lat="47.449015" lon="7.808053">
        <ele>400.133171</ele>
        <time>2021-11-14T20:38:41.305Z</time>
      </trkpt>
      <trkpt lat="47.449267" lon="7.807971">
        <ele>399.515747</ele>
        <time>2021-11-14T20:38:44.082Z</time>
      </trkpt>
      <trkpt lat="47.449353" lon="7.807942">
        <ele>399.304679</ele>
        <time>2021-11-14T20:38:44.974Z</time>
      </trkpt>
      <trkpt lat="47.449829" lon="7.807782">
        <ele>398.194004</ele>
        <time>2021-11-14T20:38:50.467Z</time>
      </trkpt>
      <trkpt lat="47.449896" lon="7.807771">
        <ele>398.091637</ele>
        <time>2021-11-14T20:38:51.252Z</time>
      </trkpt>
      <trkpt lat="47.450005" lon="7.807761">
        <ele>397.925797</ele>
        <time>2021-11-14T20:38:52.458Z</time>
      </trkpt>
      <trkpt lat="47.451415" lon="7.807774">
        <ele>395.784613</ele>
        <time>2021-11-14T20:39:08.693Z</time>
      </trkpt>
      <trkpt lat="47.451791" lon="7.807759">
        <ele>395.240048</ele>
        <time>2021-11-14T20:39:13.158Z</time>
      </trkpt>
      <trkpt lat="47.451923" lon="7.807754">
        <ele>395.054830</ele>
        <time>2021-11-14T20:39:14.739Z</time>
      </trkpt>
      <trkpt lat="47.452253" lon="7.807773">
        <ele>394.591587</ele>
        <time>2021-11-14T20:39:18.686Z</time>
      </trkpt>
      <trkpt lat="47.452456" lon="7.807753">
        <ele>394.306206</ele>
        <time>2021-11-14T20:39:21.083Z</time>
      </trkpt>
      <trkpt lat="47.452556" lon="7.807739">
        <ele>394.165308</ele>
        <time>2021-11-14T20:39:22.183Z</time>
      </trkpt>
      <trkpt lat="47.452649" lon="7.807724">
        <ele>394.034083</ele>
        <time>2021-11-14T20:39:23.287Z</time>
      </trkpt>
      <trkpt lat="47.452830" lon="7.807686">
        <ele>393.777648</ele>
        <time>2021-11-14T20:39:25.432Z</time>
      </trkpt>
      <trkpt lat="47.453183" lon="7.807608">
        <ele>393.276996</ele>
        <time>2021-11-14T20:39:29.446Z</time>
      </trkpt>
      <trkpt lat="47.453371" lon="7.807571">
        <ele>393.010089</ele>
        <time>2021-11-14T20:39:31.569Z</time>
      </trkpt>
      <trkpt lat="47.453677" lon="7.807487">
        <ele>392.560111</ele>
        <time>2021-11-14T20:39:35.267Z</time>
      </trkpt>
      <trkpt lat="47.453815" lon="7.807438">
        <ele>392.354918</ele>
        <time>2021-11-14T20:39:36.998Z</time>
      </trkpt>
      <trkpt lat="47.453901" lon="7.807402">
        <ele>392.225692</ele>
        <time>2021-11-14T20:39:38.084Z</time>
      </trkpt>
      <trkpt lat="47.453985" lon="7.807368">
        <ele>392.099777</ele>
        <time>2021-11-14T20:39:39.062Z</time>
      </trkpt>
      <trkpt lat="47.454310" lon="7.807191">
        <ele>391.599037</ele>
        <time>2021-11-14T20:39:43.259Z</time>
      </trkpt>
      <trkpt lat="47.454428" lon="7.807128">
        <ele>391.417653</ele>
        <time>2021-11-14T20:39:44.723Z</time>
      </trkpt>
      <trkpt lat="47.454559" lon="7.807067">
        <ele>391.219084</ele>
        <time>2021-11-14T20:39:46.491Z</time>
      </trkpt>
      <trkpt lat="47.455379" lon="7.806783">
        <ele>389.848744</ele>
        <time>2021-11-14T20:39:55.834Z</time>
      </trkpt>
      <trkpt lat="47.456100" lon="7.806718">
        <ele>388.439814</ele>
        <time>2021-11-14T20:40:03.772Z</time>
      </trkpt>
      <trkpt lat="47.456331" lon="7.806727">
        <ele>387.989089</ele>
        <time>2021-11-14T20:40:06.368Z</time>
      </trkpt>
      <trkpt lat="47.456502" lon="7.806745">
        <ele>387.654708</ele>
        <time>2021-11-14T20:40:08.186Z</time>
      </trkpt>
      <trkpt lat="47.456988" lon="7.806840">
        <ele>386.698254</ele>
        <time>2021-11-14T20:40:13.596Z</time>
      </trkpt>
      <trkpt lat="47.457291" lon="7.806917">
        <ele>386.097915</ele>
        <time>2021-11-14T20:40:16.904Z</time>
      </trkpt>
      <trkpt lat="47.457326" lon="7.806926">
        <ele>386.028545</ele>
        <time>2021-11-14T20:40:17.314Z</time>
      </trkpt>
      <trkpt lat="47.457732" lon="7.807037">
        <ele>385.222316</ele>
        <time>2021-11-14T20:40:21.798Z</time>
      </trkpt>
      <trkpt lat="47.458181" lon="7.807191">
        <ele>384.322285</ele>
        <time>2021-11-14T20:40:26.846Z</time>
      </trkpt>
      <trkpt lat="47.458237" lon="7.807215">
        <ele>384.208436</ele>
        <time>2021-11-14T20:40:27.479Z</time>
      </trkpt>
      <trkpt lat="47.458342" lon="7.807254">
        <ele>383.997035</ele>
        <time>2021-11-14T20:40:28.685Z</time>
      </trkpt>
      <trkpt lat="47.458678" lon="7.807409">
        <ele>383.337327</ele>
        <time>2021-11-14T20:40:32.679Z</time>
      </trkpt>
      <trkpt lat="47.459007" lon="7.807577">
        <ele>382.830212</ele>
        <time>2021-11-14T20:40:36.782Z</time>
      </trkpt>
      <trkpt lat="47.459282" lon="7.807707">
        <ele>382.409572</ele>
        <time>2021-11-14T20:40:40.243Z</time>
      </trkpt>
      <trkpt lat="47.459423" lon="7.807775">
        <ele>382.193491</ele>
        <time>2021-11-14T20:40:41.966Z</time>
      </trkpt>
      <trkpt lat="47.459865" lon="7.807952">
        <ele>381.526315</ele>
        <time>2021-11-14T20:40:47.185Z</time>
      </trkpt>
      <trkpt lat="47.460078" lon="7.808023">
        <ele>381.208192</ele>
        <time>2021-11-14T20:40:49.750Z</time>
      </trkpt>
      <trkpt lat="47.460298" lon="7.808103">
        <ele>380.878109</ele>
        <time>2021-11-14T20:40:52.360Z</time>
      </trkpt>
      <trkpt lat="47.460439" lon="7.808155">
        <ele>380.664267</ele>
        <time>2021-11-14T20:40:54.040Z</time>
      </trkpt>
      <trkpt lat="47.460827" lon="7.808276">
        <ele>380.077220</ele>
        <time>2021-11-14T20:40:58.613Z</time>
      </trkpt>
      <trkpt lat="47.460870" lon="7.808289">
        <ele>380.012244</ele>
        <time>2021-11-14T20:40:59.085Z</time>
      </trkpt>
      <trkpt lat="47.460938" lon="7.808308">
        <ele>379.909792</ele>
        <time>2021-11-14T20:40:59.930Z</time>
      </trkpt>
      <trkpt lat="47.461296" lon="7.808372">
        <ele>379.375930</ele>
        <time>2021-11-14T20:41:04.140Z</time>
      </trkpt>
      <trkpt lat="47.461822" lon="7.808433">
        <ele>378.594819</ele>
        <time>2021-11-14T20:41:10.131Z</time>
      </trkpt>
      <trkpt lat="47.461997" lon="7.808450">
        <ele>378.335180</ele>
        <time>2021-11-14T20:41:12.099Z</time>
      </trkpt>
      <trkpt lat="47.462052" lon="7.808470">
        <ele>378.251330</ele>
        <time>2021-11-14T20:41:12.794Z</time>
      </trkpt>
      <trkpt lat="47.462087" lon="7.808494">
        <ele>378.194217</ele>
        <time>2021-11-14T20:41:13.273Z</time>
      </trkpt>
      <trkpt lat="47.462185" lon="7.808547">
        <ele>378.050431</ele>
        <time>2021-11-14T20:41:14.406Z</time>
      </trkpt>
      <trkpt lat="47.462879" lon="7.809121">
        <ele>377.005490</ele>
        <time>2021-11-14T20:41:23.915Z</time>
      </trkpt>
      <trkpt lat="47.462918" lon="7.809150">
        <ele>376.948125</ele>
        <time>2021-11-14T20:41:24.379Z</time>
      </trkpt>
      <trkpt lat="47.463007" lon="7.809215">
        <ele>376.817683</ele>
        <time>2021-11-14T20:41:25.672Z</time>
      </trkpt>
      <trkpt lat="47.463122" lon="7.809317">
        <ele>376.641464</ele>
        <time>2021-11-14T20:41:27.894Z</time>
      </trkpt>
      <trkpt lat="47.463347" lon="7.809533">
        <ele>376.288957</ele>
        <time>2021-11-14T20:41:32.513Z</time>
      </trkpt>
      <trkpt lat="47.463403" lon="7.809601">
        <ele>376.193741</ele>
        <time>2021-11-14T20:41:33.632Z</time>
      </trkpt>
      <trkpt lat="47.463603" lon="7.809961">
        <ele>375.779755</ele>
        <time>2021-11-14T20:41:38.897Z</time>
      </trkpt>
      <trkpt lat="47.463616" lon="7.809990">
        <ele>375.743539</ele>
        <time>2021-11-14T20:41:39.279Z</time>
      </trkpt>
      <trkpt lat="47.463652" lon="7.810060">
        <ele>375.646878</ele>
        <time>2021-11-14T20:41:40.294Z</time>
      </trkpt>
      <trkpt lat="47.463689" lon="7.810134">
        <ele>375.545726</ele>
        <time>2021-11-14T20:41:41.391Z</time>
      </trkpt>
      <trkpt lat="47.463753" lon="7.810251">
        <ele>375.380323</ele>
        <time>2021-11-14T20:41:43.048Z</time>
      </trkpt>
      <trkpt lat="47.463831" lon="7.810395">
        <ele>375.177535</ele>
        <time>2021-11-14T20:41:45.094Z</time>
      </trkpt>
      <trkpt lat="47.463886" lon="7.810514">
        <ele>375.019112</ele>
        <time>2021-11-14T20:41:46.693Z</time>
      </trkpt>
      <trkpt lat="47.463897" lon="7.810575">
        <ele>374.949728</ele>
        <time>2021-11-14T20:41:47.438Z</time>
      </trkpt>
      <trkpt lat="47.464200" lon="7.810621">
        <ele>374.454579</ele>
        <time>2021-11-14T20:41:50.852Z</time>
      </trkpt>
      <trkpt lat="47.464340" lon="7.810632">
        <ele>374.226671</ele>
        <time>2021-11-14T20:41:52.578Z</time>
      </trkpt>
      <trkpt lat="47.464364" lon="7.810630">
        <ele>374.187595</ele>
        <time>2021-11-14T20:41:52.823Z</time>
      </trkpt>
      <trkpt lat="47.464385" lon="7.810619">
        <ele>374.151379</ele>
        <time>2021-11-14T20:41:53.063Z</time>
      </trkpt>
      <trkpt lat="47.464417" lon="7.810573">
        <ele>374.078842</ele>
        <time>2021-11-14T20:41:53.608Z</time>
      </trkpt>
      <trkpt lat="47.464452" lon="7.810429">
        <ele>373.910669</ele>
        <time>2021-11-14T20:41:54.778Z</time>
      </trkpt>
      <trkpt lat="47.464496" lon="7.810462">
        <ele>373.830473</ele>
        <time>2021-11-14T20:41:55.313Z</time>
      </trkpt>
      <trkpt lat="47.464636" lon="7.810572">
        <ele>373.572772</ele>
        <time>2021-11-14T20:41:57.178Z</time>
      </trkpt>
      <trkpt lat="47.465087" lon="7.810791">
        <ele>372.817861</ele>
        <time>2021-11-14T20:42:02.498Z</time>
      </trkpt>
      <trkpt lat="47.465212" lon="7.810852">
        <ele>372.681434</ele>
        <time>2021-11-14T20:42:03.940Z</time>
      </trkpt>
      <trkpt lat="47.465394" lon="7.810939">
        <ele>372.483192</ele>
        <time>2021-11-14T20:42:06.020Z</time>
      </trkpt>
      <trkpt lat="47.465536" lon="7.811007">
        <ele>372.328493</ele>
        <time>2021-11-14T20:42:07.603Z</time>
      </trkpt>
      <trkpt lat="47.465656" lon="7.811068">
        <ele>372.196978</ele>
        <time>2021-11-14T20:42:08.988Z</time>
      </trkpt>
      <trkpt lat="47.465897" lon="7.811237">
        <ele>371.920542</ele>
        <time>2021-11-14T20:42:11.861Z</time>
      </trkpt>
      <trkpt lat="47.466010" lon="7.811328">
        <ele>371.787190</ele>
        <time>2021-11-14T20:42:13.422Z</time>
      </trkpt>
      <trkpt lat="47.466094" lon="7.811396">
        <ele>371.687942</ele>
        <time>2021-11-14T20:42:14.515Z</time>
      </trkpt>
      <trkpt lat="47.466196" lon="7.811499">
        <ele>371.559938</ele>
        <time>2021-11-14T20:42:16.013Z</time>
      </trkpt>
      <trkpt lat="47.466262" lon="7.811579">
        <ele>371.471498</ele>
        <time>2021-11-14T20:42:17.045Z</time>
      </trkpt>
      <trkpt lat="47.466315" lon="7.811646">
        <ele>371.399238</ele>
        <time>2021-11-14T20:42:17.929Z</time>
      </trkpt>
      <trkpt lat="47.466490" lon="7.811850">
        <ele>371.168305</ele>
        <time>2021-11-14T20:42:21.042Z</time>
      </trkpt>
      <trkpt lat="47.466578" lon="7.811937">
        <ele>371.058600</ele>
        <time>2021-11-14T20:42:22.742Z</time>
      </trkpt>
      <trkpt lat="47.466676" lon="7.812018">
        <ele>371.156747</ele>
        <time>2021-11-14T20:42:24.595Z</time>
      </trkpt>
      <trkpt lat="47.466796" lon="7.812117">
        <ele>371.762606</ele>
        <time>2021-11-14T20:42:27.673Z</time>
      </trkpt>
      <trkpt lat="47.467013" lon="7.812269">
        <ele>372.821302</ele>
        <time>2021-11-14T20:42:33.196Z</time>
      </trkpt>
      <trkpt lat="47.467077" lon="7.812317">
        <ele>373.137703</ele>
        <time>2021-11-14T20:42:34.621Z</time>
      </trkpt>
      <trkpt lat="47.467146" lon="7.812375">
        <ele>373.487643</ele>
        <time>2021-11-14T20:42:37.144Z</time>
      </trkpt>
      <trkpt lat="47.467426" lon="7.812608">
        <ele>374.904223</ele>
        <time>2021-11-14T20:42:45.398Z</time>
      </trkpt>
      <trkpt lat="47.467739" lon="7.812865">
        <ele>376.482723</ele>
        <time>2021-11-14T20:42:57.961Z</time>
      </trkpt>
      <trkpt lat="47.467746" lon="7.812871">
        <ele>376.518396</ele>
        <time>2021-11-14T20:42:58.824Z</time>
      </trkpt>
      <trkpt lat="47.467857" lon="7.812969">
        <ele>377.088386</ele>
        <time>2021-11-14T20:43:03.337Z</time>
      </trkpt>
      <trkpt lat="47.467958" lon="7.813047">
        <ele>377.590775</ele>
        <time>2021-11-14T20:43:08.514Z</time>
      </trkpt>
      <trkpt lat="47.467986" lon="7.813069">
        <ele>377.730573</ele>
        <time>2021-11-14T20:43:09.306Z</time>
      </trkpt>
      <trkpt lat="47.468087" lon="7.813122">
        <ele>378.203115</ele>
        <time>2021-11-14T20:43:13.290Z</time>
      </trkpt>
      <trkpt lat="47.468231" lon="7.813117">
        <ele>378.838245</ele>
        <time>2021-11-14T20:43:19.959Z</time>
      </trkpt>
      <trkpt lat="47.468898" lon="7.813028">
        <ele>385.108794</ele>
        <time>2021-11-14T20:43:57.640Z</time>
      </trkpt>
      <trkpt lat="47.468968" lon="7.813033">
        <ele>385.774120</ele>
        <time>2021-11-14T20:44:02.482Z</time>
      </trkpt>
      <trkpt lat="47.469261" lon="7.813214">
        <ele>388.788534</ele>
        <time>2021-11-14T20:44:20.803Z</time>
      </trkpt>
      <trkpt lat="47.469382" lon="7.813432">
        <ele>390.598735</ele>
        <time>2021-11-14T20:44:31.067Z</time>
      </trkpt>
      <trkpt lat="47.469445" lon="7.813683">
        <ele>392.316986</ele>
        <time>2021-11-14T20:44:41.545Z</time>
      </trkpt>
      <trkpt lat="47.469471" lon="7.813955">
        <ele>394.079915</ele>
        <time>2021-11-14T20:44:50.454Z</time>
      </trkpt>
      <trkpt lat="47.469477" lon="7.814056">
        <ele>394.730581</ele>
        <time>2021-11-14T20:44:55.381Z</time>
      </trkpt>
      <trkpt lat="47.469564" lon="7.814419">
        <ele>396.767194</ele>
        <time>2021-11-14T20:45:05.981Z</time>
      </trkpt>
      <trkpt lat="47.469608" lon="7.814504">
        <ele>397.207763</ele>
        <time>2021-11-14T20:45:11.085Z</time>
      </trkpt>
      <trkpt lat="47.469647" lon="7.814557">
        <ele>397.530156</ele>
        <time>2021-11-14T20:45:13.526Z</time>
      </trkpt>
      <trkpt lat="47.469960" lon="7.814754">
        <ele>399.600891</ele>
        <time>2021-11-14T20:45:29.543Z</time>
      </trkpt>
      <trkpt lat="47.470163" lon="7.814758">
        <ele>400.836803</ele>
        <time>2021-11-14T20:45:35.417Z</time>
      </trkpt>
      <trkpt lat="47.470596" lon="7.814760">
        <ele>403.472787</ele>
        <time>2021-11-14T20:45:51.929Z</time>
      </trkpt>
      <trkpt lat="47.470838" lon="7.814669">
        <ele>404.992857</ele>
        <time>2021-11-14T20:46:00.581Z</time>
      </trkpt>
      <trkpt lat="47.470969" lon="7.814299">
        <ele>406.711641</ele>
        <time>2021-11-14T20:46:10.182Z</time>
      </trkpt>
      <trkpt lat="47.470938" lon="7.813871">
        <ele>408.400988</ele>
        <time>2021-11-14T20:46:18.283Z</time>
      </trkpt>
      <trkpt lat="47.470607" lon="7.813259">
        <ele>411.455042</ele>
        <time>2021-11-14T20:46:33.714Z</time>
      </trkpt>
      <trkpt lat="47.470614" lon="7.813052">
        <ele>412.262638</ele>
        <time>2021-11-14T20:46:39.086Z</time>
      </trkpt>
      <trkpt lat="47.470744" lon="7.812887">
        <ele>413.250017</ele>
        <time>2021-11-14T20:46:44.136Z</time>
      </trkpt>
      <trkpt lat="47.470794" lon="7.812878">
        <ele>413.540363</ele>
        <time>2021-11-14T20:46:46.142Z</time>
      </trkpt>
      <trkpt lat="47.470835" lon="7.812891">
        <ele>413.782071</ele>
        <time>2021-11-14T20:46:48.898Z</time>
      </trkpt>
      <trkpt lat="47.470923" lon="7.812993">
        <ele>414.426497</ele>
        <time>2021-11-14T20:46:52.446Z</time>
      </trkpt>
      <trkpt lat="47.471093" lon="7.813407">
        <ele>416.313979</ele>
        <time>2021-11-14T20:47:05.340Z</time>
      </trkpt>
      <trkpt lat="47.472320" lon="7.814860">
        <ele>432.520714</ele>
        <time>2021-11-14T20:48:37.062Z</time>
      </trkpt>
      <trkpt lat="47.472505" lon="7.815033">
        <ele>434.900098</ele>
        <time>2021-11-14T20:48:50.492Z</time>
      </trkpt>
      <trkpt lat="47.472623" lon="7.815140">
        <ele>436.404764</ele>
        <time>2021-11-14T20:48:59.986Z</time>
      </trkpt>
      <trkpt lat="47.473230" lon="7.815705">
        <ele>445.278042</ele>
        <time>2021-11-14T20:49:46.116Z</time>
      </trkpt>
      <trkpt lat="47.473743" lon="7.816298">
        <ele>453.394009</ele>
        <time>2021-11-14T20:50:33.992Z</time>
      </trkpt>
      <trkpt lat="47.473783" lon="7.816371">
        <ele>454.185871</ele>
        <time>2021-11-14T20:50:38.257Z</time>
      </trkpt>
      <trkpt lat="47.473926" lon="7.816632">
        <ele>457.016938</ele>
        <time>2021-11-14T20:50:52.914Z</time>
      </trkpt>
      <trkpt lat="47.474182" lon="7.817417">
        <ele>462.987559</ele>
        <time>2021-11-14T20:51:21.580Z</time>
      </trkpt>
      <trkpt lat="47.474210" lon="7.817475">
        <ele>463.425631</ele>
        <time>2021-11-14T20:51:26.582Z</time>
      </trkpt>
      <trkpt lat="47.474233" lon="7.817507">
        <ele>463.712728</ele>
        <time>2021-11-14T20:51:28.910Z</time>
      </trkpt>
      <trkpt lat="47.474389" lon="7.817613">
        <ele>465.273726</ele>
        <time>2021-11-14T20:51:35.691Z</time>
      </trkpt>
      <trkpt lat="47.474555" lon="7.817587">
        <ele>466.791632</ele>
        <time>2021-11-14T20:51:45.144Z</time>
      </trkpt>
      <trkpt lat="47.474613" lon="7.817546">
        <ele>467.376148</ele>
        <time>2021-11-14T20:51:48.797Z</time>
      </trkpt>
      <trkpt lat="47.474641" lon="7.817509">
        <ele>467.717530</ele>
        <time>2021-11-14T20:51:49.540Z</time>
      </trkpt>
      <trkpt lat="47.474739" lon="7.817281">
        <ele>469.378217</ele>
        <time>2021-11-14T20:51:56.124Z</time>
      </trkpt>
      <trkpt lat="47.474739" lon="7.816928">
        <ele>471.547837</ele>
        <time>2021-11-14T20:52:07.965Z</time>
      </trkpt>
      <trkpt lat="47.474616" lon="7.816226">
        <ele>476.071356</ele>
        <time>2021-11-14T20:52:32.860Z</time>
      </trkpt>
      <trkpt lat="47.474375" lon="7.815394">
        <ele>482.643936</ele>
        <time>2021-11-14T20:53:06.718Z</time>
      </trkpt>
      <trkpt lat="47.474430" lon="7.815154">
        <ele>484.484031</ele>
        <time>2021-11-14T20:53:16.502Z</time>
      </trkpt>
      <trkpt lat="47.474584" lon="7.814993">
        <ele>486.509741</ele>
        <time>2021-11-14T20:53:26.583Z</time>
      </trkpt>
      <trkpt lat="47.474804" lon="7.814845">
        <ele>489.105945</ele>
        <time>2021-11-14T20:53:42.585Z</time>
      </trkpt>
      <trkpt lat="47.474961" lon="7.814741">
        <ele>490.953858</ele>
        <time>2021-11-14T20:53:52.391Z</time>
      </trkpt>
      <trkpt lat="47.475210" lon="7.814595">
        <ele>493.831155</ele>
        <time>2021-11-14T20:54:09.404Z</time>
      </trkpt>
      <trkpt lat="47.475276" lon="7.814567">
        <ele>494.568734</ele>
        <time>2021-11-14T20:54:13.418Z</time>
      </trkpt>
      <trkpt lat="47.475471" lon="7.814482">
        <ele>496.787346</ele>
        <time>2021-11-14T20:54:26.580Z</time>
      </trkpt>
      <trkpt lat="47.475705" lon="7.814474">
        <ele>499.350621</ele>
        <time>2021-11-14T20:54:40.392Z</time>
      </trkpt>
      <trkpt lat="47.476077" lon="7.814575">
        <ele>503.492512</ele>
        <time>2021-11-14T20:55:04.944Z</time>
      </trkpt>
      <trkpt lat="47.476150" lon="7.814569">
        <ele>504.293185</ele>
        <time>2021-11-14T20:55:11.269Z</time>
      </trkpt>
      <trkpt lat="47.476204" lon="7.814552">
        <ele>504.897792</ele>
        <time>2021-11-14T20:55:14.588Z</time>
      </trkpt>
      <trkpt lat="47.476334" lon="7.814450">
        <ele>506.509259</ele>
        <time>2021-11-14T20:55:23.904Z</time>
      </trkpt>
      <trkpt lat="47.476534" lon="7.814226">
        <ele>509.256297</ele>
        <time>2021-11-14T20:55:38.315Z</time>
      </trkpt>
      <trkpt lat="47.476563" lon="7.814189">
        <ele>509.675660</ele>
        <time>2021-11-14T20:55:40.221Z</time>
      </trkpt>
      <trkpt lat="47.476884" lon="7.813858">
        <ele>513.960542</ele>
        <time>2021-11-14T20:55:59.574Z</time>
      </trkpt>
      <trkpt lat="47.476980" lon="7.813791">
        <ele>515.005236</ele>
        <time>2021-11-14T20:56:05.011Z</time>
      </trkpt>
      <trkpt lat="47.477155" lon="7.813696">
        <ele>516.528455</ele>
        <time>2021-11-14T20:56:13.342Z</time>
      </trkpt>
      <trkpt lat="47.477516" lon="7.813359">
        <ele>520.016438</ele>
        <time>2021-11-14T20:56:32.561Z</time>
      </trkpt>
      <trkpt lat="47.477546" lon="7.813318">
        <ele>520.350160</ele>
        <time>2021-11-14T20:56:35.895Z</time>
      </trkpt>
      <trkpt lat="47.477609" lon="7.813223">
        <ele>521.085214</ele>
        <time>2021-11-14T20:56:39.571Z</time>
      </trkpt>
      <trkpt lat="47.478172" lon="7.812240">
        <ele>528.201299</ele>
        <time>2021-11-14T20:57:18.801Z</time>
      </trkpt>
      <trkpt lat="47.478216" lon="7.812137">
        <ele>528.874251</ele>
        <time>2021-11-14T20:57:22.643Z</time>
      </trkpt>
      <trkpt lat="47.478245" lon="7.812069">
        <ele>529.318318</ele>
        <time>2021-11-14T20:57:27.276Z</time>
      </trkpt>
      <trkpt lat="47.478262" lon="7.811831">
        <ele>531.195361</ele>
        <time>2021-11-14T20:57:33.810Z</time>
      </trkpt>
      <trkpt lat="47.478204" lon="7.811401">
        <ele>534.664805</ele>
        <time>2021-11-14T20:57:49.573Z</time>
      </trkpt>
      <trkpt lat="47.478231" lon="7.811139">
        <ele>536.761825</ele>
        <time>2021-11-14T20:57:57.699Z</time>
      </trkpt>
      <trkpt lat="47.478335" lon="7.810955">
        <ele>538.659717</ele>
        <time>2021-11-14T20:58:07.489Z</time>
      </trkpt>
      <trkpt lat="47.478566" lon="7.810790">
        <ele>541.662689</ele>
        <time>2021-11-14T20:58:25.936Z</time>
      </trkpt>
      <trkpt lat="47.478809" lon="7.810763">
        <ele>544.515511</ele>
        <time>2021-11-14T20:58:41.592Z</time>
      </trkpt>
      <trkpt lat="47.478943" lon="7.810849">
        <ele>546.225478</ele>
        <time>2021-11-14T20:58:54.691Z</time>
      </trkpt>
      <trkpt lat="47.479473" lon="7.811584">
        <ele>554.778707</ele>
        <time>2021-11-14T20:59:44.282Z</time>
      </trkpt>
      <trkpt lat="47.479687" lon="7.811839">
        <ele>558.032077</ele>
        <time>2021-11-14T21:00:01.348Z</time>
      </trkpt>
      <trkpt lat="47.479735" lon="7.811893">
        <ele>558.746039</ele>
        <time>2021-11-14T21:00:07.118Z</time>
      </trkpt>
      <trkpt lat="47.480713" lon="7.812994">
        <ele>572.710587</ele>
        <time>2021-11-14T21:01:20.269Z</time>
      </trkpt>
      <trkpt lat="47.480872" lon="7.813093">
        <ele>573.998639</ele>
        <time>2021-11-14T21:01:30.167Z</time>
      </trkpt>
      <trkpt lat="47.481456" lon="7.813058">
        <ele>578.362818</ele>
        <time>2021-11-14T21:01:53.472Z</time>
      </trkpt>
      <trkpt lat="47.481920" lon="7.813196">
        <ele>581.896701</ele>
        <time>2021-11-14T21:02:10.481Z</time>
      </trkpt>
      <trkpt lat="47.482097" lon="7.813263">
        <ele>583.260883</ele>
        <time>2021-11-14T21:02:17.047Z</time>
      </trkpt>
      <trkpt lat="47.482420" lon="7.813239">
        <ele>585.782085</ele>
        <time>2021-11-14T21:02:31.378Z</time>
      </trkpt>
      <trkpt lat="47.482949" lon="7.813114">
        <ele>590.576783</ele>
        <time>2021-11-14T21:02:58.557Z</time>
      </trkpt>
      <trkpt lat="47.483220" lon="7.813099">
        <ele>593.004010</ele>
        <time>2021-11-14T21:03:14.431Z</time>
      </trkpt>
      <trkpt lat="47.483493" lon="7.813178">
        <ele>595.493726</ele>
        <time>2021-11-14T21:03:27.863Z</time>
      </trkpt>
      <trkpt lat="47.483708" lon="7.813293">
        <ele>597.539901</ele>
        <time>2021-11-14T21:03:40.882Z</time>
      </trkpt>
      <trkpt lat="47.483804" lon="7.813389">
        <ele>598.576939</ele>
        <time>2021-11-14T21:03:46.462Z</time>
      </trkpt>
      <trkpt lat="47.483867" lon="7.813452">
        <ele>599.257494</ele>
        <time>2021-11-14T21:03:53.319Z</time>
      </trkpt>
      <trkpt lat="47.484375" lon="7.813958">
        <ele>603.607032</ele>
        <time>2021-11-14T21:04:20.647Z</time>
      </trkpt>
      <trkpt lat="47.484474" lon="7.814023">
        <ele>604.263052</ele>
        <time>2021-11-14T21:04:28.992Z</time>
      </trkpt>
      <trkpt lat="47.484558" lon="7.814061">
        <ele>604.795086</ele>
        <time>2021-11-14T21:04:34.225Z</time>
      </trkpt>
      <trkpt lat="47.484689" lon="7.814083">
        <ele>605.593648</ele>
        <time>2021-11-14T21:04:41.404Z</time>
      </trkpt>
      <trkpt lat="47.484732" lon="7.814081">
        <ele>605.854228</ele>
        <time>2021-11-14T21:04:44.282Z</time>
      </trkpt>
      <trkpt lat="47.484810" lon="7.814067">
        <ele>606.330138</ele>
        <time>2021-11-14T21:04:50.295Z</time>
      </trkpt>
      <trkpt lat="47.485144" lon="7.813866">
        <ele>608.514078</ele>
        <time>2021-11-14T21:05:06.419Z</time>
      </trkpt>
      <trkpt lat="47.485925" lon="7.813196">
        <ele>611.618721</ele>
        <time>2021-11-14T21:05:26.636Z</time>
      </trkpt>
      <trkpt lat="47.486531" lon="7.812839">
        <ele>610.519903</ele>
        <time>2021-11-14T21:05:34.025Z</time>
      </trkpt>
      <trkpt lat="47.486782" lon="7.812718">
        <ele>610.075186</ele>
        <time>2021-11-14T21:05:36.751Z</time>
      </trkpt>
      <trkpt lat="47.488525" lon="7.812197">
        <ele>604.793457</ele>
        <time>2021-11-14T21:05:54.288Z</time>
      </trkpt>
      <trkpt lat="47.488654" lon="7.812154">
        <ele>604.319006</ele>
        <time>2021-11-14T21:05:55.559Z</time>
      </trkpt>
      <trkpt lat="47.489734" lon="7.811930">
        <ele>599.427125</ele>
        <time>2021-11-14T21:06:06.771Z</time>
      </trkpt>
      <trkpt lat="47.490230" lon="7.811766">
        <ele>596.807820</ele>
        <time>2021-11-14T21:06:11.513Z</time>
      </trkpt>
      <trkpt lat="47.490608" lon="7.811558">
        <ele>594.729379</ele>
        <time>2021-11-14T21:06:15.255Z</time>
      </trkpt>
      <trkpt lat="47.490921" lon="7.811332">
        <ele>592.535035</ele>
        <time>2021-11-14T21:06:18.350Z</time>
      </trkpt>
      <trkpt lat="47.491099" lon="7.811167">
        <ele>590.480969</ele>
        <time>2021-11-14T21:06:20.229Z</time>
      </trkpt>
      <trkpt lat="47.491168" lon="7.811103">
        <ele>589.684592</ele>
        <time>2021-11-14T21:06:20.963Z</time>
      </trkpt>
      <trkpt lat="47.491210" lon="7.811067">
        <ele>589.209928</ele>
        <time>2021-11-14T21:06:21.359Z</time>
      </trkpt>
      <trkpt lat="47.491305" lon="7.811022">
        <ele>588.234429</ele>
        <time>2021-11-14T21:06:22.203Z</time>
      </trkpt>
      <trkpt lat="47.491356" lon="7.811021">
        <ele>587.735622</ele>
        <time>2021-11-14T21:06:22.677Z</time>
      </trkpt>
      <trkpt lat="47.491417" lon="7.811033">
        <ele>587.133814</ele>
        <time>2021-11-14T21:06:23.236Z</time>
      </trkpt>
      <trkpt lat="47.491536" lon="7.811112">
        <ele>585.858308</ele>
        <time>2021-11-14T21:06:24.360Z</time>
      </trkpt>
      <trkpt lat="47.491701" lon="7.811206">
        <ele>584.129233</ele>
        <time>2021-11-14T21:06:25.855Z</time>
      </trkpt>
      <trkpt lat="47.492165" lon="7.811273">
        <ele>579.569914</ele>
        <time>2021-11-14T21:06:29.870Z</time>
      </trkpt>
      <trkpt lat="47.492224" lon="7.811327">
        <ele>578.891489</ele>
        <time>2021-11-14T21:06:30.468Z</time>
      </trkpt>
      <trkpt lat="47.492257" lon="7.811384">
        <ele>578.395479</ele>
        <time>2021-11-14T21:06:30.881Z</time>
      </trkpt>
      <trkpt lat="47.492273" lon="7.811452">
        <ele>577.919668</ele>
        <time>2021-11-14T21:06:31.286Z</time>
      </trkpt>
      <trkpt lat="47.492264" lon="7.811614">
        <ele>576.845555</ele>
        <time>2021-11-14T21:06:32.286Z</time>
      </trkpt>
      <trkpt lat="47.492176" lon="7.811763">
        <ele>575.510241</ele>
        <time>2021-11-14T21:06:33.454Z</time>
      </trkpt>
      <trkpt lat="47.492132" lon="7.811800">
        <ele>574.960992</ele>
        <time>2021-11-14T21:06:33.868Z</time>
      </trkpt>
      <trkpt lat="47.492008" lon="7.811905">
        <ele>573.410466</ele>
        <time>2021-11-14T21:06:35.094Z</time>
      </trkpt>
      <trkpt lat="47.491595" lon="7.812210">
        <ele>568.400973</ele>
        <time>2021-11-14T21:06:39.084Z</time>
      </trkpt>
      <trkpt lat="47.491212" lon="7.812513">
        <ele>563.687507</ele>
        <time>2021-11-14T21:06:42.784Z</time>
      </trkpt>
      <trkpt lat="47.491001" lon="7.812847">
        <ele>560.334293</ele>
        <time>2021-11-14T21:06:45.392Z</time>
      </trkpt>
      <trkpt lat="47.490928" lon="7.813010">
        <ele>558.900183</ele>
        <time>2021-11-14T21:06:46.489Z</time>
      </trkpt>
      <trkpt lat="47.490609" lon="7.813824">
        <ele>552.119432</ele>
        <time>2021-11-14T21:06:52.050Z</time>
      </trkpt>
      <trkpt lat="47.490583" lon="7.813886">
        <ele>551.599363</ele>
        <time>2021-11-14T21:06:52.446Z</time>
      </trkpt>
      <trkpt lat="47.490141" lon="7.814910">
        <ele>542.939107</ele>
        <time>2021-11-14T21:06:59.470Z</time>
      </trkpt>
      <trkpt lat="47.489951" lon="7.815143">
        <ele>540.336407</ele>
        <time>2021-11-14T21:07:01.566Z</time>
      </trkpt>
      <trkpt lat="47.489256" lon="7.815700">
        <ele>532.840898</ele>
        <time>2021-11-14T21:07:08.397Z</time>
      </trkpt>
      <trkpt lat="47.489000" lon="7.816098">
        <ele>529.546408</ele>
        <time>2021-11-14T21:07:11.660Z</time>
      </trkpt>
      <trkpt lat="47.488831" lon="7.816489">
        <ele>526.763558</ele>
        <time>2021-11-14T21:07:14.369Z</time>
      </trkpt>
      <trkpt lat="47.488720" lon="7.816914">
        <ele>524.031691</ele>
        <time>2021-11-14T21:07:17.047Z</time>
      </trkpt>
      <trkpt lat="47.488531" lon="7.818236">
        <ele>518.050843</ele>
        <time>2021-11-14T21:07:25.218Z</time>
      </trkpt>
      <trkpt lat="47.488476" lon="7.818598">
        <ele>516.698728</ele>
        <time>2021-11-14T21:07:27.537Z</time>
      </trkpt>
      <trkpt lat="47.488471" lon="7.818631">
        <ele>516.575485</ele>
        <time>2021-11-14T21:07:27.739Z</time>
      </trkpt>
      <trkpt lat="47.488351" lon="7.819266">
        <ele>514.172661</ele>
        <time>2021-11-14T21:07:32.048Z</time>
      </trkpt>
      <trkpt lat="47.488069" lon="7.819771">
        <ele>511.785298</ele>
        <time>2021-11-14T21:07:36.391Z</time>
      </trkpt>
      <trkpt lat="47.488038" lon="7.819855">
        <ele>511.429502</ele>
        <time>2021-11-14T21:07:37.032Z</time>
      </trkpt>
      <trkpt lat="47.488034" lon="7.819897">
        <ele>511.269550</ele>
        <time>2021-11-14T21:07:37.512Z</time>
      </trkpt>
      <trkpt lat="47.488272" lon="7.820957">
        <ele>507.057307</ele>
        <time>2021-11-14T21:07:45.279Z</time>
      </trkpt>
      <trkpt lat="47.488407" lon="7.821368">
        <ele>505.333988</ele>
        <time>2021-11-14T21:07:48.097Z</time>
      </trkpt>
      <trkpt lat="47.488631" lon="7.821707">
        <ele>503.545984</ele>
        <time>2021-11-14T21:07:50.975Z</time>
      </trkpt>
      <trkpt lat="47.489169" lon="7.822169">
        <ele>498.436433</ele>
        <time>2021-11-14T21:07:56.453Z</time>
      </trkpt>
      <trkpt lat="47.489263" lon="7.822249">
        <ele>497.181376</ele>
        <time>2021-11-14T21:07:57.371Z</time>
      </trkpt>
      <trkpt lat="47.489383" lon="7.822351">
        <ele>495.579674</ele>
        <time>2021-11-14T21:07:58.591Z</time>
      </trkpt>
      <trkpt lat="47.489514" lon="7.822403">
        <ele>494.009858</ele>
        <time>2021-11-14T21:07:59.726Z</time>
      </trkpt>
      <trkpt lat="47.489808" lon="7.822489">
        <ele>490.541205</ele>
        <time>2021-11-14T21:08:02.273Z</time>
      </trkpt>
      <trkpt lat="47.490467" lon="7.822385">
        <ele>482.870559</ele>
        <time>2021-11-14T21:08:07.848Z</time>
      </trkpt>
      <trkpt lat="47.490703" lon="7.822453">
        <ele>480.052907</ele>
        <time>2021-11-14T21:08:09.845Z</time>
      </trkpt>
      <trkpt lat="47.491130" lon="7.822694">
        <ele>474.498104</ele>
        <time>2021-11-14T21:08:13.646Z</time>
      </trkpt>
      <trkpt lat="47.492112" lon="7.823401">
        <ele>461.224458</ele>
        <time>2021-11-14T21:08:22.920Z</time>
      </trkpt>
      <trkpt lat="47.492353" lon="7.823575">
        <ele>458.267023</ele>
        <time>2021-11-14T21:08:25.196Z</time>
      </trkpt>
      <trkpt lat="47.492649" lon="7.823801">
        <ele>455.498821</ele>
        <time>2021-11-14T21:08:28.064Z</time>
      </trkpt>
      <trkpt lat="47.492910" lon="7.823929">
        <ele>453.213603</ele>
        <time>2021-11-14T21:08:30.457Z</time>
      </trkpt>
      <trkpt lat="47.493041" lon="7.823859">
        <ele>452.056045</ele>
        <time>2021-11-14T21:08:31.690Z</time>
      </trkpt>
      <trkpt lat="47.493084" lon="7.823708">
        <ele>451.135840</ele>
        <time>2021-11-14T21:08:32.708Z</time>
      </trkpt>
      <trkpt lat="47.493025" lon="7.823293">
        <ele>448.754292</ele>
        <time>2021-11-14T21:08:35.221Z</time>
      </trkpt>
      <trkpt lat="47.493047" lon="7.823163">
        <ele>448.001700</ele>
        <time>2021-11-14T21:08:36.050Z</time>
      </trkpt>
      <trkpt lat="47.493066" lon="7.823134">
        <ele>447.774856</ele>
        <time>2021-11-14T21:08:36.299Z</time>
      </trkpt>
      <trkpt lat="47.493081" lon="7.823112">
        <ele>447.599341</ele>
        <time>2021-11-14T21:08:36.469Z</time>
      </trkpt>
      <trkpt lat="47.493228" lon="7.823059">
        <ele>446.341864</ele>
        <time>2021-11-14T21:08:37.810Z</time>
      </trkpt>
      <trkpt lat="47.493316" lon="7.823106">
        <ele>445.564311</ele>
        <time>2021-11-14T21:08:38.724Z</time>
      </trkpt>
      <trkpt lat="47.493409" lon="7.823156">
        <ele>444.741950</ele>
        <time>2021-11-14T21:08:39.667Z</time>
      </trkpt>
      <trkpt lat="47.493592" lon="7.823360">
        <ele>443.487323</ele>
        <time>2021-11-14T21:08:41.769Z</time>
      </trkpt>
      <trkpt lat="47.493696" lon="7.823573">
        <ele>442.857466</ele>
        <time>2021-11-14T21:08:43.400Z</time>
      </trkpt>
      <trkpt lat="47.493699" lon="7.823782">
        <ele>442.356428</ele>
        <time>2021-11-14T21:08:44.783Z</time>
      </trkpt>
      <trkpt lat="47.493509" lon="7.824560">
        <ele>440.373673</ele>
        <time>2021-11-14T21:08:50.081Z</time>
      </trkpt>
      <trkpt lat="47.493537" lon="7.824674">
        <ele>440.082948</ele>
        <time>2021-11-14T21:08:50.862Z</time>
      </trkpt>
      <trkpt lat="47.493647" lon="7.824596">
        <ele>439.650278</ele>
        <time>2021-11-14T21:08:52.123Z</time>
      </trkpt>
      <trkpt lat="47.493875" lon="7.824391">
        <ele>438.703957</ele>
        <time>2021-11-14T21:08:55.297Z</time>
      </trkpt>
      <trkpt lat="47.493969" lon="7.824265">
        <ele>438.254088</ele>
        <time>2021-11-14T21:08:56.727Z</time>
      </trkpt>
      <trkpt lat="47.494072" lon="7.824126">
        <ele>437.759639</ele>
        <time>2021-11-14T21:08:59.142Z</time>
      </trkpt>
      <trkpt lat="47.494316" lon="7.823809">
        <ele>437.699303</ele>
        <time>2021-11-14T21:09:04.006Z</time>
      </trkpt>
      <trkpt lat="47.494522" lon="7.823673">
        <ele>437.787715</ele>
        <time>2021-11-14T21:09:06.862Z</time>
      </trkpt>
      <trkpt lat="47.494652" lon="7.823597">
        <ele>437.842501</ele>
        <time>2021-11-14T21:09:10.296Z</time>
      </trkpt>
      <trkpt lat="47.494910" lon="7.823403">
        <ele>437.955929</ele>
        <time>2021-11-14T21:09:14.771Z</time>
      </trkpt>
      <trkpt lat="47.494984" lon="7.823371">
        <ele>437.986147</ele>
        <time>2021-11-14T21:09:16.851Z</time>
      </trkpt>
      <trkpt lat="47.495379" lon="7.823313">
        <ele>438.141730</ele>
        <time>2021-11-14T21:09:23.889Z</time>
      </trkpt>
      <trkpt lat="47.495577" lon="7.823253">
        <ele>438.220948</ele>
        <time>2021-11-14T21:09:27.283Z</time>
      </trkpt>
      <trkpt lat="47.495873" lon="7.823177">
        <ele>438.147572</ele>
        <time>2021-11-14T21:09:32.380Z</time>
      </trkpt>
      <trkpt lat="47.496106" lon="7.823142">
        <ele>437.831312</ele>
        <time>2021-11-14T21:09:36.684Z</time>
      </trkpt>
      <trkpt lat="47.496254" lon="7.823140">
        <ele>437.631444</ele>
        <time>2021-11-14T21:09:39.295Z</time>
      </trkpt>
      <trkpt lat="47.496320" lon="7.823139">
        <ele>437.542313</ele>
        <time>2021-11-14T21:09:40.208Z</time>
      </trkpt>
      <trkpt lat="47.496375" lon="7.823140">
        <ele>437.468035</ele>
        <time>2021-11-14T21:09:41.107Z</time>
      </trkpt>
      <trkpt lat="47.496704" lon="7.823163">
        <ele>437.023257</ele>
        <time>2021-11-14T21:09:45.380Z</time>
      </trkpt>
      <trkpt lat="47.496927" lon="7.823151">
        <ele>436.721918</ele>
        <time>2021-11-14T21:09:47.867Z</time>
      </trkpt>
      <trkpt lat="47.497246" lon="7.823247">
        <ele>436.282326</ele>
        <time>2021-11-14T21:09:51.244Z</time>
      </trkpt>
      <trkpt lat="47.498162" lon="7.823883">
        <ele>432.254768</ele>
        <time>2021-11-14T21:10:01.267Z</time>
      </trkpt>
      <trkpt lat="47.498343" lon="7.824061">
        <ele>431.139939</ele>
        <time>2021-11-14T21:10:03.325Z</time>
      </trkpt>
      <trkpt lat="47.498586" lon="7.824227">
        <ele>429.766946</ele>
        <time>2021-11-14T21:10:05.883Z</time>
      </trkpt>
      <trkpt lat="47.499488" lon="7.824926">
        <ele>423.304274</ele>
        <time>2021-11-14T21:10:15.011Z</time>
      </trkpt>
      <trkpt lat="47.499602" lon="7.824975">
        <ele>422.335124</ele>
        <time>2021-11-14T21:10:16.051Z</time>
      </trkpt>
      <trkpt lat="47.499714" lon="7.825011">
        <ele>421.399437</ele>
        <time>2021-11-14T21:10:17.035Z</time>
      </trkpt>
      <trkpt lat="47.500062" lon="7.825087">
        <ele>418.527585</ele>
        <time>2021-11-14T21:10:20.130Z</time>
      </trkpt>
      <trkpt lat="47.500269" lon="7.825147">
        <ele>416.805525</ele>
        <time>2021-11-14T21:10:22.022Z</time>
      </trkpt>
      <trkpt lat="47.500385" lon="7.825189">
        <ele>415.830573</ele>
        <time>2021-11-14T21:10:23.044Z</time>
      </trkpt>
      <trkpt lat="47.501557" lon="7.825705">
        <ele>407.120188</ele>
        <time>2021-11-14T21:10:33.753Z</time>
      </trkpt>
      <trkpt lat="47.502825" lon="7.825809">
        <ele>399.828078</ele>
        <time>2021-11-14T21:10:45.662Z</time>
      </trkpt>
      <trkpt lat="47.503143" lon="7.825808">
        <ele>399.100701</ele>
        <time>2021-11-14T21:10:48.891Z</time>
      </trkpt>
      <trkpt lat="47.503195" lon="7.825807">
        <ele>398.981750</ele>
        <time>2021-11-14T21:10:49.460Z</time>
      </trkpt>
      <trkpt lat="47.503225" lon="7.825809">
        <ele>398.913060</ele>
        <time>2021-11-14T21:10:49.793Z</time>
      </trkpt>
      <trkpt lat="47.503509" lon="7.825771">
        <ele>398.260806</ele>
        <time>2021-11-14T21:10:52.812Z</time>
      </trkpt>
      <trkpt lat="47.503860" lon="7.825735">
        <ele>397.456025</ele>
        <time>2021-11-14T21:10:56.745Z</time>
      </trkpt>
      <trkpt lat="47.504813" lon="7.825703">
        <ele>396.244133</ele>
        <time>2021-11-14T21:11:09.354Z</time>
      </trkpt>
      <trkpt lat="47.506147" lon="7.825028">
        <ele>396.313150</ele>
        <time>2021-11-14T21:11:32.448Z</time>
      </trkpt>
      <trkpt lat="47.507017" lon="7.824678">
        <ele>395.218636</ele>
        <time>2021-11-14T21:11:46.024Z</time>
      </trkpt>
      <trkpt lat="47.507990" lon="7.824326">
        <ele>393.475501</ele>
        <time>2021-11-14T21:11:56.808Z</time>
      </trkpt>
      <trkpt lat="47.508288" lon="7.824180">
        <ele>391.788262</ele>
        <time>2021-11-14T21:11:59.890Z</time>
      </trkpt>
      <trkpt lat="47.509075" lon="7.823456">
        <ele>386.807778</ele>
        <time>2021-11-14T21:12:08.416Z</time>
      </trkpt>
      <trkpt lat="47.509744" lon="7.823275">
        <ele>383.076859</ele>
        <time>2021-11-14T21:12:14.491Z</time>
      </trkpt>
      <trkpt lat="47.510203" lon="7.823212">
        <ele>380.459303</ele>
        <time>2021-11-14T21:12:18.712Z</time>
      </trkpt>
      <trkpt lat="47.510706" lon="7.823221">
        <ele>377.602867</ele>
        <time>2021-11-14T21:12:23.352Z</time>
      </trkpt>
      <trkpt lat="47.511863" lon="7.823271">
        <ele>372.882247</ele>
        <time>2021-11-14T21:12:34.396Z</time>
      </trkpt>
      <trkpt lat="47.512067" lon="7.823229">
        <ele>372.380253</ele>
        <time>2021-11-14T21:12:36.611Z</time>
      </trkpt>
      <trkpt lat="47.512263" lon="7.823167">
        <ele>371.891760</ele>
        <time>2021-11-14T21:12:38.745Z</time>
      </trkpt>
      <trkpt lat="47.512648" lon="7.822935">
        <ele>370.878653</ele>
        <time>2021-11-14T21:12:43.572Z</time>
      </trkpt>
      <trkpt lat="47.513483" lon="7.822231">
        <ele>369.210034</ele>
        <time>2021-11-14T21:12:56.581Z</time>
      </trkpt>
      <trkpt lat="47.514302" lon="7.821660">
        <ele>368.100515</ele>
        <time>2021-11-14T21:13:08.067Z</time>
      </trkpt>
      <trkpt lat="47.514708" lon="7.821376">
        <ele>367.210758</ele>
        <time>2021-11-14T21:13:12.714Z</time>
      </trkpt>
      <trkpt lat="47.514821" lon="7.821292">
        <ele>366.670514</ele>
        <time>2021-11-14T21:13:14.049Z</time>
      </trkpt>
      <trkpt lat="47.515036" lon="7.821090">
        <ele>365.582554</ele>
        <time>2021-11-14T21:13:16.561Z</time>
      </trkpt>
      <trkpt lat="47.515202" lon="7.820909">
        <ele>364.701722</ele>
        <time>2021-11-14T21:13:18.634Z</time>
      </trkpt>
      <trkpt lat="47.515268" lon="7.820836">
        <ele>364.349731</ele>
        <time>2021-11-14T21:13:19.385Z</time>
      </trkpt>
      <trkpt lat="47.515469" lon="7.820644">
        <ele>363.327713</ele>
        <time>2021-11-14T21:13:21.759Z</time>
      </trkpt>
      <trkpt lat="47.515587" lon="7.820532">
        <ele>362.728841</ele>
        <time>2021-11-14T21:13:23.041Z</time>
      </trkpt>
      <trkpt lat="47.516786" lon="7.819655">
        <ele>357.411898</ele>
        <time>2021-11-14T21:13:35.496Z</time>
      </trkpt>
      <trkpt lat="47.517657" lon="7.818442">
        <ele>353.146971</ele>
        <time>2021-11-14T21:13:47.914Z</time>
      </trkpt>
      <trkpt lat="47.518035" lon="7.818005">
        <ele>352.193307</ele>
        <time>2021-11-14T21:13:53.305Z</time>
      </trkpt>
      <trkpt lat="47.518220" lon="7.817823">
        <ele>351.751622</ele>
        <time>2021-11-14T21:13:55.839Z</time>
      </trkpt>
      <trkpt lat="47.518481" lon="7.817598">
        <ele>351.151047</ele>
        <time>2021-11-14T21:13:59.289Z</time>
      </trkpt>
      <trkpt lat="47.518941" lon="7.817228">
        <ele>350.110048</ele>
        <time>2021-11-14T21:14:05.085Z</time>
      </trkpt>
      <trkpt lat="47.519453" lon="7.816861">
        <ele>348.700419</ele>
        <time>2021-11-14T21:14:11.276Z</time>
      </trkpt>
      <trkpt lat="47.519807" lon="7.816661">
        <ele>347.678849</ele>
        <time>2021-11-14T21:14:15.212Z</time>
      </trkpt>
      <trkpt lat="47.519959" lon="7.816575">
        <ele>347.240129</ele>
        <time>2021-11-14T21:14:16.945Z</time>
      </trkpt>
      <trkpt lat="47.520002" lon="7.816556">
        <ele>347.119140</ele>
        <time>2021-11-14T21:14:17.389Z</time>
      </trkpt>
      <trkpt lat="47.520578" lon="7.816306">
        <ele>345.500789</ele>
        <time>2021-11-14T21:14:23.515Z</time>
      </trkpt>
      <trkpt lat="47.521028" lon="7.816163">
        <ele>344.252008</ele>
        <time>2021-11-14T21:14:28.241Z</time>
      </trkpt>
      <trkpt lat="47.521087" lon="7.816144">
        <ele>344.087250</ele>
        <time>2021-11-14T21:14:28.801Z</time>
      </trkpt>
      <trkpt lat="47.521199" lon="7.816108">
        <ele>343.774515</ele>
        <time>2021-11-14T21:14:30.004Z</time>
      </trkpt>
      <trkpt lat="47.521383" lon="7.816075">
        <ele>343.268759</ele>
        <time>2021-11-14T21:14:31.970Z</time>
      </trkpt>
      <trkpt lat="47.521699" lon="7.816019">
        <ele>342.400327</ele>
        <time>2021-11-14T21:14:35.258Z</time>
      </trkpt>
      <trkpt lat="47.521870" lon="7.815989">
        <ele>341.930451</ele>
        <time>2021-11-14T21:14:37.013Z</time>
      </trkpt>
      <trkpt lat="47.522090" lon="7.815952">
        <ele>341.326271</ele>
        <time>2021-11-14T21:14:39.502Z</time>
      </trkpt>
      <trkpt lat="47.523608" lon="7.815695">
        <ele>337.291890</ele>
        <time>2021-11-14T21:14:55.567Z</time>
      </trkpt>
      <trkpt lat="47.523730" lon="7.815653">
        <ele>336.966293</ele>
        <time>2021-11-14T21:14:56.878Z</time>
      </trkpt>
      <trkpt lat="47.523757" lon="7.815629">
        <ele>336.884433</ele>
        <time>2021-11-14T21:14:57.161Z</time>
      </trkpt>
      <trkpt lat="47.523836" lon="7.814923">
        <ele>335.628217</ele>
        <time>2021-11-14T21:15:02.395Z</time>
      </trkpt>
      <trkpt lat="47.523994" lon="7.814691">
        <ele>335.090560</ele>
        <time>2021-11-14T21:15:04.682Z</time>
      </trkpt>
      <trkpt lat="47.524032" lon="7.814643">
        <ele>334.979720</ele>
        <time>2021-11-14T21:15:05.194Z</time>
      </trkpt>
      <trkpt lat="47.524286" lon="7.814362">
        <ele>334.276126</ele>
        <time>2021-11-14T21:15:08.527Z</time>
      </trkpt>
      <trkpt lat="47.524601" lon="7.814100">
        <ele>333.474374</ele>
        <time>2021-11-14T21:15:12.302Z</time>
      </trkpt>
      <trkpt lat="47.524645" lon="7.814069">
        <ele>333.366243</ele>
        <time>2021-11-14T21:15:12.827Z</time>
      </trkpt>
      <trkpt lat="47.524963" lon="7.813836">
        <ele>332.578892</ele>
        <time>2021-11-14T21:15:16.758Z</time>
      </trkpt>
      <trkpt lat="47.524982" lon="7.813822">
        <ele>332.531797</ele>
        <time>2021-11-14T21:15:16.997Z</time>
      </trkpt>
      <trkpt lat="47.525103" lon="7.813754">
        <ele>332.244592</ele>
        <time>2021-11-14T21:15:18.488Z</time>
      </trkpt>
      <trkpt lat="47.525265" lon="7.813766">
        <ele>331.884637</ele>
        <time>2021-11-14T21:15:20.206Z</time>
      </trkpt>
      <trkpt lat="47.525640" lon="7.813941">
        <ele>331.109413</ele>
        <time>2021-11-14T21:15:24.656Z</time>
      </trkpt>
      <trkpt lat="47.525829" lon="7.814027">
        <ele>330.802136</ele>
        <time>2021-11-14T21:15:26.897Z</time>
      </trkpt>
      <trkpt lat="47.525874" lon="7.814072">
        <ele>330.717750</ele>
        <time>2021-11-14T21:15:27.508Z</time>
      </trkpt>
      <trkpt lat="47.526135" lon="7.814494">
        <ele>330.117213</ele>
        <time>2021-11-14T21:15:31.843Z</time>
      </trkpt>
      <trkpt lat="47.526221" lon="7.814598">
        <ele>329.944661</ele>
        <time>2021-11-14T21:15:33.180Z</time>
      </trkpt>
      <trkpt lat="47.526394" lon="7.814809">
        <ele>329.596360</ele>
        <time>2021-11-14T21:15:35.662Z</time>
      </trkpt>
      <trkpt lat="47.526478" lon="7.814853">
        <ele>329.457890</ele>
        <time>2021-11-14T21:15:36.714Z</time>
      </trkpt>
      <trkpt lat="47.526579" lon="7.814859">
        <ele>329.300800</ele>
        <time>2021-11-14T21:15:37.980Z</time>
      </trkpt>
      <trkpt lat="47.526655" lon="7.814822">
        <ele>329.176470</ele>
        <time>2021-11-14T21:15:38.914Z</time>
      </trkpt>
      <trkpt lat="47.526652" lon="7.814787">
        <ele>329.139447</ele>
        <time>2021-11-14T21:15:39.142Z</time>
      </trkpt>
      <trkpt lat="47.526961" lon="7.813898">
        <ele>328.196027</ele>
        <time>2021-11-14T21:15:47.154Z</time>
      </trkpt>
      <trkpt lat="47.526991" lon="7.813710">
        <ele>328.040843</ele>
        <time>2021-11-14T21:15:48.583Z</time>
      </trkpt>
      <trkpt lat="47.527017" lon="7.813562">
        <ele>327.917994</ele>
        <time>2021-11-14T21:15:52.226Z</time>
      </trkpt>
      <trkpt lat="47.527029" lon="7.813504">
        <ele>327.869264</ele>
        <time>2021-11-14T21:15:53.705Z</time>
      </trkpt>
      <trkpt lat="47.527062" lon="7.813419">
        <ele>327.790500</ele>
        <time>2021-11-14T21:15:56.014Z</time>
      </trkpt>
      <trkpt lat="47.527100" lon="7.813322">
        <ele>327.700414</ele>
        <time>2021-11-14T21:15:58.371Z</time>
      </trkpt>
      <trkpt lat="47.527132" lon="7.813271">
        <ele>327.644488</ele>
        <time>2021-11-14T21:15:59.844Z</time>
      </trkpt>
      <trkpt lat="47.527245" lon="7.813136">
        <ele>327.471765</ele>
        <time>2021-11-14T21:16:04.732Z</time>
      </trkpt>
      <trkpt lat="47.527344" lon="7.813003">
        <ele>327.312748</ele>
        <time>2021-11-14T21:16:09.339Z</time>
      </trkpt>
      <trkpt lat="47.527405" lon="7.812921">
        <ele>327.214740</ele>
        <time>2021-11-14T21:16:11.870Z</time>
      </trkpt>
      <trkpt lat="47.527523" lon="7.812743">
        <ele>327.014359</ele>
        <time>2021-11-14T21:16:17.635Z</time>
      </trkpt>
      <trkpt lat="47.527551" lon="7.812698">
        <ele>326.965202</ele>
        <time>2021-11-14T21:16:19.110Z</time>
      </trkpt>
      <trkpt lat="47.527751" lon="7.812328">
        <ele>326.584473</ele>
        <time>2021-11-14T21:16:29.769Z</time>
      </trkpt>
      <trkpt lat="47.527992" lon="7.811882">
        <ele>326.148816</ele>
        <time>2021-11-14T21:16:42.621Z</time>
      </trkpt>
      <trkpt lat="47.528071" lon="7.811726">
        <ele>326.005343</ele>
        <time>2021-11-14T21:16:47.168Z</time>
      </trkpt>
      <trkpt lat="47.528166" lon="7.811494">
        <ele>325.805710</ele>
        <time>2021-11-14T21:16:53.275Z</time>
      </trkpt>
      <trkpt lat="47.528485" lon="7.810633">
        <ele>325.083120</ele>
        <time>2021-11-14T21:17:15.610Z</time>
      </trkpt>
      <trkpt lat="47.528551" lon="7.810479">
        <ele>324.948917</ele>
        <time>2021-11-14T21:17:19.560Z</time>
      </trkpt>
      <trkpt lat="47.528632" lon="7.810311">
        <ele>324.797032</ele>
        <time>2021-11-14T21:17:24.402Z</time>
      </trkpt>
      <trkpt lat="47.528742" lon="7.810115">
        <ele>324.609514</ele>
        <time>2021-11-14T21:17:26.375Z</time>
      </trkpt>
      <trkpt lat="47.528791" lon="7.810026">
        <ele>324.525023</ele>
        <time>2021-11-14T21:17:27.276Z</time>
      </trkpt>
      <trkpt lat="47.528944" lon="7.809759">
        <ele>324.418241</ele>
        <time>2021-11-14T21:17:30.172Z</time>
      </trkpt>
      <trkpt lat="47.529100" lon="7.809485">
        <ele>324.382585</ele>
        <time>2021-11-14T21:17:33.159Z</time>
      </trkpt>
      <trkpt lat="47.529208" lon="7.809338">
        <ele>324.360972</ele>
        <time>2021-11-14T21:17:34.956Z</time>
      </trkpt>
      <trkpt lat="47.529274" lon="7.809267">
        <ele>324.348953</ele>
        <time>2021-11-14T21:17:36.024Z</time>
      </trkpt>
      <trkpt lat="47.529336" lon="7.809212">
        <ele>324.338305</ele>
        <time>2021-11-14T21:17:37.412Z</time>
      </trkpt>
      <trkpt lat="47.529513" lon="7.809105">
        <ele>324.310137</ele>
        <time>2021-11-14T21:17:39.897Z</time>
      </trkpt>
      <trkpt lat="47.529594" lon="7.809061">
        <ele>324.297425</ele>
        <time>2021-11-14T21:17:41.013Z</time>
      </trkpt>
      <trkpt lat="47.529966" lon="7.808858">
        <ele>324.239012</ele>
        <time>2021-11-14T21:17:47.575Z</time>
      </trkpt>
      <trkpt lat="47.530041" lon="7.808819">
        <ele>324.227300</ele>
        <time>2021-11-14T21:17:49.147Z</time>
      </trkpt>
      <trkpt lat="47.530543" lon="7.808552">
        <ele>324.253891</ele>
        <time>2021-11-14T21:17:57.912Z</time>
      </trkpt>
      <trkpt lat="47.530585" lon="7.808529">
        <ele>324.271982</ele>
        <time>2021-11-14T21:17:58.662Z</time>
      </trkpt>
      <trkpt lat="47.530684" lon="7.808469">
        <ele>324.315197</ele>
        <time>2021-11-14T21:18:00.917Z</time>
      </trkpt>
      <trkpt lat="47.531066" lon="7.808197">
        <ele>324.486432</ele>
        <time>2021-11-14T21:18:08.432Z</time>
      </trkpt>
      <trkpt lat="47.531380" lon="7.807943">
        <ele>324.630975</ele>
        <time>2021-11-14T21:18:14.736Z</time>
      </trkpt>
      <trkpt lat="47.531735" lon="7.807655">
        <ele>324.794500</ele>
        <time>2021-11-14T21:18:21.097Z</time>
      </trkpt>
      <trkpt lat="47.532412" lon="7.807037">
        <ele>324.518649</ele>
        <time>2021-11-14T21:18:32.503Z</time>
      </trkpt>
      <trkpt lat="47.532581" lon="7.806843">
        <ele>324.362086</ele>
        <time>2021-11-14T21:18:35.348Z</time>
      </trkpt>
      <trkpt lat="47.532546" lon="7.806703">
        <ele>324.288280</ele>
        <time>2021-11-14T21:18:37.006Z</time>
      </trkpt>
      <trkpt lat="47.533091" lon="7.806305">
        <ele>323.843342</ele>
        <time>2021-11-14T21:18:47.446Z</time>
      </trkpt>
      <trkpt lat="47.533589" lon="7.806079">
        <ele>323.497614</ele>
        <time>2021-11-14T21:18:56.114Z</time>
      </trkpt>
      <trkpt lat="47.533723" lon="7.806018">
        <ele>323.424367</ele>
        <time>2021-11-14T21:18:58.532Z</time>
      </trkpt>
      <trkpt lat="47.534648" lon="7.805785">
        <ele>322.934116</ele>
        <time>2021-11-14T21:19:15.819Z</time>
      </trkpt>
      <trkpt lat="47.534894" lon="7.805725">
        <ele>322.803850</ele>
        <time>2021-11-14T21:19:20.526Z</time>
      </trkpt>
      <trkpt lat="47.535092" lon="7.805671">
        <ele>322.698656</ele>
        <time>2021-11-14T21:19:24.852Z</time>
      </trkpt>
      <trkpt lat="47.535828" lon="7.805308">
        <ele>322.808864</ele>
        <time>2021-11-14T21:19:41.065Z</time>
      </trkpt>
      <trkpt lat="47.536875" lon="7.804558">
        <ele>323.055689</ele>
        <time>2021-11-14T21:20:06.997Z</time>
      </trkpt>
      <trkpt lat="47.537755" lon="7.803639">
        <ele>322.460270</ele>
        <time>2021-11-14T21:20:27.136Z</time>
      </trkpt>
      <trkpt lat="47.538164" lon="7.803170">
        <ele>322.174243</ele>
        <time>2021-11-14T21:20:36.282Z</time>
      </trkpt>
      <trkpt lat="47.538256" lon="7.803059">
        <ele>322.108627</ele>
        <time>2021-11-14T21:20:38.121Z</time>
      </trkpt>
      <trkpt lat="47.540006" lon="7.800680">
        <ele>320.425092</ele>
        <time>2021-11-14T21:21:19.014Z</time>
      </trkpt>
      <trkpt lat="47.540192" lon="7.800458">
        <ele>320.526981</ele>
        <time>2021-11-14T21:21:23.561Z</time>
      </trkpt>
      <trkpt lat="47.540260" lon="7.800353">
        <ele>320.568879</ele>
        <time>2021-11-14T21:21:26.626Z</time>
      </trkpt>
      <trkpt lat="47.540644" lon="7.800163">
        <ele>320.741572</ele>
        <time>2021-11-14T21:21:36.421Z</time>
      </trkpt>
      <trkpt lat="47.540897" lon="7.800171">
        <ele>320.849516</ele>
        <time>2021-11-14T21:21:42.588Z</time>
      </trkpt>
      <trkpt lat="47.541705" lon="7.800028">
        <ele>321.005196</ele>
        <time>2021-11-14T21:22:04.361Z</time>
      </trkpt>
      <trkpt lat="47.542307" lon="7.799830">
        <ele>321.050140</ele>
        <time>2021-11-14T21:22:19.334Z</time>
      </trkpt>
      <trkpt lat="47.542998" lon="7.799859">
        <ele>320.854012</ele>
        <time>2021-11-14T21:22:31.563Z</time>
      </trkpt>
      <trkpt lat="47.544071" lon="7.799629">
        <ele>315.645650</ele>
        <time>2021-11-14T21:22:46.485Z</time>
      </trkpt>
      <trkpt lat="47.544184" lon="7.799620">
        <ele>315.102016</ele>
        <time>2021-11-14T21:22:47.874Z</time>
      </trkpt>
      <trkpt lat="47.544345" lon="7.799570">
        <ele>314.311761</ele>
        <time>2021-11-14T21:22:50.069Z</time>
      </trkpt>
      <trkpt lat="47.544568" lon="7.799371">
        <ele>313.061125</ele>
        <time>2021-11-14T21:22:53.426Z</time>
      </trkpt>
      <trkpt lat="47.544749" lon="7.799388">
        <ele>312.163861</ele>
        <time>2021-11-14T21:22:55.859Z</time>
      </trkpt>
      <trkpt lat="47.544827" lon="7.799356">
        <ele>311.737093</ele>
        <time>2021-11-14T21:22:56.842Z</time>
      </trkpt>
      <trkpt lat="47.545096" lon="7.799250">
        <ele>310.269356</ele>
        <time>2021-11-14T21:23:00.558Z</time>
      </trkpt>
      <trkpt lat="47.545182" lon="7.799205">
        <ele>309.788429</ele>
        <time>2021-11-14T21:23:01.656Z</time>
      </trkpt>
      <trkpt lat="47.545396" lon="7.798977">
        <ele>308.398518</ele>
        <time>2021-11-14T21:23:05.194Z</time>
      </trkpt>
      <trkpt lat="47.545449" lon="7.798705">
        <ele>307.390871</ele>
        <time>2021-11-14T21:23:07.598Z</time>
      </trkpt>
      <trkpt lat="47.545511" lon="7.798680">
        <ele>307.052056</ele>
        <time>2021-11-14T21:23:08.427Z</time>
      </trkpt>
      <trkpt lat="47.545581" lon="7.798713">
        <ele>306.664714</ele>
        <time>2021-11-14T21:23:09.460Z</time>
      </trkpt>
      <trkpt lat="47.545731" lon="7.798810">
        <ele>305.801707</ele>
        <time>2021-11-14T21:23:11.673Z</time>
      </trkpt>
      <trkpt lat="47.545807" lon="7.798846">
        <ele>305.380979</ele>
        <time>2021-11-14T21:23:12.782Z</time>
      </trkpt>
      <trkpt lat="47.545898" lon="7.798866">
        <ele>304.895891</ele>
        <time>2021-11-14T21:23:14.095Z</time>
      </trkpt>
      <trkpt lat="47.546418" lon="7.798980">
        <ele>302.741677</ele>
        <time>2021-11-14T21:23:21.627Z</time>
      </trkpt>
      <trkpt lat="47.547540" lon="7.799538">
        <ele>301.046141</ele>
        <time>2021-11-14T21:23:41.358Z</time>
      </trkpt>
      <trkpt lat="47.547912" lon="7.799646">
        <ele>300.503075</ele>
        <time>2021-11-14T21:23:48.777Z</time>
      </trkpt>
      <trkpt lat="47.548459" lon="7.799691">
        <ele>300.342143</ele>
        <time>2021-11-14T21:23:59.715Z</time>
      </trkpt>
      <trkpt lat="47.548535" lon="7.799720">
        <ele>300.333315</ele>
        <time>2021-11-14T21:24:01.235Z</time>
      </trkpt>
      <trkpt lat="47.548514" lon="7.799795">
        <ele>300.327150</ele>
        <time>2021-11-14T21:24:02.299Z</time>
      </trkpt>
      <trkpt lat="47.548519" lon="7.799896">
        <ele>300.319462</ele>
        <time>2021-11-14T21:24:03.654Z</time>
      </trkpt>
      <trkpt lat="47.548545" lon="7.800404">
        <ele>300.280782</ele>
        <time>2021-11-14T21:24:10.444Z</time>
      </trkpt>
      <trkpt lat="47.548560" lon="7.800672">
        <ele>300.260365</ele>
        <time>2021-11-14T21:24:14.137Z</time>
      </trkpt>
      <trkpt lat="47.548569" lon="7.800838">
        <ele>300.247721</ele>
        <time>2021-11-14T21:24:16.381Z</time>
      </trkpt>
      <trkpt lat="47.548576" lon="7.800968">
        <ele>300.237820</ele>
        <time>2021-11-14T21:24:18.156Z</time>
      </trkpt>
      <trkpt lat="47.548596" lon="7.801213">
        <ele>300.219083</ele>
        <time>2021-11-14T21:24:21.535Z</time>
      </trkpt>
      <trkpt lat="47.548607" lon="7.801690">
        <ele>300.172388</ele>
        <time>2021-11-14T21:24:28.036Z</time>
      </trkpt>
      <trkpt lat="47.548626" lon="7.802129">
        <ele>300.104538</ele>
        <time>2021-11-14T21:24:33.955Z</time>
      </trkpt>
      <trkpt lat="47.548877" lon="7.802168">
        <ele>300.046867</ele>
        <time>2021-11-14T21:24:38.947Z</time>
      </trkpt>
      <trkpt lat="47.549410" lon="7.802226">
        <ele>299.924741</ele>
        <time>2021-11-14T21:24:49.347Z</time>
      </trkpt>
      <trkpt lat="47.549481" lon="7.802234">
        <ele>299.908469</ele>
        <time>2021-11-14T21:24:50.680Z</time>
      </trkpt>
      <trkpt lat="47.549879" lon="7.802247">
        <ele>299.817499</ele>
        <time>2021-11-14T21:24:58.141Z</time>
      </trkpt>
      <trkpt lat="47.550146" lon="7.802262">
        <ele>299.747845</ele>
        <time>2021-11-14T21:25:03.214Z</time>
      </trkpt>
      <trkpt lat="47.550134" lon="7.803051">
        <ele>299.585134</ele>
        <time>2021-11-14T21:25:13.444Z</time>
      </trkpt>
      <trkpt lat="47.550196" lon="7.803120">
        <ele>299.561447</ele>
        <time>2021-11-14T21:25:14.907Z</time>
      </trkpt>
      <trkpt lat="47.550333" lon="7.803122">
        <ele>299.519597</ele>
        <time>2021-11-14T21:25:17.463Z</time>
      </trkpt>
      <trkpt lat="47.550981" lon="7.803132">
        <ele>299.321645</ele>
        <time>2021-11-14T21:25:29.549Z</time>
      </trkpt>
      <trkpt lat="47.551163" lon="7.803129">
        <ele>299.266047</ele>
        <time>2021-11-14T21:25:32.951Z</time>
      </trkpt>
      <trkpt lat="47.551598" lon="7.803160">
        <ele>299.426357</ele>
        <time>2021-11-14T21:25:41.549Z</time>
      </trkpt>
      <trkpt lat="47.551666" lon="7.803144">
        <ele>299.467310</ele>
        <time>2021-11-14T21:25:46.293Z</time>
      </trkpt>
      <trkpt lat="47.551732" lon="7.803125">
        <ele>299.507301</ele>
        <time>2021-11-14T21:25:50.960Z</time>
      </trkpt>
      <trkpt lat="47.551744" lon="7.803277">
        <ele>299.568736</ele>
        <time>2021-11-14T21:25:52.654Z</time>
      </trkpt>
      <trkpt lat="47.551751" lon="7.803369">
        <ele>299.605902</ele>
        <time>2021-11-14T21:25:53.732Z</time>
      </trkpt>
      <trkpt lat="47.551692" lon="7.803510">
        <ele>299.672501</ele>
        <time>2021-11-14T21:25:56.335Z</time>
      </trkpt>
      <trkpt lat="47.551741" lon="7.804294">
        <ele>299.988578</ele>
        <time>2021-11-14T21:26:09.369Z</time>
      </trkpt>
      <trkpt lat="47.551744" lon="7.804473">
        <ele>300.060458</ele>
        <time>2021-11-14T21:26:11.889Z</time>
      </trkpt>
      <trkpt lat="47.551731" lon="7.804667">
        <ele>300.138721</ele>
        <time>2021-11-14T21:26:15.869Z</time>
      </trkpt>
      <trkpt lat="47.551709" lon="7.805000">
        <ele>300.273040</ele>
        <time>2021-11-14T21:26:20.360Z</time>
      </trkpt>
      <trkpt lat="47.551681" lon="7.805477">
        <ele>300.410566</ele>
        <time>2021-11-14T21:26:28.097Z</time>
      </trkpt>
      <trkpt lat="47.551671" lon="7.806117">
        <ele>300.581276</ele>
        <time>2021-11-14T21:26:38.186Z</time>
      </trkpt>
      <trkpt lat="47.551651" lon="7.806246">
        <ele>300.616571</ele>
        <time>2021-11-14T21:26:41.089Z</time>
      </trkpt>
      <trkpt lat="47.551895" lon="7.806278">
        <ele>300.713352</ele>
        <time>2021-11-14T21:26:44.614Z</time>
      </trkpt>
      <trkpt lat="47.552015" lon="7.806307">
        <ele>300.761391</ele>
        <time>2021-11-14T21:26:47.485Z</time>
      </trkpt>
      <trkpt lat="47.552068" lon="7.806445">
        <ele>300.803731</ele>
        <time>2021-11-14T21:26:48.942Z</time>
      </trkpt>
      <trkpt lat="47.552398" lon="7.808880">
        <ele>300.366918</ele>
        <time>2021-11-14T21:27:11.084Z</time>
      </trkpt>
      <trkpt lat="47.552566" lon="7.810386">
        <ele>299.747584</ele>
        <time>2021-11-14T21:27:24.095Z</time>
      </trkpt>
      <trkpt lat="47.552711" lon="7.812955">
        <ele>298.598023</ele>
        <time>2021-11-14T21:27:46.704Z</time>
      </trkpt>
      <trkpt lat="47.552844" lon="7.816432">
        <ele>297.500378</ele>
        <time>2021-11-14T21:28:17.197Z</time>
      </trkpt>
      <trkpt lat="47.552948" lon="7.819358">
        <ele>297.828845</ele>
        <time>2021-11-14T21:28:48.427Z</time>
      </trkpt>
      <trkpt lat="47.552896" lon="7.820699">
        <ele>298.302870</ele>
        <time>2021-11-14T21:29:04.511Z</time>
      </trkpt>
      <trkpt lat="47.552567" lon="7.824508">
        <ele>300.193100</ele>
        <time>2021-11-14T21:29:50.918Z</time>
      </trkpt>
      <trkpt lat="47.552511" lon="7.826510">
        <ele>301.258590</ele>
        <time>2021-11-14T21:30:13.952Z</time>
      </trkpt>
      <trkpt lat="47.552491" lon="7.827227">
        <ele>301.744810</ele>
        <time>2021-11-14T21:30:22.658Z</time>
      </trkpt>
      <trkpt lat="47.552515" lon="7.828094">
        <ele>302.332743</ele>
        <time>2021-11-14T21:30:34.381Z</time>
      </trkpt>
      <trkpt lat="47.552477" lon="7.828294">
        <ele>302.473521</ele>
        <time>2021-11-14T21:30:37.012Z</time>
      </trkpt>
      <trkpt lat="47.552421" lon="7.828481">
        <ele>302.679576</ele>
        <time>2021-11-14T21:30:39.950Z</time>
      </trkpt>
      <trkpt lat="47.552404" lon="7.828582">
        <ele>302.837342</ele>
        <time>2021-11-14T21:30:41.637Z</time>
      </trkpt>
      <trkpt lat="47.552416" lon="7.828822">
        <ele>303.202086</ele>
        <time>2021-11-14T21:30:44.890Z</time>
      </trkpt>
      <trkpt lat="47.552554" lon="7.829266">
        <ele>303.942947</ele>
        <time>2021-11-14T21:30:52.263Z</time>
      </trkpt>
      <trkpt lat="47.552645" lon="7.830686">
        <ele>306.104793</ele>
        <time>2021-11-14T21:31:15.570Z</time>
      </trkpt>
      <trkpt lat="47.552690" lon="7.832598">
        <ele>309.807994</ele>
        <time>2021-11-14T21:31:51.047Z</time>
      </trkpt>
      <trkpt lat="47.552616" lon="7.832891">
        <ele>310.440395</ele>
        <time>2021-11-14T21:31:56.411Z</time>
      </trkpt>
      <trkpt lat="47.552556" lon="7.832977">
        <ele>310.690431</ele>
        <time>2021-11-14T21:31:59.142Z</time>
      </trkpt>
      <trkpt lat="47.552511" lon="7.833072">
        <ele>310.925048</ele>
        <time>2021-11-14T21:32:01.168Z</time>
      </trkpt>
      <trkpt lat="47.552467" lon="7.833198">
        <ele>311.211828</ele>
        <time>2021-11-14T21:32:03.569Z</time>
      </trkpt>
      <trkpt lat="47.552452" lon="7.833284">
        <ele>311.391386</ele>
        <time>2021-11-14T21:32:05.180Z</time>
      </trkpt>
      <trkpt lat="47.552696" lon="7.833789">
        <ele>312.487231</ele>
        <time>2021-11-14T21:32:16.212Z</time>
      </trkpt>
      <trkpt lat="47.552700" lon="7.833938">
        <ele>312.716085</ele>
        <time>2021-11-14T21:32:19.156Z</time>
      </trkpt>
      <trkpt lat="47.552714" lon="7.835010">
        <ele>314.361614</ele>
        <time>2021-11-14T21:32:37.633Z</time>
      </trkpt>
      <trkpt lat="47.552719" lon="7.836790">
        <ele>316.738962</ele>
        <time>2021-11-14T21:33:02.917Z</time>
      </trkpt>
      <trkpt lat="47.552697" lon="7.838068">
        <ele>318.018770</ele>
        <time>2021-11-14T21:33:20.539Z</time>
      </trkpt>
      <trkpt lat="47.552736" lon="7.838578">
        <ele>318.532592</ele>
        <time>2021-11-14T21:33:27.670Z</time>
      </trkpt>
      <trkpt lat="47.552802" lon="7.839009">
        <ele>318.996586</ele>
        <time>2021-11-14T21:33:33.842Z</time>
      </trkpt>
      <trkpt lat="47.552931" lon="7.839496">
        <ele>319.568746</ele>
        <time>2021-11-14T21:33:41.153Z</time>
      </trkpt>
      <trkpt lat="47.552939" lon="7.839526">
        <ele>319.604023</ele>
        <time>2021-11-14T21:33:41.690Z</time>
      </trkpt>
      <trkpt lat="47.553231" lon="7.841529">
        <ele>321.790904</ele>
        <time>2021-11-14T21:34:11.742Z</time>
      </trkpt>
      <trkpt lat="47.553216" lon="7.841849">
        <ele>322.040911</ele>
        <time>2021-11-14T21:34:16.348Z</time>
      </trkpt>
      <trkpt lat="47.553123" lon="7.842222">
        <ele>322.350829</ele>
        <time>2021-11-14T21:34:21.578Z</time>
      </trkpt>
      <trkpt lat="47.553133" lon="7.842431">
        <ele>322.514132</ele>
        <time>2021-11-14T21:34:24.707Z</time>
      </trkpt>
      <trkpt lat="47.552833" lon="7.842495">
        <ele>322.864150</ele>
        <time>2021-11-14T21:34:32.016Z</time>
      </trkpt>
      <trkpt lat="47.552380" lon="7.842592">
        <ele>323.392719</ele>
        <time>2021-11-14T21:34:43.064Z</time>
      </trkpt>
      <trkpt lat="47.551922" lon="7.842704">
        <ele>323.872502</ele>
        <time>2021-11-14T21:34:53.630Z</time>
      </trkpt>
      <trkpt lat="47.551668" lon="7.842770">
        <ele>324.084448</ele>
        <time>2021-11-14T21:34:59.589Z</time>
      </trkpt>
      <trkpt lat="47.551454" lon="7.842815">
        <ele>324.262096</ele>
        <time>2021-11-14T21:35:04.276Z</time>
      </trkpt>
      <trkpt lat="47.551344" lon="7.844621">
        <ele>325.301973</ele>
        <time>2021-11-14T21:35:26.791Z</time>
      </trkpt>
      <trkpt lat="47.551205" lon="7.846694">
        <ele>327.157250</ele>
        <time>2021-11-14T21:35:54.778Z</time>
      </trkpt>
      <trkpt lat="47.551184" lon="7.847206">
        <ele>327.619250</ele>
        <time>2021-11-14T21:36:02.164Z</time>
      </trkpt>
      <trkpt lat="47.551196" lon="7.847517">
        <ele>327.946443</ele>
        <time>2021-11-14T21:36:06.728Z</time>
      </trkpt>
      <trkpt lat="47.551669" lon="7.848083">
        <ele>328.892628</ele>
        <time>2021-11-14T21:36:19.813Z</time>
      </trkpt>
      <trkpt lat="47.551242" lon="7.848702">
        <ele>329.822301</ele>
        <time>2021-11-14T21:36:32.397Z</time>
      </trkpt>
      <trkpt lat="47.550975" lon="7.849066">
        <ele>330.386284</ele>
        <time>2021-11-14T21:36:39.712Z</time>
      </trkpt>
      <trkpt lat="47.550810" lon="7.849346">
        <ele>330.677851</ele>
        <time>2021-11-14T21:36:46.105Z</time>
      </trkpt>
      <trkpt lat="47.550488" lon="7.850081">
        <ele>331.365197</ele>
        <time>2021-11-14T21:37:01.571Z</time>
      </trkpt>
      <trkpt lat="47.550333" lon="7.850434">
        <ele>331.695535</ele>
        <time>2021-11-14T21:37:08.902Z</time>
      </trkpt>
      <trkpt lat="47.550009" lon="7.851173">
        <ele>332.386783</ele>
        <time>2021-11-14T21:37:23.464Z</time>
      </trkpt>
      <trkpt lat="47.549652" lon="7.851969">
        <ele>332.461380</ele>
        <time>2021-11-14T21:37:37.341Z</time>
      </trkpt>
      <trkpt lat="47.549535" lon="7.852225">
        <ele>332.456501</ele>
        <time>2021-11-14T21:37:41.390Z</time>
      </trkpt>
      <trkpt lat="47.549285" lon="7.852784">
        <ele>332.445918</ele>
        <time>2021-11-14T21:37:50.035Z</time>
      </trkpt>
      <trkpt lat="47.549447" lon="7.852974">
        <ele>332.441086</ele>
        <time>2021-11-14T21:37:53.982Z</time>
      </trkpt>
      <trkpt lat="47.549708" lon="7.853279">
        <ele>332.433314</ele>
        <time>2021-11-14T21:38:00.423Z</time>
      </trkpt>
      <trkpt lat="47.550221" lon="7.853833">
        <ele>332.095442</ele>
        <time>2021-11-14T21:38:12.350Z</time>
      </trkpt>
      <trkpt lat="47.549883" lon="7.854434">
        <ele>331.801592</ele>
        <time>2021-11-14T21:38:19.025Z</time>
      </trkpt>
      <trkpt lat="47.549566" lon="7.855225">
        <ele>331.456041</ele>
        <time>2021-11-14T21:38:30.195Z</time>
      </trkpt>
      <trkpt lat="47.549362" lon="7.855774">
        <ele>331.347932</ele>
        <time>2021-11-14T21:38:38.117Z</time>
      </trkpt>
      <trkpt lat="47.548887" lon="7.857308">
        <ele>331.096426</ele>
        <time>2021-11-14T21:39:00.225Z</time>
      </trkpt>
      <trkpt lat="47.548743" lon="7.857692">
        <ele>331.045834</ele>
        <time>2021-11-14T21:39:06.197Z</time>
      </trkpt>
      <trkpt lat="47.548701" lon="7.857893">
        <ele>331.145217</ele>
        <time>2021-11-14T21:39:09.168Z</time>
      </trkpt>
      <trkpt lat="47.548686" lon="7.857973">
        <ele>331.184434</ele>
        <time>2021-11-14T21:39:10.291Z</time>
      </trkpt>
      <trkpt lat="47.548611" lon="7.858381">
        <ele>331.384162</ele>
        <time>2021-11-14T21:39:16.505Z</time>
      </trkpt>
      <trkpt lat="47.548334" lon="7.859801">
        <ele>332.082318</ele>
        <time>2021-11-14T21:39:39.543Z</time>
      </trkpt>
      <trkpt lat="47.548049" lon="7.860929">
        <ele>333.145922</ele>
        <time>2021-11-14T21:40:00.561Z</time>
      </trkpt>
      <trkpt lat="47.547930" lon="7.861711">
        <ele>334.047746</ele>
        <time>2021-11-14T21:40:15.325Z</time>
      </trkpt>
      <trkpt lat="47.547568" lon="7.863151">
        <ele>335.526132</ele>
        <time>2021-11-14T21:40:44.453Z</time>
      </trkpt>
      <trkpt lat="47.547320" lon="7.863864">
        <ele>335.963177</ele>
        <time>2021-11-14T21:40:58.393Z</time>
      </trkpt>
      <trkpt lat="47.546974" lon="7.864423">
        <ele>336.376441</ele>
        <time>2021-11-14T21:41:09.216Z</time>
      </trkpt>
      <trkpt lat="47.546885" lon="7.864500">
        <ele>336.459639</ele>
        <time>2021-11-14T21:41:12.301Z</time>
      </trkpt>
      <trkpt lat="47.546894" lon="7.864837">
        <ele>336.643408</ele>
        <time>2021-11-14T21:41:16.185Z</time>
      </trkpt>
      <trkpt lat="47.546889" lon="7.865225">
        <ele>336.624960</ele>
        <time>2021-11-14T21:41:21.610Z</time>
      </trkpt>
      <trkpt lat="47.546819" lon="7.865489">
        <ele>336.461941</ele>
        <time>2021-11-14T21:41:25.554Z</time>
      </trkpt>
      <trkpt lat="47.546510" lon="7.865766">
        <ele>336.154416</ele>
        <time>2021-11-14T21:41:32.188Z</time>
      </trkpt>
      <trkpt lat="47.546327" lon="7.865959">
        <ele>335.963145</ele>
        <time>2021-11-14T21:41:35.703Z</time>
      </trkpt>
      <trkpt lat="47.546096" lon="7.866147">
        <ele>335.738727</ele>
        <time>2021-11-14T21:41:40.259Z</time>
      </trkpt>
      <trkpt lat="47.545240" lon="7.866887">
        <ele>335.396540</ele>
        <time>2021-11-14T21:41:56.933Z</time>
      </trkpt>
      <trkpt lat="47.545160" lon="7.866985">
        <ele>335.448208</ele>
        <time>2021-11-14T21:41:58.889Z</time>
      </trkpt>
      <trkpt lat="47.545003" lon="7.867278">
        <ele>335.573892</ele>
        <time>2021-11-14T21:42:04.557Z</time>
      </trkpt>
      <trkpt lat="47.544568" lon="7.867693">
        <ele>335.831413</ele>
        <time>2021-11-14T21:42:17.348Z</time>
      </trkpt>
      <trkpt lat="47.544469" lon="7.867776">
        <ele>335.888032</ele>
        <time>2021-11-14T21:42:20.210Z</time>
      </trkpt>
      <trkpt lat="47.544410" lon="7.867825">
        <ele>335.921697</ele>
        <time>2021-11-14T21:42:22.298Z</time>
      </trkpt>
      <trkpt lat="47.544246" lon="7.867967">
        <ele>336.016244</ele>
        <time>2021-11-14T21:42:26.982Z</time>
      </trkpt>
      <trkpt lat="47.544214" lon="7.867988">
        <ele>336.033664</ele>
        <time>2021-11-14T21:42:27.830Z</time>
      </trkpt>
      <trkpt lat="47.543801" lon="7.868269">
        <ele>336.106693</ele>
        <time>2021-11-14T21:42:39.433Z</time>
      </trkpt>
      <trkpt lat="47.543657" lon="7.868359">
        <ele>336.106693</ele>
        <time>2021-11-14T21:42:43.784Z</time>
      </trkpt>
      <trkpt lat="47.543201" lon="7.868657">
        <ele>336.106693</ele>
        <time>2021-11-14T21:42:54.218Z</time>
      </trkpt>
      <trkpt lat="47.543105" lon="7.868711">
        <ele>336.106693</ele>
        <time>2021-11-14T21:42:56.865Z</time>
      </trkpt>
      <trkpt lat="47.543049" lon="7.868759">
        <ele>336.106693</ele>
        <time>2021-11-14T21:42:58.244Z</time>
      </trkpt>
      <trkpt lat="47.542722" lon="7.869201">
        <ele>336.106693</ele>
        <time>2021-11-14T21:43:07.843Z</time>
      </trkpt>
      <trkpt lat="47.542696" lon="7.869257">
        <ele>336.106693</ele>
        <time>2021-11-14T21:43:08.588Z</time>
      </trkpt>
      <trkpt lat="47.542657" lon="7.869354">
        <ele>336.106693</ele>
        <time>2021-11-14T21:43:09.997Z</time>
      </trkpt>
      <trkpt lat="47.542501" lon="7.869567">
        <ele>336.106693</ele>
        <time>2021-11-14T21:43:14.191Z</time>
      </trkpt>
    </trkseg>
  </trk>
</gpx>